[[{"header":{"parameterUnit":"m.s-1","parameterCategory":1,"la1":31.0,"la2":29.5877,"lo1":-88.7671,"lo2":-86.6584,"dy":0.0162,"dx":0.0185,"nx":115,"ny":88,"refTime":"2024-04-11T06:00:00:Z","depth":0,"parameterNumber":2,"parameterNumberName":"U-component_of_WINDS"},"data":[0.0,0.0,0.0,0.0,0.0,0.0,0.0,0.0,0.0,0.0,0.0,0.0,0.0,0.0,0.0,0.0,0.0,0.0,0.0,0.0,0.0,0.0,0.0,0.0,0.0,0.0,0.0,0.0,0.0,0.0,0.0,0.0,0.0,0.0,0.0,0.0,0.0,0.0,0.0,0.0,0.0,0.0,0.0,0.0,0.0,0.0,0.0,0.0,0.0,0.0,0.0,0.0,0.0,0.0,0.0,0.0,0.0,0.0,0.0,0.0,0.0,0.0,0.0,0.0,0.0,0.0,0.0,0.0,0.0,0.0,0.0,0.0,0.0,0.0,0.0,0.0,0.0,0.0,0.0,0.0,0.0,0.0,0.0,0.0,0.0,0.0,0.0,0.0,0.0,0.0,0.0,0.0,0.0,0.0,0.0,0.0,0.0,0.0,0.0,0.0,0.0,0.0,0.0,0.0,0.0,0.0,0.0,0.0,0.0,0.0,0.0,0.0,0.0,0.0,0.0,0.0,0.0,0.0,0.0,0.0,0.0,0.0,0.0,0.0,0.0,0.0,0.0,0.0,0.0,0.0,0.0,0.0,0.0,0.0,0.0,0.0,0.0,0.0,0.0,0.0,0.0,0.0,0.0,0.0,0.0,0.0,0.0,0.0,0.0,0.0,0.0,0.0,0.0,0.0,0.0,0.0,0.0,0.0,0.0,0.0,0.0,0.0,0.0,0.0,0.0,0.0,0.0,0.0,0.0,0.0,0.0,0.0,0.0,0.0,0.0,0.0,0.0,0.0,0.0,0.0,0.0,0.0,0.0,0.0,0.0,0.0,0.0,0.0,0.0,0.0,0.0,0.0,0.0,0.0,0.0,0.0,0.0,0.0,0.0,0.0,0.0,0.0,0.0,0.0,0.0,0.0,0.0,0.0,0.0,0.0,0.0,0.0,0.0,0.0,0.0,0.0,0.0,0.0,0.0,0.0,0.0,0.0,0.0,0.0,0.0,0.0,0.0,0.0,0.0,0.0,0.0,0.0,0.0,0.0,0.0,0.0,0.0,0.0,0.0,0.0,0.0,0.0,0.0,0.0,0.0,0.0,0.0,0.0,0.0,0.0,0.0,0.0,0.0,0.0,0.0,0.0,0.0,0.0,0.0,0.0,0.0,0.0,0.0,0.0,0.0,0.0,0.0,0.0,0.0,0.0,0.0,0.0,0.0,0.0,0.0,0.0,0.0,0.0,0.0,0.0,0.0,0.0,0.0,0.0,0.0,0.0,0.0,0.0,0.0,0.0,0.0,0.0,0.0,0.0,0.0,0.0,0.0,0.0,0.0,0.0,0.0,0.0,0.0,0.0,0.0,0.0,0.0,0.0,0.0,0.0,0.0,0.0,0.0,0.0,0.0,0.0,0.0,0.0,0.0,0.0,0.0,0.0,0.0,0.0,0.0,0.0,0.0,0.0,0.0,0.0,0.0,0.0,0.0,0.0,0.0,0.0,0.0,0.0,0.0,0.0,0.0,0.0,0.0,0.0,0.0,0.0,0.0,0.0,0.0,0.0,0.0,0.0,0.0,0.0,0.0,0.0,0.0,0.0,0.0,0.0,0.0,0.0,0.0,0.0,0.0,0.0,0.0,0.0,0.0,0.0,0.0,0.0,0.0,0.0,0.0,0.0,0.0,0.0,0.0,0.0,0.0,0.0,0.0,0.0,0.0,0.0,0.0,0.0,0.0,0.0,0.0,0.0,0.0,0.0,0.0,0.0,0.0,0.0,0.0,0.0,0.0,0.0,0.0,0.0,0.0,0.0,0.0,0.0,0.0,0.0,0.0,0.0,0.0,0.0,0.0,0.0,0.0,0.0,0.0,0.0,0.0,0.0,0.0,0.0,0.0,0.0,0.0,0.0,0.0,0.0,0.0,0.0,0.0,0.0,0.0,0.0,0.0,0.0,0.0,0.0,0.0,0.0,0.0,0.0,0.0,0.0,0.0,0.0,0.0,0.0,0.0,0.0,0.0,0.0,0.0,0.0,0.0,0.0,0.0,0.0,0.0,0.0,0.0,0.0,0.0,0.0,0.0,0.0,0.0,0.0,0.0,0.0,0.0,0.0,0.0,0.0,0.0,0.0,0.0,0.0,0.0,0.0,0.0,0.0,0.0,0.0,0.0,0.0,0.0,0.0,0.0,0.0,0.0,0.0,0.0,0.0,0.0,0.0,0.0,0.0,0.0,0.0,0.0,0.0,0.0,0.0,0.0,0.0,0.0,0.0,0.0,0.0,0.0,0.0,0.0,0.0,0.0,0.0,0.0,0.0,0.0,0.0,0.0,0.0,0.0,0.0,0.0,0.0,0.0,0.0,0.0,0.0,0.0,0.0,0.0,0.0,0.0,0.0,0.0,0.0,0.0,0.0,0.0,0.0,0.0,0.0,0.0,0.0,0.0,0.0,0.0,0.0,0.0,0.0,0.0,0.0,0.0,0.0,0.0,0.0,0.0,0.0,0.0,0.0,0.0,0.0,0.0,0.0,0.0,0.0,0.0,0.0,0.0,0.0,0.0,0.0,0.0,0.0,0.0,0.0,0.0,0.0,0.0,0.0,0.0,0.0,0.0,0.0,0.0,0.0,0.0,0.0,0.0,0.0,0.0,0.0,0.0,0.0,0.0,0.0,0.0,0.0,0.0,0.0,0.0,0.0,0.0,0.0,0.0,0.0,0.0,0.0,0.0,0.0,0.0,0.0,0.0,0.0,0.0,0.0,0.0,0.0,0.0,0.0,0.0,0.0,0.0,0.0,0.0,0.0,0.0,0.0,0.0,0.0,0.0,0.0,0.0,0.0,0.0,0.0,0.0,0.0,0.0,0.0,0.0,0.0,0.0,0.0,0.0,0.0,0.0,0.0,0.0,0.0,0.0,0.0,0.0,0.0,0.0,0.0,0.0,0.0,0.0,0.0,0.0,0.0,0.0,0.0,0.0,0.0,0.0,0.0,0.0,0.0,0.0,0.0,0.0,0.0,0.0,0.0,0.0,0.0,0.0,0.0,0.0,0.0,0.0,0.0,0.0,0.0,0.0,0.0,0.0,0.0,0.0,0.0,0.0,0.0,0.0,0.0,0.0,0.0,0.0,0.0,0.0,0.0,0.0,0.0,0.0,0.0,0.0,0.0,0.0,0.0,0.0,0.0,0.0,0.0,0.0,0.0,0.0,0.0,0.0,0.0,0.0,0.0,0.0,0.0,0.0,0.0,0.0,0.0,0.0,0.0,0.0,0.0,0.0,0.0,0.0,0.0,0.0,0.0,0.0,0.0,0.0,0.0,0.0,0.0,0.0,0.0,0.0,0.0,0.0,0.0,0.0,0.0,0.0,0.0,0.0,0.0,0.0,0.0,0.0,0.0,0.0,0.0,0.0,0.0,0.0,0.0,0.0,0.0,0.0,0.0,0.0,0.0,0.0,0.0,0.0,0.0,0.0,0.0,0.0,0.0,0.0,0.0,0.0,0.0,0.0,0.0,0.0,0.0,0.0,0.0,0.0,0.0,0.0,0.0,0.0,0.0,0.0,0.0,0.0,0.0,0.0,0.0,0.0,0.0,0.0,0.0,0.0,0.0,0.0,0.0,0.0,0.0,0.0,0.0,0.0,0.0,0.0,0.0,0.0,0.0,0.0,0.0,0.0,0.0,0.0,0.0,0.0,0.0,0.0,0.0,0.0,0.0,0.0,0.0,0.0,0.0,0.0,0.0,0.0,0.0,0.0,0.0,0.0,0.0,0.0,0.0,0.0,0.0,0.0,0.0,0.0,0.0,0.0,0.0,0.0,0.0,0.0,0.0,0.0,0.0,0.0,0.0,0.0,0.0,0.0,0.0,0.0,0.0,0.0,0.0,0.0,0.0,0.0,0.0,0.0,0.0,0.0,0.0,0.0,0.0,0.0,0.0,0.0,0.0,0.0,0.0,0.0,0.0,0.0,0.0,0.0,0.0,0.0,0.0,0.0,0.0,0.0,0.0,0.0,0.0,0.0,0.0,0.0,0.0,0.0,0.0,0.0,0.0,0.0,0.0,0.0,0.0,0.0,0.0,0.0,0.0,0.0,0.0,0.0,0.0,0.0,0.0,0.0,0.0,0.0,0.0,0.0,0.0,0.0,0.0,0.0,0.0,0.0,0.0,0.0,0.0,0.0,0.0,0.0,0.0,0.0,0.0,0.0,0.0,0.0,0.0,0.0,0.0,0.0,0.0,0.0,0.0,0.0,0.0,0.0,0.0,0.0,0.0,0.0,0.0,0.0,0.0,3.3574,0.0,0.0,0.0,0.0,0.0,0.0,0.0,0.0,0.0,0.0,0.0,0.0,0.0,0.0,0.0,0.0,0.0,0.0,0.0,0.0,0.0,0.0,0.0,0.0,0.0,0.0,0.0,0.0,0.0,0.0,0.0,0.0,0.0,0.0,0.0,0.0,0.0,0.0,0.0,0.0,0.0,0.0,0.0,0.0,0.0,0.0,0.0,0.0,0.0,0.0,0.0,0.0,0.0,0.0,0.0,0.0,0.0,0.0,0.0,0.0,0.0,0.0,0.0,0.0,0.0,0.0,0.0,0.0,0.0,0.0,0.0,0.0,0.0,0.0,0.0,0.0,0.0,0.0,0.0,0.0,0.0,0.0,0.0,0.0,0.0,0.0,0.0,0.0,0.0,0.0,0.0,0.0,0.0,0.0,0.0,0.0,0.0,0.0,0.0,0.0,0.0,0.0,0.0,0.0,0.0,0.0,0.0,0.0,0.0,0.0,3.5489,3.5489,3.5489,3.4891,3.3544,0.0,0.0,0.0,0.0,0.0,0.0,0.0,0.0,0.0,0.0,0.0,0.0,0.0,0.0,0.0,0.0,0.0,0.0,0.0,0.0,0.0,0.0,0.0,0.0,0.0,0.0,0.0,0.0,0.0,0.0,0.0,0.0,0.0,0.0,0.0,0.0,0.0,0.0,0.0,0.0,0.0,0.0,0.0,0.0,0.0,0.0,0.0,0.0,0.0,0.0,0.0,0.0,0.0,0.0,0.0,0.0,0.0,0.0,0.0,0.0,0.0,0.0,0.0,0.0,0.0,0.0,0.0,0.0,0.0,0.0,0.0,0.0,0.0,0.0,0.0,0.0,0.0,0.0,0.0,0.0,0.0,0.0,0.0,0.0,0.0,0.0,0.0,0.0,0.0,0.0,0.0,0.0,0.0,0.0,0.0,0.0,0.0,0.0,0.0,0.0,0.0,0.0,0.0,0.0,0.0,0.0,0.0,0.0,0.0,0.0,0.0,0.0,3.5489,3.4861,3.3544,0.0,0.0,0.0,0.0,0.0,0.0,0.0,0.0,0.0,0.0,0.0,0.0,0.0,0.0,0.0,0.0,0.0,0.0,0.0,0.0,0.0,0.0,0.0,0.0,0.0,0.0,0.0,0.0,0.0,0.0,0.0,0.0,0.0,0.0,0.0,0.0,0.0,0.0,0.0,0.0,0.0,0.0,0.0,0.0,0.0,0.0,0.0,0.0,0.0,0.0,0.0,0.0,0.0,0.0,0.0,0.0,0.0,0.0,0.0,0.0,0.0,0.0,0.0,0.0,0.0,0.0,0.0,0.0,0.0,0.0,0.0,0.0,0.0,0.0,0.0,0.0,0.0,0.0,0.0,0.0,0.0,0.0,0.0,0.0,0.0,0.0,0.0,0.0,0.0,0.0,0.0,0.0,0.0,0.0,0.0,0.0,0.0,0.0,0.0,0.0,0.0,0.0,0.0,0.0,0.0,0.0,0.0,0.0,0.0,0.0,3.5489,3.5489,3.5489,0.0,3.3544,0.0,0.0,0.0,0.0,0.0,0.0,0.0,0.0,0.0,0.0,0.0,0.0,0.0,0.0,0.0,0.0,0.0,0.0,0.0,0.0,0.0,0.0,0.0,0.0,0.0,0.0,0.0,0.0,0.0,0.0,0.0,0.0,0.0,0.0,0.0,0.0,0.0,0.0,0.0,0.0,0.0,0.0,0.0,0.0,0.0,0.0,0.0,0.0,0.0,0.0,0.0,0.0,0.0,0.0,0.0,0.0,0.0,0.0,0.0,0.0,0.0,0.0,0.0,0.0,0.0,0.0,0.0,0.0,0.0,0.0,0.0,0.0,0.0,0.0,0.0,0.0,0.0,0.0,0.0,0.0,0.0,0.0,0.0,0.0,0.0,0.0,0.0,0.0,0.0,0.0,0.0,0.0,0.0,0.0,0.0,0.0,0.0,0.0,0.0,0.0,0.0,0.0,0.0,0.0,0.0,0.0,0.0,0.0,0.0,0.0,3.5489,3.5489,3.4741,3.3873,0.0,0.0,0.0,0.0,0.0,0.0,0.0,0.0,0.0,0.0,0.0,0.0,0.0,0.0,0.0,0.0,0.0,0.0,0.0,0.0,0.0,0.0,0.0,0.0,0.0,0.0,0.0,0.0,0.0,0.0,0.0,0.0,0.0,0.0,0.0,0.0,0.0,0.0,0.0,0.0,0.0,0.0,0.0,0.0,0.0,0.0,0.0,0.0,0.0,0.0,0.0,0.0,0.0,0.0,0.0,0.0,0.0,0.0,0.0,0.0,0.0,0.0,0.0,0.0,0.0,0.0,0.0,0.0,0.0,0.0,0.0,0.0,0.0,0.0,0.0,0.0,0.0,0.0,0.0,0.0,0.0,0.0,0.0,0.0,0.0,0.0,0.0,0.0,0.0,0.0,0.0,0.0,0.0,0.0,0.0,0.0,0.0,0.0,0.0,0.0,0.0,0.0,0.0,0.0,0.0,0.0,0.0,0.0,0.0,0.0,3.5489,3.54,3.519,3.4113,3.3095,3.2287,0.0,0.0,0.0,0.0,0.0,0.0,0.0,0.0,0.0,0.0,0.0,0.0,0.0,0.0,0.0,0.0,0.0,0.0,0.0,0.0,0.0,0.0,0.0,0.0,0.0,0.0,0.0,0.0,0.0,0.0,0.0,0.0,0.0,0.0,0.0,0.0,0.0,0.0,0.0,0.0,0.0,0.0,0.0,0.0,0.0,0.0,0.0,0.0,0.0,0.0,0.0,0.0,0.0,0.0,0.0,0.0,0.0,0.0,0.0,0.0,0.0,0.0,0.0,0.0,0.0,0.0,0.0,0.0,0.0,0.0,0.0,0.0,0.0,0.0,0.0,0.0,0.0,0.0,0.0,0.0,0.0,0.0,0.0,0.0,0.0,0.0,0.0,0.0,0.0,0.0,0.0,0.0,0.0,0.0,0.0,0.0,0.0,0.0,0.0,0.0,0.0,0.0,0.0,0.0,0.0,0.0,0.0,0.0,3.5489,3.5489,3.519,3.4532,3.3844,3.2886,0.0,0.0,0.0,0.0,0.0,0.0,0.0,0.0,0.0,0.0,0.0,0.0,0.0,0.0,0.0,0.0,0.0,0.0,0.0,0.0,0.0,0.0,0.0,0.0,0.0,0.0,0.0,0.0,0.0,0.0,0.0,0.0,0.0,0.0,0.0,0.0,0.0,0.0,0.0,0.0,0.0,0.0,0.0,0.0,0.0,0.0,0.0,0.0,0.0,0.0,0.0,0.0,0.0,0.0,0.0,0.0,0.0,0.0,0.0,0.0,0.0,0.0,0.0,0.0,0.0,0.0,0.0,0.0,0.0,0.0,0.0,0.0,0.0,0.0,0.0,0.0,0.0,0.0,0.0,0.0,0.0,0.0,0.0,0.0,0.0,0.0,0.0,0.0,0.0,0.0,0.0,0.0,0.0,0.0,0.0,0.0,0.0,0.0,0.0,0.0,0.0,0.0,0.0,0.0,0.0,0.0,0.0,0.0,0.0,3.4328,3.4422,3.4331,3.4059,3.3367,3.2345,0.0,0.0,0.0,0.0,0.0,0.0,0.0,0.0,0.0,0.0,0.0,0.0,0.0,0.0,0.0,0.0,0.0,0.0,0.0,0.0,0.0,0.0,0.0,0.0,0.0,0.0,0.0,0.0,0.0,0.0,0.0,0.0,0.0,0.0,0.0,0.0,0.0,0.0,0.0,0.0,0.0,0.0,0.0,0.0,0.0,0.0,0.0,0.0,0.0,0.0,0.0,0.0,0.0,0.0,0.0,0.0,0.0,0.0,0.0,0.0,0.0,0.0,0.0,0.0,0.0,0.0,0.0,0.0,0.0,0.0,0.0,0.0,0.0,0.0,0.0,0.0,0.0,0.0,0.0,0.0,0.0,0.0,0.0,0.0,0.0,0.0,0.0,0.0,0.0,0.0,0.0,0.0,0.0,0.0,0.0,0.0,0.0,0.0,0.0,0.0,0.0,0.0,0.0,0.0,0.0,0.0,0.0,0.0,0.0,3.4213,0.0,3.4243,3.394,3.3426,3.2342,0.0,0.0,0.0,0.0,0.0,0.0,0.0,0.0,0.0,0.0,0.0,0.0,0.0,0.0,0.0,0.0,0.0,0.0,0.0,0.0,0.0,0.0,0.0,0.0,0.0,0.0,0.0,0.0,0.0,0.0,0.0,0.0,0.0,0.0,0.0,0.0,0.0,0.0,0.0,0.0,0.0,0.0,0.0,0.0,0.0,0.0,0.0,0.0,0.0,0.0,0.0,0.0,0.0,0.0,0.0,0.0,0.0,0.0,0.0,0.0,0.0,0.0,0.0,0.0,0.0,0.0,0.0,0.0,0.0,0.0,0.0,0.0,0.0,0.0,0.0,0.0,0.0,0.0,0.0,0.0,0.0,0.0,0.0,0.0,0.0,0.0,0.0,0.0,0.0,0.0,0.0,0.0,0.0,0.0,0.0,0.0,0.0,0.0,0.0,0.0,0.0,0.0,0.0,0.0,0.0,0.0,0.0,0.0,3.4182,3.5126,3.5308,3.497,3.4239,3.4059,3.294,0.0,0.0,0.0,0.0,0.0,0.0,0.0,0.0,0.0,0.0,0.0,0.0,0.0,0.0,0.0,0.0,0.0,0.0,0.0,0.0,0.0,0.0,0.0,0.0,0.0,0.0,0.0,0.0,0.0,0.0,0.0,0.0,0.0,0.0,0.0,0.0,0.0,0.0,0.0,0.0,0.0,0.0,0.0,0.0,0.0,0.0,0.0,0.0,0.0,0.0,0.0,0.0,0.0,0.0,0.0,0.0,0.0,0.0,0.0,0.0,0.0,0.0,0.0,0.0,0.0,0.0,0.0,0.0,0.0,0.0,0.0,0.0,0.0,0.0,0.0,0.0,0.0,0.0,0.0,0.0,0.0,0.0,0.0,0.0,0.0,0.0,0.0,0.0,0.0,0.0,0.0,0.0,0.0,0.0,0.0,0.0,0.0,0.0,0.0,0.0,0.0,0.0,0.0,0.0,0.0,0.0,0.0,0.0,0.0,3.4957,3.5279,3.5154,3.4589,3.3983,3.2772,0.0,0.0,0.0,0.0,0.0,0.0,0.0,0.0,0.0,0.0,0.0,0.0,0.0,0.0,0.0,0.0,0.0,0.0,0.0,0.0,0.0,0.0,0.0,0.0,0.0,0.0,0.0,0.0,0.0,0.0,0.0,0.0,0.0,0.0,0.0,0.0,0.0,0.0,0.0,0.0,0.0,0.0,0.0,0.0,0.0,0.0,0.0,0.0,0.0,0.0,0.0,0.0,0.0,0.0,0.0,0.0,0.0,0.0,0.0,0.0,0.0,0.0,0.0,0.0,0.0,0.0,0.0,0.0,0.0,0.0,0.0,0.0,0.0,0.0,0.0,0.0,0.0,0.0,0.0,0.0,0.0,0.0,0.0,0.0,0.0,0.0,0.0,0.0,0.0,0.0,0.0,0.0,0.0,0.0,0.0,0.0,0.0,0.0,0.0,0.0,0.0,0.0,0.0,0.0,0.0,0.0,0.0,0.0,0.0,3.5565,3.5911,3.5855,3.5457,3.4597,3.3388,3.1754,0.0,0.0,0.0,0.0,0.0,0.0,0.0,0.0,0.0,0.0,0.0,0.0,0.0,0.0,0.0,0.0,0.0,0.0,0.0,0.0,0.0,0.0,0.0,0.0,0.0,0.0,0.0,0.0,0.0,0.0,0.0,0.0,0.0,0.0,0.0,0.0,0.0,0.0,0.0,0.0,0.0,0.0,0.0,0.0,0.0,0.0,0.0,0.0,0.0,0.0,0.0,0.0,0.0,0.0,0.0,0.0,0.0,0.0,0.0,0.0,0.0,0.0,0.0,0.0,0.0,0.0,0.0,0.0,0.0,0.0,0.0,0.0,0.0,0.0,0.0,0.0,0.0,0.0,0.0,0.0,0.0,0.0,0.0,0.0,0.0,0.0,0.0,0.0,0.0,0.0,0.0,0.0,0.0,0.0,0.0,0.0,0.0,0.0,0.0,0.0,0.0,0.0,0.0,0.0,0.0,0.0,0.0,0.0,3.6886,3.7118,3.7038,3.6692,3.5742,3.4628,0.0,0.0,0.0,0.0,0.0,0.0,0.0,0.0,0.0,0.0,0.0,0.0,0.0,0.0,0.0,0.0,0.0,0.0,0.0,0.0,0.0,0.0,0.0,0.0,0.0,0.0,0.0,0.0,0.0,0.0,0.0,0.0,0.0,0.0,0.0,0.0,0.0,0.0,0.0,0.0,0.0,0.0,0.0,0.0,0.0,0.0,0.0,0.0,0.0,0.0,0.0,0.0,0.0,0.0,0.0,0.0,0.0,0.0,0.0,0.0,0.0,0.0,0.0,0.0,0.0,0.0,0.0,0.0,0.0,0.0,0.0,0.0,0.0,0.0,0.0,0.0,0.0,0.0,0.0,0.0,0.0,0.0,0.0,0.0,0.0,0.0,0.0,0.0,0.0,0.0,0.0,0.0,0.0,0.0,0.0,0.0,0.0,0.0,0.0,0.0,0.0,0.0,0.0,0.0,0.0,0.0,0.0,0.0,0.0,3.7132,3.7958,3.7936,3.703,3.6413,3.5237,0.0,0.0,0.0,0.0,0.0,0.0,0.0,0.0,0.0,0.0,0.0,0.0,0.0,0.0,0.0,0.0,0.0,0.0,0.0,0.0,0.0,0.0,0.0,0.0,0.0,0.0,0.0,0.0,0.0,0.0,0.0,0.0,0.0,0.0,0.0,0.0,0.0,0.0,0.0,0.0,0.0,0.0,0.0,0.0,0.0,0.0,0.0,0.0,0.0,0.0,0.0,0.0,0.0,0.0,0.0,0.0,0.0,0.0,0.0,0.0,0.0,0.0,0.0,0.0,0.0,0.0,0.0,0.0,0.0,0.0,0.0,0.0,0.0,0.0,0.0,0.0,0.0,0.0,0.0,0.0,0.0,0.0,0.0,0.0,0.0,0.0,0.0,0.0,0.0,0.0,0.0,0.0,0.0,0.0,0.0,0.0,0.0,0.0,0.0,0.0,0.0,0.0,0.0,0.0,0.0,0.0,0.0,0.0,3.6292,3.7584,3.8427,3.8537,3.7893,3.7126,3.5894,0.0,0.0,0.0,0.0,0.0,0.0,0.0,0.0,0.0,0.0,0.0,0.0,0.0,0.0,0.0,0.0,0.0,0.0,0.0,0.0,0.0,0.0,0.0,0.0,0.0,0.0,0.0,0.0,0.0,0.0,0.0,0.0,0.0,0.0,0.0,0.0,0.0,0.0,0.0,0.0,0.0,0.0,0.0,0.0,0.0,0.0,0.0,0.0,0.0,0.0,0.0,0.0,0.0,0.0,0.0,0.0,0.0,0.0,0.0,0.0,0.0,0.0,0.0,0.0,0.0,0.0,0.0,0.0,0.0,0.0,0.0,0.0,0.0,0.0,0.0,0.0,0.0,0.0,0.0,0.0,0.0,0.0,0.0,0.0,0.0,0.0,0.0,0.0,0.0,0.0,0.0,0.0,0.0,0.0,0.0,0.0,0.0,0.0,0.0,0.0,0.0,0.0,0.0,0.0,0.0,0.0,0.0,0.0,3.678,3.8084,3.8567,3.8843,3.8952,3.7838,3.6518,0.0,0.0,0.0,0.0,0.0,0.0,0.0,0.0,0.0,0.0,0.0,0.0,0.0,0.0,0.0,0.0,0.0,0.0,0.0,0.0,0.0,0.0,0.0,0.0,0.0,0.0,0.0,0.0,0.0,0.0,0.0,0.0,0.0,0.0,0.0,0.0,0.0,0.0,0.0,0.0,0.0,0.0,0.0,0.0,0.0,0.0,0.0,0.0,0.0,0.0,0.0,0.0,0.0,0.0,0.0,0.0,0.0,0.0,0.0,0.0,0.0,0.0,0.0,0.0,0.0,0.0,0.0,0.0,0.0,0.0,0.0,0.0,0.0,0.0,0.0,0.0,0.0,0.0,0.0,0.0,0.0,0.0,0.0,0.0,0.0,0.0,0.0,0.0,0.0,0.0,0.0,0.0,0.0,0.0,0.0,0.0,0.0,0.0,0.0,0.0,0.0,0.0,0.0,0.0,0.0,0.0,0.0,0.0,3.6573,3.8084,3.8455,3.8766,3.8985,3.8237,3.7054,0.0,0.0,0.0,0.0,0.0,0.0,0.0,0.0,0.0,0.0,0.0,0.0,0.0,0.0,0.0,0.0,0.0,0.0,0.0,0.0,0.0,0.0,0.0,0.0,0.0,0.0,0.0,0.0,0.0,0.0,0.0,0.0,0.0,0.0,0.0,0.0,0.0,0.0,0.0,0.0,0.0,0.0,0.0,0.0,0.0,0.0,0.0,0.0,3.5489,0.0,0.0,0.0,0.0,0.0,0.0,0.0,0.0,0.0,0.0,0.0,0.0,0.0,0.0,0.0,0.0,0.0,0.0,0.0,0.0,0.0,0.0,0.0,0.0,0.0,0.0,0.0,0.0,0.0,0.0,0.0,0.0,0.0,0.0,0.0,0.0,0.0,0.0,0.0,0.0,0.0,0.0,0.0,0.0,0.0,0.0,0.0,0.0,0.0,0.0,0.0,0.0,0.0,0.0,0.0,0.0,0.0,0.0,0.0,3.6742,3.7969,3.8399,3.8788,3.9094,3.8623,3.744,0.0,0.0,0.0,0.0,0.0,0.0,0.0,0.0,0.0,0.0,0.0,0.0,0.0,0.0,0.0,0.0,0.0,0.0,0.0,0.0,0.0,0.0,0.0,0.0,0.0,0.0,0.0,0.0,0.0,0.0,0.0,0.0,0.0,0.0,0.0,0.0,0.0,0.0,0.0,0.0,0.0,0.0,0.0,0.0,0.0,0.0,0.0,0.0,0.0,0.0,0.0,0.0,0.0,0.0,0.0,0.0,0.0,0.0,0.0,0.0,0.0,0.0,0.0,0.0,0.0,0.0,0.0,0.0,0.0,0.0,0.0,0.0,0.0,0.0,0.0,0.0,0.0,0.0,0.0,0.0,0.0,0.0,0.0,0.0,0.0,0.0,0.0,0.0,0.0,0.0,0.0,0.0,0.0,0.0,0.0,0.0,0.0,0.0,0.0,0.0,0.0,0.0,0.0,0.0,0.0,0.0,0.0,3.5768,3.7058,3.7886,3.8343,3.8821,3.9309,3.8931,3.7806,3.5783,0.0,0.0,0.0,0.0,0.0,0.0,0.0,0.0,0.0,0.0,0.0,0.0,0.0,0.0,0.0,0.0,0.0,0.0,0.0,0.0,0.0,0.0,0.0,0.0,0.0,0.0,0.0,0.0,0.0,0.0,0.0,0.0,0.0,0.0,0.0,0.0,0.0,0.0,3.5639,3.5729,0.0,0.0,0.0,0.0,0.0,0.0,0.0,0.0,3.5489,0.0,0.0,0.0,0.0,0.0,0.0,0.0,0.0,0.0,0.0,0.0,0.0,0.0,0.0,0.0,0.0,0.0,0.0,0.0,0.0,0.0,0.0,0.0,0.0,0.0,0.0,0.0,0.0,0.0,0.0,0.0,0.0,0.0,0.0,0.0,0.0,0.0,0.0,0.0,0.0,0.0,0.0,0.0,0.0,0.0,0.0,0.0,0.0,0.0,0.0,0.0,0.0,0.0,0.0,0.0,0.0,3.4,3.5799,3.7058,3.7886,3.8343,3.8876,3.9448,3.9255,3.8241,3.6303,0.0,0.0,0.0,0.0,0.0,0.0,0.0,0.0,0.0,0.0,0.0,0.0,0.0,0.0,0.0,0.0,0.0,0.0,0.0,0.0,0.0,0.0,0.0,0.0,0.0,0.0,0.0,0.0,0.0,0.0,0.0,0.0,0.0,0.0,0.0,0.0,0.0,0.0,0.0,3.6776,3.6896,0.0,0.0,0.0,0.0,0.0,0.0,0.0,0.0,3.5489,0.0,0.0,0.0,0.0,0.0,0.0,0.0,0.0,0.0,0.0,0.0,0.0,0.0,0.0,0.0,0.0,0.0,0.0,0.0,0.0,0.0,0.0,0.0,0.0,0.0,0.0,0.0,0.0,0.0,0.0,0.0,0.0,0.0,0.0,0.0,0.0,0.0,0.0,0.0,0.0,0.0,0.0,0.0,0.0,0.0,0.0,0.0,0.0,0.0,0.0,0.0,0.0,0.0,0.0,0.0,3.43,3.595,3.7238,3.8001,3.8455,3.8985,3.9468,3.903,3.8038,0.0,0.0,0.0,0.0,0.0,0.0,0.0,0.0,0.0,0.0,0.0,0.0,0.0,0.0,0.0,0.0,0.0,0.0,0.0,0.0,0.0,0.0,0.0,0.0,0.0,0.0,0.0,0.0,0.0,0.0,0.0,0.0,0.0,0.0,0.0,0.0,0.0,0.0,0.0,0.0,3.6746,3.6956,3.6956,0.0,0.0,0.0,0.0,0.0,0.0,3.6477,3.6387,0.0,0.0,0.0,0.0,0.0,0.0,0.0,0.0,0.0,0.0,0.0,0.0,0.0,0.0,0.0,0.0,0.0,0.0,0.0,0.0,0.0,0.0,0.0,0.0,0.0,0.0,0.0,0.0,0.0,0.0,0.0,0.0,0.0,0.0,0.0,0.0,0.0,0.0,0.0,0.0,0.0,0.0,0.0,0.0,0.0,0.0,0.0,0.0,0.0,0.0,0.0,0.0,0.0,0.0,0.0,3.4623,3.625,3.7476,3.823,3.8678,3.9094,3.952,3.8768,3.7831,0.0,0.0,0.0,0.0,0.0,0.0,0.0,0.0,0.0,0.0,0.0,0.0,0.0,0.0,0.0,0.0,0.0,0.0,0.0,0.0,0.0,0.0,0.0,0.0,0.0,0.0,0.0,0.0,0.0,0.0,0.0,0.0,0.0,0.0,0.0,0.0,0.0,0.0,0.0,0.0,0.0,3.7045,3.7524,3.7165,0.0,0.0,0.0,0.0,3.7276,3.7336,0.0,0.0,0.0,0.0,0.0,0.0,0.0,0.0,0.0,0.0,0.0,0.0,0.0,0.0,0.0,0.0,0.0,0.0,0.0,0.0,0.0,0.0,0.0,0.0,0.0,0.0,0.0,0.0,0.0,0.0,0.0,0.0,0.0,0.0,0.0,0.0,0.0,0.0,0.0,0.0,0.0,0.0,0.0,0.0,0.0,0.0,0.0,0.0,0.0,0.0,0.0,0.0,0.0,0.0,0.0,0.0,3.4909,3.6663,3.7976,3.8678,3.9007,3.9382,3.9833,3.916,3.8187,0.0,0.0,0.0,0.0,0.0,0.0,0.0,0.0,0.0,0.0,0.0,0.0,0.0,0.0,0.0,0.0,0.0,0.0,0.0,0.0,0.0,0.0,0.0,0.0,0.0,0.0,0.0,0.0,0.0,0.0,0.0,0.0,0.0,0.0,0.0,0.0,0.0,0.0,0.0,0.0,0.0,3.8182,3.8272,3.8212,3.8003,0.0,0.0,3.7246,3.7129,3.7159,0.0,0.0,0.0,0.0,0.0,0.0,0.0,0.0,0.0,0.0,0.0,0.0,0.0,0.0,0.0,0.0,0.0,0.0,0.0,0.0,0.0,0.0,0.0,0.0,0.0,0.0,0.0,0.0,0.0,0.0,0.0,0.0,0.0,0.0,0.0,0.0,0.0,0.0,0.0,0.0,0.0,0.0,0.0,0.0,0.0,0.0,0.0,0.0,0.0,0.0,0.0,0.0,0.0,0.0,0.0,3.4763,3.5307,3.7125,3.8343,3.8898,3.9276,3.9625,3.9884,3.8773,3.7885,0.0,0.0,0.0,0.0,0.0,0.0,0.0,0.0,0.0,0.0,0.0,0.0,0.0,0.0,0.0,0.0,0.0,0.0,0.0,0.0,0.0,0.0,0.0,0.0,0.0,0.0,0.0,0.0,0.0,0.0,0.0,0.0,0.0,0.0,0.0,0.0,0.0,0.0,0.0,0.0,0.0,0.0,3.8871,3.8661,0.0,0.0,0.0,3.7912,3.8198,0.0,0.0,0.0,0.0,0.0,0.0,0.0,0.0,0.0,0.0,0.0,0.0,0.0,0.0,0.0,0.0,0.0,0.0,0.0,0.0,0.0,0.0,0.0,0.0,0.0,0.0,0.0,0.0,0.0,0.0,0.0,0.0,0.0,0.0,0.0,0.0,0.0,0.0,0.0,0.0,0.0,0.0,0.0,0.0,0.0,0.0,0.0,0.0,0.0,0.0,0.0,0.0,0.0,0.0,0.0,0.0,0.0,3.5806,3.7487,3.8678,3.9169,3.9573,3.9833,3.9901,3.852,0.0,0.0,0.0,0.0,0.0,0.0,0.0,0.0,0.0,0.0,0.0,0.0,0.0,0.0,0.0,0.0,0.0,0.0,0.0,0.0,0.0,0.0,0.0,0.0,0.0,0.0,0.0,2.9056,0.0,0.0,0.0,0.0,0.0,0.0,0.0,0.0,0.0,0.0,0.0,0.0,0.0,0.0,3.7883,3.923,3.899,3.8901,0.0,0.0,3.872,3.9194,3.8913,3.8177,0.0,0.0,0.0,0.0,0.0,0.0,0.0,0.0,0.0,0.0,0.0,0.0,0.0,0.0,0.0,0.0,0.0,0.0,0.0,0.0,0.0,0.0,0.0,0.0,0.0,0.0,0.0,0.0,0.0,0.0,0.0,0.0,0.0,0.0,0.0,0.0,0.0,0.0,0.0,0.0,0.0,0.0,0.0,0.0,0.0,0.0,0.0,0.0,0.0,0.0,0.0,0.0,0.0,0.0,3.5387,3.6238,3.7905,3.9148,3.9815,3.9833,3.9935,4.0054,3.8667,3.7793,0.0,0.0,0.0,0.0,0.0,0.0,0.0,0.0,0.0,0.0,0.0,0.0,0.0,0.0,0.0,0.0,0.0,0.0,0.0,0.0,0.0,0.0,0.0,0.0,0.0,0.0,0.0,0.0,0.0,0.0,0.0,0.0,0.0,0.0,0.0,0.0,0.0,0.0,0.0,0.0,0.0,3.7883,3.923,3.9379,3.9589,0.0,4.0159,3.9936,3.9786,3.9437,3.862,3.6974,0.0,0.0,0.0,0.0,0.0,0.0,0.0,0.0,0.0,0.0,0.0,0.0,0.0,0.0,0.0,0.0,0.0,0.0,0.0,0.0,0.0,0.0,0.0,0.0,0.0,0.0,0.0,0.0,0.0,0.0,0.0,0.0,0.0,0.0,0.0,0.0,0.0,0.0,0.0,0.0,0.0,0.0,0.0,0.0,0.0,0.0,0.0,0.0,0.0,0.0,0.0,0.0,0.0,3.5719,3.645,3.8282,3.9468,3.9918,3.9986,4.0037,4.0087,3.8667,3.7841,0.0,0.0,0.0,0.0,0.0,0.0,0.0,0.0,0.0,0.0,0.0,0.0,0.0,0.0,0.0,0.0,0.0,0.0,0.0,0.0,0.0,0.0,0.0,0.0,0.0,0.0,0.0,0.0,3.0612,3.0672,3.1091,0.0,0.0,0.0,0.0,0.0,0.0,0.0,0.0,0.0,0.0,3.7883,3.923,3.9439,0.0,0.0,4.0248,4.0025,3.9799,3.9343,3.8448,3.6807,3.5958,0.0,0.0,0.0,0.0,0.0,0.0,0.0,0.0,0.0,0.0,0.0,0.0,0.0,0.0,0.0,0.0,0.0,0.0,0.0,0.0,0.0,0.0,0.0,0.0,0.0,0.0,0.0,0.0,0.0,0.0,0.0,0.0,0.0,0.0,0.0,0.0,0.0,0.0,0.0,0.0,0.0,0.0,0.0,0.0,0.0,0.0,0.0,0.0,0.0,0.0,0.0,0.0,3.5937,3.6659,3.8526,3.9625,3.9935,4.0037,4.0087,4.0054,3.8667,3.7841,0.0,0.0,0.0,0.0,0.0,0.0,0.0,0.0,0.0,0.0,0.0,0.0,0.0,0.0,0.0,0.0,0.0,0.0,0.0,0.0,0.0,0.0,0.0,0.0,0.0,0.0,0.0,0.0,3.1091,3.1001,3.148,0.0,0.0,0.0,0.0,0.0,0.0,0.0,0.0,0.0,0.0,3.7913,3.923,3.9439,3.9738,4.0576,4.0547,4.0321,4.017,3.9634,3.8658,3.6864,0.0,0.0,0.0,0.0,0.0,0.0,0.0,0.0,0.0,0.0,0.0,0.0,0.0,0.0,0.0,0.0,0.0,0.0,0.0,0.0,0.0,0.0,0.0,0.0,0.0,0.0,0.0,3.5622,0.0,0.0,3.5622,0.0,0.0,0.0,0.0,0.0,0.0,0.0,0.0,0.0,0.0,0.0,0.0,0.0,0.0,0.0,0.0,0.0,0.0,0.0,0.0,0.0,0.0,3.6045,3.6898,3.8631,3.9677,4.0087,4.0087,4.0087,4.0054,3.8667,3.7922,3.7889,0.0,0.0,0.0,0.0,0.0,0.0,0.0,0.0,0.0,0.0,0.0,0.0,0.0,0.0,0.0,0.0,0.0,0.0,0.0,0.0,0.0,0.0,0.0,0.0,0.0,0.0,3.1482,3.1452,3.1452,0.0,0.0,0.0,0.0,0.0,0.0,0.0,0.0,0.0,3.7135,3.7404,3.7913,3.923,3.9439,3.9888,4.1145,4.1203,4.1003,4.082,4.0432,3.9448,0.0,0.0,0.0,0.0,0.0,0.0,0.0,0.0,0.0,0.0,0.0,0.0,0.0,0.0,0.0,0.0,0.0,0.0,0.0,0.0,0.0,0.0,0.0,0.0,0.0,0.0,0.0,3.5622,3.5622,0.0,0.0,0.0,0.0,0.0,0.0,0.0,0.0,0.0,0.0,0.0,3.9729,3.9415,0.0,0.0,0.0,0.0,0.0,0.0,0.0,0.0,0.0,0.0,0.0,0.0,3.612,3.6949,3.8735,3.9781,4.0087,4.0087,4.0087,4.0087,3.914,3.8063,3.6908,0.0,0.0,0.0,0.0,0.0,0.0,0.0,0.0,0.0,0.0,0.0,0.0,0.0,0.0,0.0,0.0,0.0,0.0,0.0,0.0,0.0,0.0,0.0,0.0,0.0,3.1482,0.0,0.0,0.0,0.0,0.0,0.0,0.0,0.0,0.0,0.0,0.0,3.522,3.7165,3.7404,3.7883,3.923,3.9798,4.0367,0.0,0.0,0.0,0.0,0.0,0.0,0.0,0.0,0.0,0.0,0.0,0.0,0.0,0.0,3.7126,3.7494,3.6688,3.5742,3.5165,0.0,0.0,0.0,0.0,0.0,0.0,0.0,0.0,0.0,0.0,0.0,0.0,0.0,0.0,3.6039,3.6017,3.5994,0.0,0.0,0.0,0.0,0.0,0.0,0.0,0.0,3.8621,3.911,3.9573,3.9061,3.8567,3.7994,3.6979,3.6121,0.0,0.0,0.0,0.0,0.0,0.0,0.0,0.0,3.6303,3.7228,3.8887,3.9833,4.0087,4.0087,4.0087,4.0054,3.9377,3.8299,3.6846,3.5876,3.5019,0.0,0.0,0.0,0.0,0.0,0.0,0.0,0.0,0.0,0.0,0.0,0.0,0.0,0.0,0.0,0.0,0.0,0.0,0.0,0.0,0.0,0.0,0.0,3.1869,0.0,0.0,0.0,0.0,0.0,0.0,0.0,0.0,0.0,3.4472,3.4891,3.5729,3.7225,3.7614,3.8153,3.926,0.0,0.0,0.0,0.0,0.0,0.0,0.0,4.0735,3.9406,3.8505,3.7763,3.7227,3.7326,3.7402,3.7403,0.0,0.0,3.786,3.7016,3.6169,3.5645,3.4936,3.4199,3.3692,3.3436,3.3179,0.0,0.0,0.0,0.0,3.6538,0.0,0.0,0.0,3.6502,3.6797,0.0,3.6831,0.0,0.0,0.0,0.0,3.6852,3.6874,0.0,0.0,3.889,3.9092,3.9415,3.8843,3.823,3.7531,3.646,3.5701,3.5186,3.4164,0.0,0.0,0.0,0.0,0.0,0.0,3.6529,3.7854,3.9068,3.9833,4.0087,4.0087,4.0087,4.0104,3.9377,3.8569,3.7568,3.7036,3.6195,3.4867,3.4132,0.0,0.0,0.0,0.0,0.0,0.0,0.0,0.0,0.0,0.0,0.0,0.0,0.0,0.0,0.0,0.0,0.0,0.0,0.0,0.0,3.2557,0.0,0.0,0.0,0.0,0.0,0.0,0.0,0.0,0.0,0.0,3.4592,3.5669,3.6716,3.7375,0.0,0.0,0.0,0.0,4.0666,4.1324,4.1983,4.2402,4.2198,4.1774,4.0982,3.952,0.0,0.0,3.8366,3.8344,3.8481,3.8943,3.8988,3.8558,3.7087,3.6717,3.6402,3.6061,3.5734,3.543,3.5161,3.4931,3.4726,3.711,0.0,0.0,0.0,0.0,3.7084,3.7095,3.7104,3.7435,3.7577,3.7614,3.7611,0.0,0.0,0.0,0.0,0.0,0.0,3.8599,3.9005,3.9295,3.932,3.9148,3.8511,3.7854,3.7055,3.6568,3.5799,3.4879,3.4546,3.397,3.3215,0.0,0.0,0.0,0.0,3.6662,3.7633,3.8891,3.9677,3.9935,4.0037,4.0087,4.0087,3.9377,3.8805,3.8305,3.7232,3.632,3.554,3.4679,0.0,0.0,0.0,0.0,0.0,0.0,0.0,0.0,0.0,0.0,0.0,0.0,0.0,0.0,0.0,0.0,0.0,0.0,0.0,3.3155,3.3215,3.3215,0.0,0.0,0.0,0.0,0.0,0.0,0.0,0.0,0.0,3.5908,3.6237,3.6866,0.0,0.0,3.8811,3.9948,4.0666,4.1324,4.1983,4.2641,0.0,4.2981,4.2503,4.1942,4.1424,4.022,3.9228,3.8781,3.8736,3.8692,3.8386,3.8639,3.8637,3.7891,3.768,3.7479,3.6749,3.6743,3.6836,3.6647,3.6276,3.5881,3.7436,3.7048,3.6918,3.7,3.7312,3.7568,3.7686,3.773,3.8145,3.8323,3.8363,3.8261,3.8265,3.8265,3.7913,0.0,0.0,0.0,3.9091,3.9445,3.9631,3.9468,3.8985,3.8343,3.7562,3.6815,3.6476,3.5824,3.4988,3.4988,3.4808,3.4388,0.0,3.4151,3.4755,3.5748,3.6788,3.7806,3.883,3.9573,3.9918,4.0037,4.0087,4.0087,3.9648,3.9311,3.9041,3.811,3.7187,3.6355,3.5514,3.4565,0.0,0.0,0.0,0.0,0.0,0.0,0.0,0.0,0.0,0.0,0.0,3.1809,3.1511,0.0,0.0,0.0,3.2766,3.3455,3.3844,3.3873,0.0,0.0,0.0,0.0,0.0,0.0,0.0,3.522,3.5968,3.6686,3.7165,3.7225,3.7524,3.8272,3.8631,3.917,4.0247,0.0,4.1624,4.2282,4.291,4.3329,4.325,4.2769,4.2353,4.2075,4.1094,4.0184,3.9736,3.9473,3.9247,3.8818,3.8969,3.9019,3.8442,3.8637,3.8503,3.7475,3.7455,3.7682,3.7513,3.7236,3.696,3.7828,3.7354,3.7125,3.7284,3.7752,3.8018,3.8018,3.7932,3.8704,3.9103,3.9112,3.894,3.8891,3.8802,3.8003,0.0,3.8858,3.8908,3.9295,4.0087,3.9833,3.9468,3.8952,3.8286,3.7476,3.6723,3.6226,3.5846,3.5554,3.5489,3.5489,3.5459,3.4388,3.4303,3.5248,3.5882,3.6901,3.8197,3.881,3.9382,3.9918,4.0037,4.0087,4.0087,4.0087,3.9986,3.9729,3.9309,3.8439,3.7238,3.6469,3.5512,3.439,0.0,0.0,0.0,0.0,0.0,0.0,0.0,0.0,0.0,0.0,0.0,0.0,0.0,0.0,0.0,3.3754,0.0,3.4532,3.4562,0.0,0.0,0.0,3.3903,3.4502,3.4562,3.507,3.6327,0.0,0.0,3.8242,3.8422,3.8482,3.8452,3.902,3.9679,4.0367,4.0995,4.1624,4.2372,4.294,4.3329,4.325,4.2858,4.2276,4.1792,4.1423,4.1126,4.0811,4.0414,4.0058,3.9725,3.9697,3.9546,3.9019,3.9347,3.9295,3.8216,3.8065,3.8065,3.8065,3.799,3.7764,3.777,3.7238,3.7081,3.7313,3.7858,3.8307,3.8731,3.9105,3.9496,3.9767,3.9799,3.9665,3.9528,3.9301,3.912,3.9224,3.9495,3.9597,3.9817,4.0054,3.9833,3.9468,3.8952,3.8343,3.7621,3.6845,3.6383,3.5973,3.5653,3.5554,3.5489,3.5489,3.516,3.5262,3.5574,3.6168,3.6781,3.7594,3.8343,3.9115,3.9918,4.0037,4.0087,4.0087,4.0087,4.0037,3.9833,3.9382,3.8799,3.8028,3.7282,3.6406,3.5276,3.4729,0.0,0.0,0.0,0.0,0.0,0.0,0.0,0.0,0.0,3.3185,3.3036,0.0,3.3095,0.0,3.3993,3.4681,3.522,3.525,0.0,0.0,3.513,3.51,3.525,3.525,3.5579,3.6387,3.6896,3.7494,3.8302,3.8841,3.917,3.917,3.929,3.9828,4.0935,4.1265,4.1803,4.2851,4.321,4.3329,4.328,4.3048,4.2593,4.1959,4.1801,4.1528,4.0913,4.0611,4.0287,4.0083,3.98,3.9622,3.9471,3.9295,3.8994,3.8718,3.8668,3.8668,3.8668,3.8316,3.7965,3.7943,3.7389,3.7121,3.727,3.7711,3.8173,3.8733,3.9309,3.9677,3.9901,4.002,3.9811,3.9548,3.9288,3.9202,3.9309,3.952,3.9625,3.9833,3.9986,3.9781,3.9435,3.9061,3.8455,3.7679,3.7058,3.6445,3.6006,3.5688,3.5554,3.5489,3.5489,3.5489,3.5554,3.5653,3.61,3.6723,3.7298,3.8311,3.9222,3.9884,4.0037,4.0087,4.0087,3.9749,3.9699,3.9884,3.9154,3.8751,3.859,3.7943,3.714,3.6286,3.5707,3.5271,0.0,0.0,0.0,0.0,0.0,0.0,0.0,0.0,0.0,0.0,0.0,3.3604,3.3903,3.4532,3.51,3.5459,3.5489,3.5489,3.5489,3.5489,3.5489,3.5489,3.5759,3.6178,3.6836,3.7464,3.8093,3.8751,3.917,3.9439,3.9439,3.9439,3.9888,4.1085,4.1384,4.1833,4.309,4.3329,4.325,4.317,4.3219,4.2992,4.2367,4.2195,4.1824,4.1004,4.05,4.002,3.9648,3.9347,3.9045,3.8919,3.8718,3.8417,3.8191,3.8115,3.8216,3.8442,3.8216,3.7965,3.8383,3.7716,3.7301,3.721,3.7476,3.7886,3.8399,3.9007,3.9468,3.9714,3.9885,3.9628,3.9303,3.8985,3.8876,3.8985,3.9255,3.9448,3.9625,3.9918,3.9781,3.954,3.9189,3.8511,3.7886,3.7238,3.6569,3.607,3.5752,3.5619,3.5489,3.5489,3.5489,3.5489,3.5489,3.591,3.6507,3.7238,3.8479,3.9382,3.9866,3.9986,4.0054,3.9918,3.9343,3.926,3.9716,3.8874,3.8565,3.8974,3.8399,3.777,3.7298,3.6631,3.6133,0.0,3.5589,0.0,0.0,0.0,0.0,0.0,0.0,0.0,0.0,3.3754,3.3993,3.4562,3.516,3.5489,3.5489,3.5489,3.5489,3.5489,3.5489,3.5489,3.5519,3.6088,3.6716,3.7276,3.7903,3.859,3.9218,3.9337,3.9439,3.9439,3.9439,3.9858,4.0965,4.1324,4.1803,4.303,4.3299,4.325,4.312,4.3294,4.3319,4.2707,4.2479,4.2105,4.1223,4.0562,3.9886,3.9143,3.8804,3.8485,3.8114,3.799,3.7739,3.7362,3.7211,3.7287,3.7764,3.7889,3.7739,3.9145,3.8033,3.7685,3.7599,3.7626,3.7828,3.8286,3.8843,3.9342,3.9625,3.9696,3.9548,3.928,3.8843,3.8931,3.904,3.9061,3.9468,3.9729,3.9884,3.9884,3.9677,3.9415,3.8931,3.8286,3.7567,3.6907,3.6414,3.591,3.5619,3.5489,3.5489,3.5489,3.5489,3.5489,0.0,0.0,0.0,3.8455,3.9094,3.9554,3.9815,3.9716,3.9208,3.9073,0.0,3.9125,3.8874,3.8856,3.9102,3.8733,0.0,0.0,0.0,0.0,0.0,0.0,0.0,0.0,0.0,0.0,0.0,3.537,3.528,3.516,3.513,3.519,3.531,3.5429,3.5489,3.5489,3.5489,3.5489,3.5489,3.5489,3.5489,3.5519,3.5955,3.6514,3.707,3.7723,3.8448,3.9073,3.9265,3.9439,3.9439,3.9439,3.9738,4.0457,4.1025,4.1654,4.2402,4.297,4.322,4.325,4.3209,4.3086,4.2708,4.2647,4.2223,4.1518,4.1096,4.0562,3.9807,3.9188,3.8605,3.8285,3.7859,3.7312,3.7186,3.6835,3.6684,3.7211,3.7337,3.7312,3.9929,3.9056,3.8391,3.8091,0.0,3.8059,3.8399,3.8898,3.9309,3.9606,3.9781,3.9601,3.9355,3.904,3.8952,3.8985,3.9148,3.9468,3.9677,3.9884,3.9884,3.9781,3.9573,3.9007,3.8488,3.7918,3.7178,3.6569,3.61,3.5782,3.5554,3.5489,3.5489,3.5489,3.5489,3.5782,3.6507,3.7567,3.823,3.8843,3.9501,3.9729,3.9767,3.9546,3.9174,0.0,0.0,0.0,0.0,0.0,0.0,0.0,0.0,3.7298,0.0,3.6196,3.5879,3.5623,3.5489,3.5489,3.5489,3.5489,3.5489,3.5489,3.5489,3.5489,3.5489,3.5489,3.5489,3.5489,3.5489,3.5489,3.5489,3.5489,3.5489,3.5489,3.5579,3.6157,3.6704,3.7089,3.7949,3.8763,3.906,3.9265,3.9439,3.9439,3.9439,3.9529,3.9888,4.0487,4.1205,4.2192,4.2611,4.297,4.3269,4.325,4.3061,4.2879,4.2708,4.2386,4.1739,4.1215,4.0549,3.9731,3.9017,3.8359,3.7859,3.7343,3.6975,3.6855,3.6558,3.6433,3.6734,3.6784,3.6759,4.0816,4.0084,3.927,3.8753,3.8544,3.8455,3.8733,3.9202,3.9415,0.0,0.0,3.9673,3.9515,3.9342,3.9094,3.9094,3.9342,3.9501,3.9711,3.9884,3.9969,3.9884,3.9729,3.9202,3.8678,3.8173,3.7385,3.6784,3.6289,3.5943,3.5718,3.5554,3.5554,3.5554,3.5554,3.5973,3.6569,3.7358,3.8001,3.8678,3.9415,3.9729,3.9868,3.9884,3.9309,3.9276,3.9851,3.921,3.9143,3.985,3.9362,3.8843,3.8399,3.7711,3.6997,3.6321,3.5943,3.5653,3.5489,3.5489,3.5489,3.5489,3.5489,3.5489,3.5489,3.5489,3.5489,3.5489,3.5489,3.5489,3.5489,3.5489,3.5489,3.5489,3.5489,3.5489,3.5579,3.6305,3.6912,3.7178,3.8169,3.8971,3.909,3.9265,3.9439,3.9439,3.9439,3.9439,3.9499,4.0038,4.0846,4.1893,4.2162,4.2402,4.297,4.312,4.3101,4.3061,4.285,4.2526,4.1951,4.1283,4.0516,3.9727,3.8845,3.8266,3.7505,3.7066,3.6709,3.6452,3.6452,3.6358,3.6358,3.6383,3.6383,4.1954,4.0479,4.0216,3.9676,3.9082,3.9115,3.9329,3.9815,3.9781,3.9866,3.9884,3.9866,3.9711,3.9501,3.952,3.952,3.9501,3.9763,3.9866,3.9884,4.0037,3.9986,3.9866,3.952,3.9094,3.8511,3.7796,3.7238,3.6662,3.6258,3.5943,3.5688,3.5688,3.5688,3.5688,3.6006,3.6507,3.7178,3.7828,3.8479,3.9222,3.954,3.953,3.9174,3.9073,3.9039,3.914,3.9039,3.9244,3.985,3.9573,3.9202,3.8733,3.8033,3.7329,3.6662,3.6226,3.5782,3.5489,3.5489,3.5489,3.5489,3.5489,3.5489,3.5489,3.5489,3.5489,3.5489,3.5489,3.5489,3.5489,3.5489,3.5489,3.5489,3.5489,3.5489,3.5519,3.6015,3.6565,3.703,3.7712,3.8525,3.9,3.9265,3.9439,3.9439,3.9439,3.9439,3.9529,3.9978,4.0666,4.1324,4.1504,4.1803,4.2342,4.2491,4.2761,4.319,4.3061,4.285,4.2363,4.1868,4.1254,4.0315,3.9618,3.8935,3.8213,3.7479,3.7015,3.6734,3.6546,3.6452,3.6452,3.6358,3.6358,4.2567,4.1439,4.0863,4.0207,3.9487,3.954,3.9729,3.9918,3.9986,3.9986,3.9986,3.9935,3.9833,3.9677,3.9677,3.9677,3.9711,3.9866,3.9935,3.9986,4.0087,4.0037,3.9918,3.9659,3.9255,3.8788,3.8173,3.7562,3.7118,3.6723,3.6383,3.6006,3.5816,3.5752,3.5879,3.607,3.6569,3.7298,3.7828,3.8455,3.9189,3.954,3.9664,3.958,3.958,3.958,3.958,3.958,3.9749,3.9986,3.9729,3.9415,3.8898,3.8286,3.7535,3.6785,3.6352,3.591,3.5489,3.5489,3.5489,3.5489,3.5489,3.5489,3.5489,3.5489,3.5489,3.5489,3.5489,3.5489,3.5489,3.5489,3.5489,3.5489,3.5489,3.5489,3.5579,3.5926,3.6446,3.7001,3.7653,3.8377,3.903,3.9265,3.9439,3.9439,3.9439,3.9439,3.9439,3.9679,4.0098,4.0696,4.0846,4.1115,4.1713,4.2162,4.2462,4.2791,4.3011,4.3031,4.2769,4.2415,4.1922,4.117,4.0488,3.9733,3.8935,3.8213,3.7572,3.7015,3.6734,3.6546,3.6452,3.6358,3.6358,4.3149,4.2328,4.1586,4.0692,3.9781,3.9884,3.9935,3.9935,4.0037,4.0087,4.0087,3.9986,3.9935,3.9935,3.9833,3.9833,3.9935,3.9935,3.9986,4.0087,4.0087,4.0037,3.9935,3.9677,3.9415,3.9148,3.8567,3.8084,3.7621,3.7326,3.6845,3.6383,3.607,3.5943,3.6163,3.6258,3.6723,3.7476,3.8001,3.8567,3.9222,3.9573,3.9884,4.0087,4.0087,4.0087,4.0087,4.0087,4.0087,4.0087,3.9833,3.952,3.9061,3.8455,3.7711,3.6876,3.6445,3.5973,3.5554,3.5489,3.5489,3.5489,3.5489,3.5489,3.5489,3.5489,3.5489,3.5489,3.5489,3.5489,3.5489,3.5489,3.5489,3.5489,3.5489,3.5489,3.5549,3.5836,3.6365,3.701,3.7604,3.827,3.8954,3.9265,3.9439,3.9439,3.9439,3.9439,3.9439,3.9439,3.9649,3.9978,4.0187,4.0427,4.1055,4.1534,4.1953,4.2329,4.2761,4.2932,4.2892,4.285,4.2526,4.1951,4.1367,4.0602,3.9821,3.9024,3.8213,3.7572,3.7201,3.6828,3.6546,3.6452,3.6358,4.4012,4.3213,4.2436,4.1373,4.0104,4.0121,4.0087,4.0087,4.0087,4.0087,4.0087,4.0087,4.0087,4.0087,4.0087,4.0087,4.0087,4.0087,4.0087,4.0087,4.0087,4.0087,4.0087,3.9969,3.9781,3.9573,3.9148,3.8733,3.8455,3.8001,3.7445,3.6845,3.66,3.6476,3.6662,3.6815,3.7147,3.7796,3.8455,3.8985,3.9448,3.9729,3.9935,4.0087,4.0087,4.0087,4.0087,4.0087,4.0087,4.0087,3.9833,3.954,3.9169,3.8479,3.7828,3.7178,3.6569,3.5973,3.5554,3.5489,3.5489,3.5489,3.5489,3.5489,3.5489,3.5489,3.5489,3.5489,3.5489,3.5489,3.5489,3.5489,3.5489,3.5489,3.5489,3.5489,3.5519,3.5549,3.5992,3.7216,3.7455,3.7903,3.9068,3.9337,3.9409,3.9439,3.9439,3.9439,3.9439,3.9439,3.9439,3.9529,3.9529,3.9828,4.0367,4.0516,4.1115,4.2043,4.2402,4.2623,4.2793,4.2951,4.285,4.2444,4.1951,4.1367,4.0688,3.9821,3.9024,3.8277,3.7756,3.7294,3.6803,3.6521,3.6452,4.4113,4.3403,4.3064,4.2117,4.0832,4.0764,4.0493,4.0087,4.0087,4.0087,4.0087,4.0087,4.0087,4.0087,4.0087,4.0087,4.0087,4.0087,4.0087,4.0087,4.0087,4.0087,4.0087,3.9935,3.9833,3.9781,3.9468,3.9202,3.8898,3.8399,3.7943,3.7504,3.7118,3.6937,3.7029,3.7058,3.7385,3.8001,3.8623,3.9148,3.9573,3.9781,3.9935,4.0087,4.0087,4.0087,4.0087,4.0087,4.0087,4.0087,3.9935,3.9625,3.9189,3.8678,3.8059,3.7238,3.6383,3.5782,3.5489,3.5489,3.5489,3.5489,3.5489,3.5489,3.5489,3.5489,3.5489,3.5489,3.5489,3.5489,3.5489,3.5489,3.5489,3.5489,3.5489,3.5489,3.5489,3.5489,3.5998,3.7165,3.7404,3.7913,3.908,3.9439,3.9439,3.9439,3.9439,3.9439,3.9439,3.9439,3.9439,3.9439,3.9439,3.9529,3.9828,4.0187,4.0636,4.1145,4.1893,4.2491,4.2623,4.2991,4.309,4.2769,4.2444,4.2034,4.1367,4.0745,4.0055,3.9237,3.8187,3.7546,3.7201,3.6828,3.664,4.4248,4.3741,4.3504,4.2692,4.1508,4.1271,4.0899,4.0392,4.0189,4.0087,4.0087,4.0087,4.0087,4.0087,4.0087,4.0087,4.0087,4.0087,4.0087,4.0087,4.0087,4.0087,4.0087,3.9986,3.9935,3.9884,3.9677,3.9468,3.9276,3.8843,3.8455,3.8116,3.7738,3.7594,3.7535,3.7535,3.777,3.8343,3.8843,3.9362,3.9729,3.9884,3.9986,4.0087,4.0087,4.0087,4.0087,4.0087,4.0087,4.0087,3.9986,3.9729,3.9276,3.8843,3.8116,3.7058,3.6258,3.5718,3.5489,3.5489,3.5489,3.5489,3.5489,3.5489,3.5489,3.5489,3.5489,3.5489,3.5489,3.5489,3.5489,3.5489,3.5489,3.5489,3.5489,3.5489,3.5489,3.5489,3.5908,3.6956,3.7105,3.7644,3.8811,3.926,3.9439,3.9439,3.9439,3.9439,3.9439,3.9439,3.9439,3.9439,3.9439,3.9439,3.9469,3.9768,4.0127,4.0516,4.1265,4.1833,4.2222,4.2821,4.316,4.2862,4.2871,4.2607,4.2117,4.159,4.0972,4.0027,3.906,3.816,3.8031,3.7453,3.7108,4.4553,4.4418,4.3741,4.2997,4.2185,4.1542,4.1204,4.1035,4.0392,4.0087,4.0087,4.0087,4.0087,4.0087,4.0087,4.0087,4.0087,4.0087,4.0087,4.0087,4.0087,4.0087,4.0087,4.0087,4.0087,4.0087,3.9935,3.9763,3.9501,3.9448,3.9202,3.8766,3.8567,3.8488,3.8319,3.823,3.8511,3.8898,3.9255,3.9606,3.9833,4.0037,4.0087,4.0087,4.0087,4.0087,4.0087,4.0087,4.0087,4.0087,3.9986,3.9815,3.9468,3.8931,3.7943,3.6723,3.6163,3.5846,3.5554,3.5489,3.5489,3.5489,3.5489,3.5489,3.5489,3.5489,3.5489,3.5489,3.5489,3.5489,3.5489,3.5489,3.5489,3.5489,3.5489,3.5489,3.5489,3.5489,3.5789,3.6417,3.6656,3.7255,3.8332,3.902,3.932,3.9409,3.9439,3.9439,3.9439,3.9439,3.9439,3.9439,3.9439,3.9439,3.9439,3.9559,3.9828,4.0157,4.0546,4.0965,4.1743,4.2462,4.2791,4.3011,4.3001,4.29,4.2688,4.217,4.1561,4.0717,3.9913,3.921,3.897,3.8251,3.7821,4.4553,4.4553,4.4282,4.3707,4.2963,4.2219,4.1644,4.1136,4.0392,4.0087,4.0087,4.0087,4.0087,4.0087,4.0087,4.0087,4.0087,4.0087,4.0087,4.0087,4.0087,4.0087,4.0087,4.0087,4.0087,4.0087,4.0037,3.9935,3.9815,3.9763,3.9606,3.9255,3.9061,3.8898,3.8821,3.8733,3.8898,3.9115,3.9435,3.9729,3.9918,4.0037,4.0087,4.0087,4.0087,4.0087,4.0087,4.0087,4.0087,4.0087,4.0037,3.9833,3.9415,3.8544,3.7626,3.6723,3.6226,3.5846,3.5554,3.5489,3.5489,3.5489,3.5489,3.5489,3.5489,3.5489,3.5489,3.5489,3.5489,3.5489,3.5489,3.5489,3.5489,3.5489,3.5489,3.5489,3.5489,3.5519,3.5759,3.6357,3.6806,3.7434,3.8093,3.8601,3.8931,3.932,3.9439,3.9439,3.9439,3.9439,3.9439,3.9439,3.9439,3.9439,3.9439,3.9439,3.9559,3.9798,4.0098,4.0457,4.1085,4.1923,4.2372,4.2701,4.2891,4.3001,4.2761,4.2526,4.2005,4.1645,4.0774,4.026,4.0087,3.9299,3.8792,4.4553,4.4553,4.4553,4.4282,4.3673,4.2692,4.2016,4.1441,4.0527,4.0087,4.0087,4.0087,4.0087,4.0087,4.0087,4.0087,4.0087,4.0087,4.0087,4.0087,4.0087,4.0087,4.0087,4.0087,4.0087,4.0087,4.0087,4.0037,3.9986,3.9935,3.9866,3.9659,3.952,3.9362,3.9255,3.9255,3.9276,3.9435,3.9677,3.9833,3.9935,4.0037,4.0087,4.0087,4.0087,4.0087,4.0087,4.0087,4.0087,4.0087,4.0087,3.9884,3.9362,3.8455,3.7567,3.6876,3.6321,3.591,3.5619,3.5554,3.5489,3.5489,3.5489,3.5489,3.5489,3.5489,3.5489,3.5489,3.5489,3.5489,3.5489,3.5489,3.5489,3.5489,3.5489,3.5489,3.5489,3.5489,3.5699,3.6088,3.6656,3.7315,3.7943,3.8242,3.8721,3.932,3.9439,3.9439,3.9439,3.9439,3.9439,3.9439,3.9439,3.9439,3.9439,3.9439,3.9439,3.9619,3.9709,4.0038,4.0487,4.1324,4.1953,4.2312,4.2671,4.2951,4.3001,4.2739,4.2526,4.2333,4.184,4.1339,4.0887,4.0374,3.9853,4.4553,4.4553,4.4553,4.4553,4.4282,4.2997,4.232,4.1982,4.0764,4.0155,4.0087,4.0087,4.0087,4.0087,4.0087,4.0087,4.0087,4.0087,4.0087,4.0087,4.0087,4.0087,4.0087,4.0087,4.0087,4.0087,4.0087,4.0087,4.0087,4.0087,3.9986,3.9884,3.9884,3.9781,3.9677,3.9677,3.9729,3.9833,3.9884,3.9986,4.0087,4.0087,4.0087,4.0087,4.0087,4.0087,4.0087,4.0087,4.0087,4.0087,4.0087,3.9799,3.9276,3.8623,3.7943,3.7238,3.6569,3.607,3.5688,3.5554,3.5489,3.5489,3.5489,3.5489,3.5489,3.5489,3.5489,3.5489,3.5489,3.5489,3.5489,3.5489,3.5489,3.5489,3.5489,3.5489,3.5489,3.5489,3.5489,3.5639,3.6118,3.6716,3.7345,3.7913,3.8542,3.92,3.9439,3.9439,3.9439,3.9439,3.9439,3.9439,3.9439,3.9439,3.9439,3.9439,3.9439,3.9439,3.9499,3.9679,4.0068,4.0756,4.1384,4.1833,4.2611,4.2891,4.319,4.301,4.301,4.2739,4.2444,4.2199,4.184,4.1394,4.0887,4.4553,4.4553,4.4553,4.4553,4.4451,4.347,4.2794,4.2219,4.1238,4.0561,4.0155,4.0087,4.0087,4.0087,4.0087,4.0087,4.0087,4.0087,4.0087,4.0087,4.0087,4.0087,4.0087,4.0087,4.0087,4.0087,4.0087,4.0087,4.0087,4.0087,4.0087,4.0037,4.0037,4.0037,3.9986,3.9986,3.9986,4.0037,4.0037,4.0087,4.0087,4.0087,4.0087,4.0087,4.0087,4.0087,4.0087,4.0087,4.0087,4.0087,4.0087,3.9884,3.9415,3.8843,3.8173,3.7417,3.6785,3.6163,3.5752,3.5589,3.5489,3.5489,3.5489,3.5489,3.5489,3.5489,3.5489,3.5489,3.5489,3.5489,3.5489,3.5489,3.5489,3.5489,3.5489,3.5489,3.5489,3.5489,3.5489,3.5519,3.5699,3.6267,3.7135,3.7674,3.8212,3.92,3.9439,3.9439,3.9439,3.9439,3.9439,3.9439,3.9439,3.9439,3.9439,3.9439,3.9439,3.9439,3.9439,3.9439,3.9798,4.0127,4.0756,4.1594,4.2372,4.294,4.321,4.325,4.317,4.317,4.285,4.2739,4.2659,4.2252,4.1673,4.4553,4.4553,4.4553,4.4553,4.4485,4.3741,4.3166,4.2591,4.1644,4.0933,4.0527,4.0189,4.0087,4.0087,4.0087,4.0087,4.0087,4.0087,4.0087,4.0087,4.0087,4.0087,4.0087,4.0087,4.0087,4.0087,4.0087,4.0087,4.0087,4.0087,4.0087,4.0087,4.0087,4.0087,4.0087,4.0087,4.0087,4.0087,4.0087,4.0087,4.0087,4.0087,4.0087,4.0087,4.0087,4.0087,4.0087,4.0087,4.0087,4.0087,4.0087,3.9935,3.9659,3.9115,3.8511,3.7828,3.7118,3.6507,3.5943,3.5718,3.5554,3.5489,3.5489,3.5489,3.5489,3.5489,3.5489,3.5489,3.5489,3.5489,3.5489,3.5489,3.5489,3.5489,3.5489,3.5489,3.5489,3.5489,3.5489,3.5489,3.5519,3.6148,3.7015,3.7434,3.7973,3.908,3.9439,3.9439,3.9439,3.9439,3.9439,3.9439,3.9439,3.9439,3.9439,3.9439,3.9439,3.9439,3.9439,3.9439,3.9589,3.9768,4.0217,4.1414,4.2342,4.3,4.325,4.3329,4.325,4.325,4.317,4.309,4.301,4.282,4.2333,4.4553,4.4553,4.4553,4.4553,4.4485,4.3842,4.347,4.3166,4.2049,4.1407,4.1136,4.0663,4.0324,4.0257,4.0324,4.0257,4.0155,4.0087,4.0087,4.0087,4.0087,4.0087,4.0087,4.0087,4.0087,4.0087,4.0087,4.0087,4.0087,4.0087,4.0087,4.0087,4.0087,4.0087,4.0087,4.0087,4.0087,4.0087,4.0087,4.0087,4.0087,4.0087,4.0087,4.0087,4.0087,4.0087,4.0087,4.0087,4.0087,4.0087,4.0087,4.0037,3.9833,3.9435,3.892,3.8286,3.7594,3.6937,3.6321,3.5879,3.5653,3.5554,3.5489,3.5489,3.5489,3.5489,3.5489,3.5489,3.5489,3.5489,3.5489,3.5489,3.5489,3.5489,3.5489,3.5489,3.5489,3.5489,3.5549,3.5609,3.5639,3.6058,3.7345,3.7524,3.8182,3.902,3.9439,3.9439,3.9439,3.9439,3.9439,3.9439,3.9439,3.9439,3.9439,3.9439,3.9439,3.9439,3.9439,3.9439,3.9619,3.9828,4.0127,4.1294,4.2372,4.3,4.3329,4.3329,4.3329,4.325,4.325,4.3329,4.317,4.301,4.293,4.4553,4.4553,4.4553,4.4553,4.4553,4.435,4.3944,4.3436,4.3031,4.2455,4.2049,4.1813,4.161,4.1644,4.1136,4.0899,4.0798,4.0358,4.0087,4.0087,4.0087,4.0087,4.0087,4.0087,4.0087,4.0121,4.0189,4.0087,4.0087,4.0189,4.0155,4.0087,4.0189,4.0155,4.0087,4.0155,4.0087,4.0087,4.0138,4.0087,4.0087,4.0087,4.0087,4.0087,4.0087,4.0087,4.0087,4.0087,4.0087,4.0087,4.0087,4.0037,3.9884,3.9573,3.9202,3.8567,3.7886,3.7238,3.6631,3.6163,3.591,3.5653,3.5554,3.5489,3.5489,3.5489,3.5489,3.5489,3.5489,3.5489,3.5489,3.5489,3.5489,3.5489,3.5489,3.5489,3.5489,3.5519,3.5669,3.6118,3.6207,3.6836,3.7674,3.8123,3.8422,3.917,3.9439,3.9439,3.9439,3.9439,3.9439,3.9439,3.9439,3.9439,3.9439,3.9439,3.9439,3.9439,3.9439,3.9439,3.9798,4.0307,4.0726,4.1474,4.2521,4.3269,4.3329,4.3329,4.3329,4.3329,4.3329,4.3329,4.3329,4.317,4.309,4.4553,4.4553,4.4553,4.4553,4.4553,4.4553,4.4316,4.3876,4.3538,4.32,4.276,4.2388,4.2286,4.2252,4.1847,4.1644,4.1576,4.1204,4.1035,4.1035,4.1068,4.0696,4.0324,4.0324,4.0561,4.0595,4.0865,4.1001,4.1035,4.1001,4.1001,4.1068,4.1001,4.1001,4.1102,4.1001,4.0832,4.0629,4.0527,4.0426,4.0121,4.0087,4.0087,4.0087,4.0087,4.0087,4.0087,4.0087,4.0087,4.0087,4.0087,4.0087,3.9986,3.9815,3.9415,3.8898,3.8343,3.777,3.7058,3.66,3.6163,3.591,3.5653,3.5554,3.5489,3.5489,3.5489,3.5489,3.5489,3.5489,3.5489,3.5489,3.5489,3.5489,3.5489,3.5489,3.5489,3.5759,3.6058,3.6417,3.6746,3.7225,3.8272,3.8392,3.8751,3.92,3.9439,3.9439,3.9439,3.9439,3.9439,3.9439,3.9439,3.9439,3.9439,3.9439,3.9439,3.9439,3.9559,3.9529,3.9918,4.0546,4.1055,4.1654,4.2671,4.3329,4.3329,4.3329,4.3329,4.3329,4.3329,4.3329,4.3329,4.3329,4.325,4.4553,4.4553,4.4553,4.4553,4.4587,4.4643,4.4609,4.4418,4.3931,4.3606,4.3436,4.2828,4.276,4.2523,4.2557,4.2422,4.2388,4.2151,4.2151,4.2083,4.2016,4.1576,4.0696,4.1102,4.1305,4.1373,4.2016,4.2117,4.2049,4.2117,4.2219,4.2083,4.2117,4.2219,4.2049,4.2117,4.188,4.1373,4.1136,4.0832,4.0358,4.0189,4.0087,4.0087,4.0087,4.0189,4.0257,4.0257,4.029,4.0324,4.0189,4.0087,4.0087,3.9969,3.9729,3.9276,3.8843,3.8319,3.7721,3.7277,3.6816,3.6562,3.6243,3.5834,3.5884,3.5818,3.5699,3.5729,3.5549,3.5489,3.5489,3.5489,3.5489,3.5519,3.5549,3.5609,3.5699,3.6148,3.6537,3.6686,3.7225,3.7764,3.8242,3.8542,3.8721,3.929,3.9439,3.9439,3.9439,3.9439,3.9439,3.9439,3.9439,3.9439,3.9439,3.9439,3.9439,3.9439,3.9679,3.9798,4.0008,4.0546,4.1145,4.1863,4.2761,4.324,4.3329,4.3329,4.3329,4.3329,4.3329,4.3329,4.3329,4.3329,4.325,4.4553,4.4553,4.4553,4.4553,4.4643,4.472,4.4665,4.4609,4.455,4.4415,4.4304,4.4113,4.4045,4.4012,4.3436,4.3166,4.3098,4.2658,4.2286,4.2286,4.2286,4.2185,4.1847,4.2083,4.2083,4.2117,4.2185,4.232,4.2354,4.2489,4.232,4.2388,4.2523,4.232,4.2388,4.2489,4.2252,4.1982,4.1576,4.1238,4.0899,4.0392,4.0155,4.0155,4.0155,4.046,4.0865,4.0967,4.1238,4.1407,4.0798,4.0257,4.0257,4.0121,3.9949,3.974,3.9301,3.8972,3.8882,3.8451,3.8122,3.8054,3.7632,3.7419,3.7188,3.6573,3.6297,3.6178,3.5848,3.5669,3.5669,3.5549,3.5609,3.5729,3.6028,3.6297,3.6297,3.6447,3.6956,3.7644,3.8063,3.8422,3.908,3.911,3.926,3.9409,3.9439,3.9439,3.9439,3.9439,3.9439,3.9439,3.9439,3.9439,3.9439,3.9439,3.9439,3.9529,3.9798,4.0187,4.0367,4.0786,4.1474,4.2132,4.2821,4.312,4.3329,4.3329,4.3329,4.3329,4.3329,4.3329,4.3329,4.3329,4.3329,4.5886,4.5796,4.5456,4.5341,4.5363,4.5077,4.494,4.4886,4.494,4.492,4.4754,4.4754,4.4699,4.4677,4.4181,4.3944,4.3986,4.379,4.3586,4.362,4.3532,4.3478,4.3478,4.3356,4.3234,4.2963,4.3234,4.3335,4.3369,4.3335,4.347,4.3369,4.3335,4.347,4.3369,4.3301,4.32,4.2828,4.2455,4.2083,4.1644,4.1001,4.0629,4.073,4.0899,4.1339,4.1677,4.1711,4.1914,4.1982,4.1542,4.1102,4.1102,4.1084,4.098,4.0822,4.0554,4.0271,4.0181,3.972,3.9338,3.9156,3.8673,3.8244,3.7879,3.7345,3.7023,3.6866,3.6626,3.6387,3.6387,3.6417,3.6387,3.6447,3.6686,3.7015,3.7285,3.7375,3.7554,3.8302,3.8631,3.896,3.929,3.9409,3.9439,3.9439,3.9439,3.9439,3.9439,3.9439,3.9439,3.9439,3.9439,3.9439,3.9439,3.9439,3.9439,3.9619,3.9948,4.0427,4.0876,4.1384,4.1953,4.2491,4.297,4.318,4.3329,4.3329,4.3329,4.3329,4.3329,4.3329,4.3359,4.3389,4.3359,4.7498,4.7352,4.6508,4.622,4.6227,4.5593,4.5336,4.5283,4.5283,4.5211,4.5063,4.4886,4.4899,4.4766,4.4699,4.472,4.4852,4.4892,4.4829,4.4776,4.4667,4.4613,4.4593,4.4449,4.4169,4.3707,4.4079,4.4384,4.4418,4.4553,4.4282,4.4485,4.4519,4.4316,4.4485,4.4519,4.4147,4.3639,4.3301,4.2997,4.2422,4.1779,4.1407,4.1474,4.1779,4.2185,4.2388,4.2489,4.2557,4.2625,4.2625,4.2625,4.2591,4.2354,4.2233,4.2092,4.1795,4.1622,4.1394,4.0998,4.0554,3.9912,3.9532,3.9044,3.8611,3.8182,3.7858,3.7563,3.7375,3.7225,3.7404,3.7225,3.7255,3.7345,3.7434,3.7823,3.8242,3.8452,3.8571,3.8631,3.896,3.929,3.9349,3.9439,3.9439,3.9439,3.9439,3.9439,3.9439,3.9439,3.9439,3.9439,3.9439,3.9439,3.9439,3.9499,3.9469,3.9888,4.0187,4.0816,4.1414,4.2043,4.2521,4.2641,4.3,4.321,4.3329,4.3329,4.3329,4.3329,4.3329,4.3329,4.3359,4.3419,4.3509,4.7796,4.7726,4.6911,4.66,4.6603,4.6116,4.5854,4.5717,4.5752,4.5546,4.5371,4.5211,4.5083,4.5009,4.4975,4.5049,4.5177,4.5336,4.5389,4.5336,4.523,4.5123,4.4995,4.4886,4.4618,4.4507,4.4609,4.4609,4.4553,4.4553,4.4553,4.4553,4.4553,4.4553,4.4553,4.4553,4.4519,4.4215,4.3809,4.3436,4.3132,4.2625,4.2185,4.2185,4.2422,4.276,4.3132,4.3267,4.3538,4.4113,4.4181,4.4147,4.3842,4.2997,4.2523,4.2436,4.2362,4.2411,4.2409,4.222,4.1983,4.1818,4.1309,4.0817,4.0158,3.9375,3.8857,3.84,3.7893,3.7494,3.7404,3.7614,3.7494,3.7554,3.7943,3.8272,3.8512,3.8841,3.914,3.914,3.932,3.9439,3.9439,3.9439,3.9439,3.9439,3.9439,3.9439,3.9439,3.9439,3.9439,3.9439,3.9439,3.9439,3.9439,3.9499,3.9619,4.0247,4.0696,4.1384,4.2013,4.2731,4.312,4.306,4.309,4.3269,4.3329,4.3329,4.3329,4.3329,4.3329,4.3359,4.3539,4.3748,4.4047,4.9644,4.9521,4.8785,4.8275,4.7869,4.7266,4.6751,4.635,4.6253,4.6075,4.5805,4.5615,4.5407,4.5336,4.523,4.5336,4.5598,4.5819,4.5905,4.587,4.5752,4.5494,4.5283,4.5157,4.494,4.4831,4.4776,4.472,4.4643,4.4553,4.4553,4.4553,4.4553,4.4553,4.4553,4.4553,4.4553,4.4451,4.4181,4.3978,4.4012,4.3572,4.3335,4.3031,4.3267,4.3673,4.3876,4.4012,4.4181,4.4485,4.4553,4.4553,4.435,4.3978,4.3436,4.3436,4.3382,4.3373,4.3518,4.3331,4.3145,4.2892,4.2429,4.1851,4.1194,4.0405,3.9742,3.9334,3.9033,3.8592,3.8622,3.8462,3.8452,3.8482,3.8721,3.8841,3.896,3.923,3.9349,3.9439,3.9439,3.9439,3.9439,3.9439,3.9439,3.9439,3.9439,3.9439,3.9439,3.9439,3.9439,3.9469,3.9469,3.9559,3.9679,3.9888,4.0068,4.0636,4.1175,4.1833,4.2372,4.294,4.321,4.3269,4.3329,4.3329,4.3329,4.3329,4.3329,4.3359,4.3389,4.3509,4.3808,4.4107,4.4496,5.15,5.1327,5.0581,5.0004,4.9412,4.8532,4.7865,4.7247,4.6895,4.6565,4.6315,4.6075,4.5885,4.5715,4.5734,4.5819,4.6168,4.6411,4.6507,4.6459,4.6266,4.602,4.5717,4.5494,4.5283,4.5177,4.5103,4.494,4.4665,4.4609,4.4643,4.4643,4.4553,4.4553,4.4553,4.4553,4.4553,4.4553,4.4553,4.4553,4.4553,4.4553,4.4316,4.3741,4.4248,4.4519,4.4485,4.4451,4.4485,4.4553,4.4553,4.4553,4.4553,4.4553,4.4553,4.4553,4.4553,4.4497,4.4293,4.4145,4.3823,4.3416,4.3052,4.2459,4.1819,4.1194,4.0585,4.0191,3.992,3.9758,3.9597,3.9606,3.9463,3.9391,3.9361,3.9379,3.9349,3.9409,3.9379,3.9439,3.9439,3.9439,3.9469,3.9439,3.9439,3.9439,3.9439,3.9439,3.9439,3.9439,3.9439,3.9499,3.9559,3.9709,3.9978,4.0397,4.0726,4.1235,4.1683,4.2222,4.2641,4.303,4.318,4.3329,4.3329,4.3329,4.3329,4.3329,4.3329,4.3359,4.3449,4.3658,4.4018,4.4646,4.5214,5.209,5.2018,5.1297,5.0937,5.0659,4.9414,4.8772,4.8511,4.7607,4.7098,4.6778,4.659,4.6389,4.6235,4.6341,4.6554,4.6788,4.6926,4.7017,4.6972,4.6788,4.6507,4.6266,4.602,4.5803,4.5598,4.5441,4.5157,4.4886,4.4776,4.4665,4.4643,4.4553,4.4553,4.4553,4.4553,4.4553,4.4553,4.4553,4.4553,4.4553,4.4553,4.4485,4.4451,4.4485,4.4553,4.4553,4.4553,4.4553,4.4553,4.4553,4.4553,4.4553,4.4553,4.4553,4.4553,4.4553,4.453,4.4384,4.4327,4.4155,4.3772,4.3476,4.3052,4.2396,4.1654,4.0987,4.0539,4.037,4.037,4.0231,4.013,3.995,3.9809,3.9696,3.9625,3.9481,3.9583,3.9583,3.9511,3.9583,3.9541,3.9529,3.9469,3.9439,3.9439,3.9439,3.9469,3.9589,3.9738,3.9828,3.9978,4.0098,4.0247,4.0487,4.0876,4.1294,4.1773,4.2222,4.2611,4.288,4.318,4.324,4.3329,4.3329,4.3329,4.3329,4.3329,4.3329,4.3449,4.3629,4.3928,4.4257,4.4975,4.5813,5.2635,5.2509,5.2218,5.1782,5.1274,5.0192,4.9507,4.892,4.8031,4.7464,4.7248,4.7062,4.689,4.6774,4.6926,4.7143,4.7363,4.7493,4.75,4.7529,4.7312,4.7053,4.6788,4.659,4.635,4.607,4.5819,4.5546,4.5177,4.4886,4.472,4.4643,4.4553,4.4553,4.4553,4.4553,4.4553,4.4553,4.4553,4.4553,4.4553,4.4553,4.4553,4.4553,4.4553,4.4553,4.4553,4.4553,4.4553,4.4553,4.4553,4.4553,4.4553,4.4553,4.4553,4.4553,4.4553,4.4553,4.4497,4.453,4.4327,4.4121,4.3831,4.3476,4.2772,4.2142,4.1588,4.1292,4.1055,4.0919,4.082,4.0646,4.0439,4.0231,4.0091,3.991,3.9839,3.9768,3.9798,3.9798,3.9787,3.9968,4.0016,3.9811,3.9811,3.9738,3.9888,4.0068,4.0277,4.0516,4.0606,4.0696,4.0816,4.0965,4.1175,4.1504,4.1803,4.2252,4.2671,4.3,4.315,4.3329,4.3329,4.3329,4.3329,4.3329,4.3329,4.3329,4.3329,4.3599,4.3868,4.4257,4.4676,4.5454,4.6232,5.306,5.293,5.2893,5.2455,5.1651,5.0848,5.0044,4.9241,4.8279,4.7797,4.7601,4.7428,4.7371,4.7327,4.7407,4.7687,4.8151,4.8161,4.8348,4.8338,4.8249,4.8078,4.7787,4.7456,4.7084,4.659,4.6266,4.592,4.5528,4.5294,4.5103,4.4677,4.4553,4.4553,4.4553,4.4553,4.4553,4.4553,4.4553,4.4553,4.4553,4.4553,4.4553,4.4553,4.4553,4.4553,4.4553,4.4553,4.4553,4.4553,4.4553,4.4654,4.4891,4.4959,4.5128,4.5229,4.5365,4.5331,4.5162,4.4959,4.4598,4.4384,4.4121,4.3713,4.3141,4.2585,4.2302,4.2077,4.1884,4.172,4.1522,4.1323,4.1122,4.0888,4.0646,4.0439,4.0292,4.0384,4.0497,4.0578,4.07,4.0842,4.0758,4.042,4.0214,4.0068,4.0247,4.0576,4.0876,4.1205,4.1175,4.1205,4.1504,4.1624,4.1803,4.2073,4.2372,4.2641,4.306,4.3269,4.3329,4.3329,4.3329,4.3329,4.3329,4.3329,4.3329,4.3329,4.3359,4.3629,4.3988,4.4646,4.5244,4.5992,4.6561,5.3182,5.3182,5.3146,5.2669,5.1862,5.1092,5.0285,4.9478,4.8593,4.8078,4.7929,4.7769,4.7715,4.7788,4.7897,4.8384,4.9245,4.9281,4.961,5.0008,5.0222,4.9543,4.9046,4.8547,4.8111,4.7339,4.7051,4.6548,4.6012,4.6286,4.5576,4.48,4.5015,4.4722,4.4756,4.4959,4.4925,4.4891,4.4823,4.4722,4.4688,4.4688,4.4688,4.4654,4.4621,4.4587,4.4587,4.4756,4.4857,4.4857,4.4891,4.5094,4.5534,4.5602,4.5838,4.6143,4.6278,4.6244,4.6109,4.5466,4.4756,4.4564,4.4404,4.4282,4.3959,4.3515,4.3146,4.303,4.2875,4.2716,4.2525,4.227,4.214,4.21,4.196,4.169,4.1485,4.1186,4.1303,4.1441,4.1648,4.1934,4.2027,4.1778,4.1096,4.0919,4.1025,4.1354,4.1504,4.1743,4.1624,4.1683,4.2073,4.2252,4.2342,4.2611,4.288,4.297,4.321,4.3299,4.3329,4.3329,4.3329,4.3329,4.3329,4.3329,4.3329,4.3329,4.3419,4.3658,4.4137,4.4975,4.5723,4.6441,4.686,5.3225,5.3151,5.2674,5.227,5.194,5.1132,5.0325,4.9517,4.8671,4.8229,4.8117,4.7999,4.7919,4.8141,4.8616,4.9025,4.9548,5.0098,5.0464,5.0574,5.0529,5.03,4.9961,4.9762,4.9445,4.8892,4.8504,4.8068,4.7713,4.7403,4.688,4.634,4.6045,4.5998,4.594,4.5805,4.5838,4.5737,4.55,4.5263,4.5263,4.5263,4.5263,4.5263,4.5838,4.5906,4.5974,4.594,4.594,4.5906,4.5872,4.6075,4.6312,4.6346,4.6549,4.6853,4.6921,4.6921,4.6853,4.6278,4.5974,4.594,4.5765,4.5429,4.5176,4.513,4.4716,4.4401,4.4047,4.3892,4.3863,4.3771,4.3681,4.359,4.3425,4.3097,4.2865,4.2537,4.269,4.3068,4.3151,4.327,4.3332,4.3283,4.2419,4.1791,4.1926,4.2073,4.2222,4.2342,4.2282,4.2252,4.2581,4.2761,4.2851,4.309,4.3329,4.3329,4.3329,4.3329,4.3329,4.3329,4.3329,4.3329,4.3329,4.3329,4.3329,4.3329,4.3419,4.3539,4.4407,4.5514,4.6232,4.689,4.71,5.3078,5.2784,5.2234,5.1867,5.1573,5.0765,4.9994,4.9187,4.8563,4.8267,4.819,4.8151,4.8297,4.8703,4.9105,4.9915,5.0398,5.0912,5.1279,5.1495,5.1564,5.1229,5.1046,5.0775,5.0496,5.0206,4.9748,4.9222,4.8614,4.854,4.8127,4.7808,4.767,4.7461,4.6684,4.6786,4.6786,4.6616,4.638,4.6041,4.6007,4.6007,4.6007,4.6041,4.6447,4.6616,4.6616,4.6583,4.6616,4.6616,4.6684,4.6853,4.7022,4.7158,4.7225,4.7361,4.7428,4.7428,4.7394,4.6989,4.6819,4.6583,4.6591,4.6473,4.6548,4.6428,4.5872,4.5484,4.5324,4.5169,4.5202,4.5052,4.4995,4.4913,4.4818,4.4529,4.4366,4.4203,4.446,4.4782,4.4809,4.4665,4.4622,4.4538,4.3679,4.297,4.2801,4.2887,4.3007,4.3049,4.303,4.303,4.312,4.324,4.3329,4.3329,4.3329,4.3329,4.3329,4.3329,4.3329,4.3329,4.3329,4.3329,4.3329,4.3329,4.3329,4.3359,4.3359,4.3359,4.4436,4.5633,4.6561,4.713,4.7189,5.2747,5.205,5.194,5.1463,5.0765,4.9958,4.9187,4.8526,4.8343,4.8306,4.8304,4.8304,4.8781,4.9407,4.9738,5.0545,5.1463,5.183,5.2234,5.2674,5.2632,5.2491,5.2119,5.1742,5.1432,5.041,5.0262,5.0088,4.935,4.9552,4.9326,4.9097,4.8976,4.8558,4.7014,4.6853,4.6819,4.6819,4.6853,4.6786,4.6786,4.6786,4.6786,4.6819,4.7056,4.7225,4.7259,4.7225,4.7259,4.7225,4.7192,4.7428,4.7834,4.7868,4.8139,4.8646,4.8748,4.8815,4.8815,4.7564,4.7158,4.7124,4.7233,4.7132,4.6989,4.6862,4.6836,4.6522,4.6421,4.6361,4.6334,4.6274,4.6252,4.6329,4.6208,4.6116,4.5991,4.5896,4.6126,4.6258,4.6224,4.612,4.6025,4.5706,4.4868,4.4266,4.3849,4.3754,4.3754,4.3675,4.3566,4.3488,4.3488,4.3438,4.3438,4.3329,4.3329,4.3329,4.3329,4.3329,4.3329,4.3329,4.3329,4.3329,4.3329,4.3329,4.3359,4.3359,4.3688,4.4137,4.4616,4.5603,4.6621,4.7309,4.7309,5.2234,5.1903,5.0839,5.0251,4.9958,4.9701,4.9114,4.8416,4.8306,4.8343,4.8453,4.8857,4.926,4.9774,5.0692,5.1463,5.194,5.2711,5.3115,5.3151,5.3225,5.3078,5.2742,5.2595,5.2395,5.212,5.1835,5.1457,5.1227,5.093,5.0576,5.034,4.97,4.9138,4.8557,4.8301,4.8274,4.8173,4.7868,4.753,4.753,4.753,4.753,4.7564,4.7936,4.8105,4.8105,4.8037,4.8071,4.8071,4.8071,4.8274,4.8545,4.8578,4.8714,4.8984,4.9018,4.9018,4.8984,4.8443,4.8308,4.8206,4.8139,4.8105,4.824,4.8274,4.7977,4.7571,4.741,4.7349,4.7349,4.7349,4.7457,4.7872,4.7881,4.7818,4.7691,4.7628,4.7664,4.7666,4.7603,4.7078,4.69,4.6512,4.5801,4.529,4.4918,4.4343,4.4189,4.4143,4.4065,4.3832,4.3754,4.3596,4.3518,4.3518,4.3409,4.3438,4.3329,4.3329,4.3329,4.3409,4.3329,4.3409,4.3329,4.3359,4.3599,4.3928,4.4586,4.5125,4.5394,4.5873,4.686,4.7309,4.7309,5.1389,5.1059,5.0031,4.9407,4.9187,4.915,4.882,4.8416,4.86,4.8746,4.8967,4.9627,5.0215,5.0692,5.1426,5.227,5.2417,5.2894,5.3188,5.3225,5.3225,5.3151,5.3188,5.3182,5.2956,5.3017,5.2893,5.2599,5.2134,5.191,5.1378,5.0697,5.0171,4.9639,4.9308,4.9033,4.8883,4.8748,4.8443,4.8308,4.8308,4.8308,4.8308,4.8409,4.8646,4.8951,4.8984,4.9018,4.9018,4.9018,4.9018,4.9018,4.9018,4.9018,4.9018,4.9018,4.9018,4.9018,4.8984,4.8984,4.8815,4.8849,4.9018,4.9018,4.9018,4.8849,4.868,4.8409,4.8308,4.8274,4.824,4.824,4.8382,4.8798,4.8798,4.8668,4.8572,4.8442,4.8442,4.8513,4.842,4.7934,4.7538,4.7202,4.6652,4.6269,4.5841,4.5363,4.4768,4.4648,4.4572,4.4343,4.4112,4.3988,4.391,4.3754,4.3675,4.3596,4.3626,4.3687,4.3596,4.3675,4.3566,4.3657,4.3867,4.4108,4.4298,4.4638,4.5155,4.5544,4.5813,4.6411,4.716,4.7309,4.7309,5.0325,4.9627,4.9554,4.904,4.8416,4.8489,4.8453,4.8453,4.9187,4.9554,4.9664,5.0472,5.1096,5.1793,5.205,5.2454,5.2968,5.3151,5.3188,5.3225,5.3225,5.3225,5.3225,5.3225,5.3146,5.306,5.298,5.285,5.259,5.2232,5.1701,5.1087,5.0418,4.9999,4.9649,4.929,4.908,4.8951,4.8883,4.8781,4.8781,4.8849,4.8815,4.8849,4.8951,4.9018,4.9018,4.9018,4.9018,4.9018,4.9018,4.9018,4.9018,4.9018,4.9018,4.9018,4.9018,4.9018,4.9018,4.9018,4.9018,4.9018,4.9018,4.9018,4.9018,4.9018,4.8883,4.8849,4.8781,4.8849,4.8917,4.8883,4.8883,4.8956,4.9018,4.8923,4.8923,4.8923,4.8923,4.8894,4.8769,4.842,4.8098,4.7671,4.7404,4.7202,4.6828,4.648,4.5985,4.5332,4.5184,4.4993,4.4692,4.4419,4.4297,4.425,4.4248,4.4339,4.4261,4.4291,4.4139,4.4339,4.4582,4.4795,4.4838,4.5031,4.5324,4.5522,4.5687,4.5992,4.6352,4.6621,4.7279,4.7309,4.7309,4.9816,4.9517,4.893,4.8526,4.8416,4.893,4.9224,4.926,4.9517,4.9884,5.0508,5.1316,5.183,5.205,5.2601,5.2968,5.3115,5.3225,5.3188,5.3225,5.3225,5.3225,5.3225,5.3225,5.3146,5.3146,5.3103,5.3023,5.2806,5.2499,5.1946,5.1296,5.0749,5.025,4.9767,4.935,4.9168,4.9018,4.9018,4.9018,4.9018,4.9018,4.9018,4.9018,4.9018,4.9018,4.9018,4.9018,4.9018,4.9018,4.9018,4.9018,4.9018,4.9018,4.9018,4.9018,4.9018,4.9018,4.9018,4.9018,4.9018,4.9018,4.9052,4.9018,4.9018,4.9052,4.9052,4.9018,4.9018,4.9018,4.9018,4.9018,4.9018,4.9018,4.9018,4.9018,4.9018,4.9018,4.9018,4.9018,4.8894,4.8769,4.842,4.8227,4.7934,4.7869,4.777,4.7504,4.7098,4.6442,4.6072,4.5855,4.5699,4.5466,4.5104,4.4953,4.5048,4.5002,4.5172,4.5434,4.568,4.5834,4.5957,4.6049,4.6124,4.6314,4.6507,4.6531,4.6485,4.6736,4.701,4.713,4.7249,4.7279,4.7309,4.9079,4.9003,4.8526,4.8489,4.893,4.9701,5.0215,5.0472,5.0545,5.0839,5.1353,5.2123,5.2491,5.2564,5.2968,5.3188,5.3188,5.3225,5.3225,5.3225,5.3225,5.3225,5.3225,5.3225,5.3225,5.3225,5.3188,5.3146,5.2937,5.259,5.209,5.1687,5.107,5.0474,4.9965,4.953,4.9229,4.9046,4.9018,4.9018,4.9018,4.9018,4.9018,4.9052,4.9052,4.9086,4.9086,4.9086,4.9052,4.9018,4.9018,4.9018,4.9018,4.9018,4.9018,4.9018,4.9018,4.9018,4.9018,4.9018,4.9018,4.9086,4.9289,4.9458,4.9323,4.9255,4.912,4.9018,4.9018,4.9018,4.9018,4.9018,4.9018,4.9018,4.9018,4.9018,4.9018,4.9018,4.9018,4.9018,4.8956,4.8894,4.8769,4.861,4.8483,4.842,4.8392,4.8429,4.8035,4.7501,4.7286,4.7168,4.6917,4.6693,4.6307,4.6213,4.6441,4.6604,4.6545,4.6872,4.7169,4.7387,4.737,4.7403,4.7418,4.7534,4.764,4.738,4.7226,4.7417,4.7309,4.7279,4.7279,4.7279,4.7309,4.8343,4.8343,4.8379,4.893,4.9738,5.0545,5.1316,5.205,5.2013,5.2087,5.2234,5.2858,5.3115,5.3041,5.3188,5.3225,5.3225,5.3225,5.3225,5.3225,5.3225,5.3225,5.3225,5.3225,5.3225,5.3225,5.3225,5.3146,5.3103,5.2761,5.2361,5.2066,5.1383,5.0714,5.0137,4.9708,4.935,4.9107,4.9018,4.9018,4.9052,4.9052,4.9086,4.9154,4.9255,4.9323,4.9289,4.9221,4.9187,4.9221,4.9255,4.9323,4.9187,4.9187,4.9187,4.9289,4.9424,4.939,4.9424,4.9458,4.9323,4.9492,4.9763,5.0067,5.0033,4.9864,4.9729,4.939,4.939,4.9154,4.912,4.9052,4.9018,4.9018,4.9018,4.9018,4.9018,4.9018,4.9018,4.9018,4.9018,4.8956,4.8956,4.8769,4.8971,4.887,4.9039,4.9147,4.9254,4.8762,4.8595,4.8587,4.8413,4.8264,4.8175,4.8087,4.8189,4.8265,4.8179,4.8433,4.8859,4.8871,4.8786,4.8879,4.9075,4.8812,4.8674,4.8275,4.7752,4.7533,4.7482,4.7309,4.7309,4.7309,4.7309,4.8306,4.8379,4.9003,4.9774,5.0582,5.1389,5.216,5.2894,5.2931,5.2894,5.2968,5.3115,5.3225,5.3225,5.3225,5.3225,5.3225,5.3225,5.3225,5.3225,5.3225,5.3225,5.3225,5.3225,5.3225,5.3225,5.3225,5.3225,5.3103,5.285,5.2545,5.2173,5.1551,5.0982,5.0363,4.9942,4.953,4.9168,4.9046,4.9052,4.9154,4.9593,4.983,4.9999,5.0168,5.0473,5.0507,5.0574,5.0642,5.0676,5.071,5.0405,4.9898,4.983,4.983,4.9932,5.0236,5.0168,5.0067,5.0135,5.0202,5.0168,5.0439,5.0777,5.0879,5.0744,5.0473,5.0067,4.9729,4.9492,4.9221,4.9154,4.9018,4.9018,4.9018,4.9018,4.9018,4.9018,4.9018,4.9018,4.9018,4.9018,4.9018,4.9154,4.9357,4.9497,4.97,4.994,5.048,5.0356,5.0193,5.0158,5.0025,4.9852,4.9838,4.9752,4.9766,4.9856,4.988,5.0172,5.0496,5.0473,5.0449,5.0658,5.0682,5.0211,4.9504,4.8841,4.8324,4.788,4.7452,4.7396,4.7309,4.7309,4.7309,4.8306,4.8489,4.9627,5.0362,5.0949,5.2013,5.2821,5.3151,5.3225,5.3225,5.3225,5.3225,5.3225,5.3225,5.3225,5.3225,5.3225,5.3225,5.3225,5.3225,5.3225,5.3225,5.3225,5.3225,5.3225,5.3225,5.3225,5.3146,5.3146,5.298,5.268,5.2325,5.1848,5.1244,5.062,5.0171,4.9708,4.9229,4.9107,4.9249,4.939,4.9898,5.0338,5.0608,5.0947,5.1251,5.1217,5.1217,5.1217,5.1183,5.1116,5.1014,5.0642,5.0608,5.0574,5.0676,5.0845,5.1048,5.0845,5.0913,5.1116,5.098,5.1251,5.1657,5.1826,5.1691,5.1522,5.1116,5.0676,5.0371,4.983,4.9627,4.9289,4.9154,4.9052,4.9018,4.9018,4.9018,4.9018,4.9018,4.9018,4.9018,4.912,4.9526,4.9729,4.9932,5.0168,5.0879,5.1386,5.1725,5.1663,5.1597,5.133,5.1429,5.1486,5.1413,5.1305,5.1366,5.1328,5.1493,5.1586,5.1894,5.2131,5.1882,5.159,5.0995,5.0306,4.955,4.8769,4.8218,4.7794,4.7366,4.7396,4.7309,4.7309,4.8379,4.871,5.0141,5.0875,5.1169,5.2527,5.3188,5.3225,5.3225,5.3225,5.3225,5.3225,5.3225,5.3225,5.3225,5.3225,5.3225,5.3225,5.3225,5.3225,5.3225,5.3225,5.3225,5.3225,5.3225,5.3225,5.3225,5.3225,5.3182,5.3017,5.285,5.2545,5.209,5.1551,5.0964,5.0453,4.9999,4.9599,4.9528,4.9814,4.9994,5.0236,5.0744,5.1116,5.1454,5.1488,5.1522,5.1555,5.1555,5.1522,5.1589,5.142,5.142,5.1352,5.1352,5.142,5.1691,5.1657,5.1488,5.1623,5.1555,5.1589,5.2131,5.2469,5.2604,5.2536,5.2367,5.2097,5.1657,5.1116,5.0574,5.0168,4.9796,4.9526,4.9424,4.9357,4.9357,4.9357,4.9357,4.9357,4.9357,4.9357,4.9593,4.9965,5.0236,5.0439,5.0879,5.1623,5.2198,5.2435,5.2538,5.2539,5.2371,5.2571,5.2805,5.26,5.2294,5.236,5.2324,5.2457,5.2661,5.2731,5.2764,5.259,5.2203,5.1623,5.0951,5.0104,4.9309,4.8521,4.8049,4.7624,4.7482,4.7396,4.7309,4.871,4.9407,5.0398,5.1169,5.183,5.2784,5.3225,5.3225,5.3225,5.3225,5.3225,5.3225,5.3225,5.3225,5.3225,5.3225,5.3225,5.3225,5.3225,5.3225,5.3225,5.3225,5.3225,5.3225,5.3225,5.3225,5.3225,5.3225,5.3188,5.306,5.2893,5.259,5.2361,5.1848,5.1383,5.0892,5.0376,5.0114,5.0154,5.0481,5.0968,5.1244,5.142,5.1995,5.2739,5.2942,5.3078,5.3078,5.3078,5.2909,5.2469,5.2198,5.2097,5.2131,5.2097,5.2198,5.2469,5.2435,5.2367,5.2536,5.2503,5.2198,5.2706,5.3112,5.3179,5.3179,5.3044,5.2976,5.2469,5.1792,5.1285,5.1048,5.0744,5.0676,5.0574,5.0574,5.0574,5.0574,5.0574,5.0541,5.0541,5.0541,5.0608,5.0913,5.1183,5.142,5.1758,5.2435,5.2875,5.3112,5.3281,5.3281,5.3213,5.3315,5.3315,5.3247,5.3078,5.3179,5.3144,5.3041,5.311,5.328,5.328,5.3041,5.2661,5.2164,5.1475,5.0723,4.9868,4.9066,4.8355,4.788,4.7624,4.7482,4.7396]},{"header":{"parameterUnit":"m.s-1","parameterCategory":1,"la1":31.0,"la2":29.5877,"lo1":-88.7671,"lo2":-86.6584,"dy":0.0162,"dx":0.0185,"nx":115,"ny":88,"refTime":"2024-04-11T06:00:00:Z","depth":0,"parameterNumber":3,"parameterNumberName":"V-component_of_WINDS"},"data":[0.0,0.0,0.0,0.0,0.0,0.0,0.0,0.0,0.0,0.0,0.0,0.0,0.0,0.0,0.0,0.0,0.0,0.0,0.0,0.0,0.0,0.0,0.0,0.0,0.0,0.0,0.0,0.0,0.0,0.0,0.0,0.0,0.0,0.0,0.0,0.0,0.0,0.0,0.0,0.0,0.0,0.0,0.0,0.0,0.0,0.0,0.0,0.0,0.0,0.0,0.0,0.0,0.0,0.0,0.0,0.0,0.0,0.0,0.0,0.0,0.0,0.0,0.0,0.0,0.0,0.0,0.0,0.0,0.0,0.0,0.0,0.0,0.0,0.0,0.0,0.0,0.0,0.0,0.0,0.0,0.0,0.0,0.0,0.0,0.0,0.0,0.0,0.0,0.0,0.0,0.0,0.0,0.0,0.0,0.0,0.0,0.0,0.0,0.0,0.0,0.0,0.0,0.0,0.0,0.0,0.0,0.0,0.0,0.0,0.0,0.0,0.0,0.0,0.0,0.0,0.0,0.0,0.0,0.0,0.0,0.0,0.0,0.0,0.0,0.0,0.0,0.0,0.0,0.0,0.0,0.0,0.0,0.0,0.0,0.0,0.0,0.0,0.0,0.0,0.0,0.0,0.0,0.0,0.0,0.0,0.0,0.0,0.0,0.0,0.0,0.0,0.0,0.0,0.0,0.0,0.0,0.0,0.0,0.0,0.0,0.0,0.0,0.0,0.0,0.0,0.0,0.0,0.0,0.0,0.0,0.0,0.0,0.0,0.0,0.0,0.0,0.0,0.0,0.0,0.0,0.0,0.0,0.0,0.0,0.0,0.0,0.0,0.0,0.0,0.0,0.0,0.0,0.0,0.0,0.0,0.0,0.0,0.0,0.0,0.0,0.0,0.0,0.0,0.0,0.0,0.0,0.0,0.0,0.0,0.0,0.0,0.0,0.0,0.0,0.0,0.0,0.0,0.0,0.0,0.0,0.0,0.0,0.0,0.0,0.0,0.0,0.0,0.0,0.0,0.0,0.0,0.0,0.0,0.0,0.0,0.0,0.0,0.0,0.0,0.0,0.0,0.0,0.0,0.0,0.0,0.0,0.0,0.0,0.0,0.0,0.0,0.0,0.0,0.0,0.0,0.0,0.0,0.0,0.0,0.0,0.0,0.0,0.0,0.0,0.0,0.0,0.0,0.0,0.0,0.0,0.0,0.0,0.0,0.0,0.0,0.0,0.0,0.0,0.0,0.0,0.0,0.0,0.0,0.0,0.0,0.0,0.0,0.0,0.0,0.0,0.0,0.0,0.0,0.0,0.0,0.0,0.0,0.0,0.0,0.0,0.0,0.0,0.0,0.0,0.0,0.0,0.0,0.0,0.0,0.0,0.0,0.0,0.0,0.0,0.0,0.0,0.0,0.0,0.0,0.0,0.0,0.0,0.0,0.0,0.0,0.0,0.0,0.0,0.0,0.0,0.0,0.0,0.0,0.0,0.0,0.0,0.0,0.0,0.0,0.0,0.0,0.0,0.0,0.0,0.0,0.0,0.0,0.0,0.0,0.0,0.0,0.0,0.0,0.0,0.0,0.0,0.0,0.0,0.0,0.0,0.0,0.0,0.0,0.0,0.0,0.0,0.0,0.0,0.0,0.0,0.0,0.0,0.0,0.0,0.0,0.0,0.0,0.0,0.0,0.0,0.0,0.0,0.0,0.0,0.0,0.0,0.0,0.0,0.0,0.0,0.0,0.0,0.0,0.0,0.0,0.0,0.0,0.0,0.0,0.0,0.0,0.0,0.0,0.0,0.0,0.0,0.0,0.0,0.0,0.0,0.0,0.0,0.0,0.0,0.0,0.0,0.0,0.0,0.0,0.0,0.0,0.0,0.0,0.0,0.0,0.0,0.0,0.0,0.0,0.0,0.0,0.0,0.0,0.0,0.0,0.0,0.0,0.0,0.0,0.0,0.0,0.0,0.0,0.0,0.0,0.0,0.0,0.0,0.0,0.0,0.0,0.0,0.0,0.0,0.0,0.0,0.0,0.0,0.0,0.0,0.0,0.0,0.0,0.0,0.0,0.0,0.0,0.0,0.0,0.0,0.0,0.0,0.0,0.0,0.0,0.0,0.0,0.0,0.0,0.0,0.0,0.0,0.0,0.0,0.0,0.0,0.0,0.0,0.0,0.0,0.0,0.0,0.0,0.0,0.0,0.0,0.0,0.0,0.0,0.0,0.0,0.0,0.0,0.0,0.0,0.0,0.0,0.0,0.0,0.0,0.0,0.0,0.0,0.0,0.0,0.0,0.0,0.0,0.0,0.0,0.0,0.0,0.0,0.0,0.0,0.0,0.0,0.0,0.0,0.0,0.0,0.0,0.0,0.0,0.0,0.0,0.0,0.0,0.0,0.0,0.0,0.0,0.0,0.0,0.0,0.0,0.0,0.0,0.0,0.0,0.0,0.0,0.0,0.0,0.0,0.0,0.0,0.0,0.0,0.0,0.0,0.0,0.0,0.0,0.0,0.0,0.0,0.0,0.0,0.0,0.0,0.0,0.0,0.0,0.0,0.0,0.0,0.0,0.0,0.0,0.0,0.0,0.0,0.0,0.0,0.0,0.0,0.0,0.0,0.0,0.0,0.0,0.0,0.0,0.0,0.0,0.0,0.0,0.0,0.0,0.0,0.0,0.0,0.0,0.0,0.0,0.0,0.0,0.0,0.0,0.0,0.0,0.0,0.0,0.0,0.0,0.0,0.0,0.0,0.0,0.0,0.0,0.0,0.0,0.0,0.0,0.0,0.0,0.0,0.0,0.0,0.0,0.0,0.0,0.0,0.0,0.0,0.0,0.0,0.0,0.0,0.0,0.0,0.0,0.0,0.0,0.0,0.0,0.0,0.0,0.0,0.0,0.0,0.0,0.0,0.0,0.0,0.0,0.0,0.0,0.0,0.0,0.0,0.0,0.0,0.0,0.0,0.0,0.0,0.0,0.0,0.0,0.0,0.0,0.0,0.0,0.0,0.0,0.0,0.0,0.0,0.0,0.0,0.0,0.0,0.0,0.0,0.0,0.0,0.0,0.0,0.0,0.0,0.0,0.0,0.0,0.0,0.0,0.0,0.0,0.0,0.0,0.0,0.0,0.0,0.0,0.0,0.0,0.0,0.0,0.0,0.0,0.0,0.0,0.0,0.0,0.0,0.0,0.0,0.0,0.0,0.0,0.0,0.0,0.0,0.0,0.0,0.0,0.0,0.0,0.0,0.0,0.0,0.0,0.0,0.0,0.0,0.0,0.0,0.0,0.0,0.0,0.0,0.0,0.0,0.0,0.0,0.0,0.0,0.0,0.0,0.0,0.0,0.0,0.0,0.0,0.0,0.0,0.0,0.0,0.0,0.0,0.0,0.0,0.0,0.0,0.0,0.0,0.0,0.0,0.0,0.0,0.0,0.0,0.0,0.0,0.0,0.0,0.0,0.0,0.0,0.0,0.0,0.0,0.0,0.0,0.0,0.0,0.0,0.0,0.0,0.0,0.0,0.0,0.0,0.0,0.0,0.0,0.0,0.0,0.0,0.0,0.0,0.0,0.0,0.0,0.0,0.0,0.0,0.0,0.0,0.0,0.0,0.0,0.0,0.0,0.0,0.0,0.0,0.0,0.0,0.0,0.0,0.0,0.0,0.0,0.0,0.0,0.0,0.0,0.0,0.0,0.0,0.0,0.0,0.0,0.0,0.0,0.0,0.0,0.0,0.0,0.0,0.0,0.0,0.0,0.0,0.0,0.0,0.0,0.0,0.0,0.0,0.0,0.0,0.0,0.0,0.0,0.0,0.0,0.0,0.0,0.0,0.0,0.0,0.0,0.0,0.0,0.0,0.0,0.0,0.0,0.0,0.0,0.0,0.0,0.0,0.0,0.0,0.0,0.0,0.0,0.0,0.0,0.0,0.0,0.0,0.0,0.0,0.0,0.0,0.0,0.0,0.0,0.0,0.0,0.0,0.0,0.0,0.0,0.0,0.0,0.0,0.0,0.0,0.0,0.0,0.0,0.0,0.0,0.0,0.0,0.0,0.0,0.0,0.0,0.0,0.0,0.0,0.0,0.0,0.0,0.0,0.0,0.0,0.0,0.0,0.0,0.0,0.0,0.0,0.0,0.0,0.0,0.0,0.0,0.0,0.0,0.0,0.0,0.0,0.0,0.0,0.0,0.0,0.0,0.0,0.0,0.0,0.0,0.0,0.0,0.0,0.0,0.0,0.0,0.0,0.0,0.0,0.0,0.0,0.0,0.0,0.0,0.0,0.0,-2.8172,0.0,0.0,0.0,0.0,0.0,0.0,0.0,0.0,0.0,0.0,0.0,0.0,0.0,0.0,0.0,0.0,0.0,0.0,0.0,0.0,0.0,0.0,0.0,0.0,0.0,0.0,0.0,0.0,0.0,0.0,0.0,0.0,0.0,0.0,0.0,0.0,0.0,0.0,0.0,0.0,0.0,0.0,0.0,0.0,0.0,0.0,0.0,0.0,0.0,0.0,0.0,0.0,0.0,0.0,0.0,0.0,0.0,0.0,0.0,0.0,0.0,0.0,0.0,0.0,0.0,0.0,0.0,0.0,0.0,0.0,0.0,0.0,0.0,0.0,0.0,0.0,0.0,0.0,0.0,0.0,0.0,0.0,0.0,0.0,0.0,0.0,0.0,0.0,0.0,0.0,0.0,0.0,0.0,0.0,0.0,0.0,0.0,0.0,0.0,0.0,0.0,0.0,0.0,0.0,0.0,0.0,0.0,0.0,0.0,0.0,-2.9779,-2.9779,-2.9779,-2.9277,-2.8147,0.0,0.0,0.0,0.0,0.0,0.0,0.0,0.0,0.0,0.0,0.0,0.0,0.0,0.0,0.0,0.0,0.0,0.0,0.0,0.0,0.0,0.0,0.0,0.0,0.0,0.0,0.0,0.0,0.0,0.0,0.0,0.0,0.0,0.0,0.0,0.0,0.0,0.0,0.0,0.0,0.0,0.0,0.0,0.0,0.0,0.0,0.0,0.0,0.0,0.0,0.0,0.0,0.0,0.0,0.0,0.0,0.0,0.0,0.0,0.0,0.0,0.0,0.0,0.0,0.0,0.0,0.0,0.0,0.0,0.0,0.0,0.0,0.0,0.0,0.0,0.0,0.0,0.0,0.0,0.0,0.0,0.0,0.0,0.0,0.0,0.0,0.0,0.0,0.0,0.0,0.0,0.0,0.0,0.0,0.0,0.0,0.0,0.0,0.0,0.0,0.0,0.0,0.0,0.0,0.0,0.0,0.0,0.0,0.0,0.0,0.0,0.0,-2.9779,-2.9252,-2.8147,0.0,0.0,0.0,0.0,0.0,0.0,0.0,0.0,0.0,0.0,0.0,0.0,0.0,0.0,0.0,0.0,0.0,0.0,0.0,0.0,0.0,0.0,0.0,0.0,0.0,0.0,0.0,0.0,0.0,0.0,0.0,0.0,0.0,0.0,0.0,0.0,0.0,0.0,0.0,0.0,0.0,0.0,0.0,0.0,0.0,0.0,0.0,0.0,0.0,0.0,0.0,0.0,0.0,0.0,0.0,0.0,0.0,0.0,0.0,0.0,0.0,0.0,0.0,0.0,0.0,0.0,0.0,0.0,0.0,0.0,0.0,0.0,0.0,0.0,0.0,0.0,0.0,0.0,0.0,0.0,0.0,0.0,0.0,0.0,0.0,0.0,0.0,0.0,0.0,0.0,0.0,0.0,0.0,0.0,0.0,0.0,0.0,0.0,0.0,0.0,0.0,0.0,0.0,0.0,0.0,0.0,0.0,0.0,0.0,0.0,-2.9779,-2.9779,-2.9779,0.0,-2.8147,0.0,0.0,0.0,0.0,0.0,0.0,0.0,0.0,0.0,0.0,0.0,0.0,0.0,0.0,0.0,0.0,0.0,0.0,0.0,0.0,0.0,0.0,0.0,0.0,0.0,0.0,0.0,0.0,0.0,0.0,0.0,0.0,0.0,0.0,0.0,0.0,0.0,0.0,0.0,0.0,0.0,0.0,0.0,0.0,0.0,0.0,0.0,0.0,0.0,0.0,0.0,0.0,0.0,0.0,0.0,0.0,0.0,0.0,0.0,0.0,0.0,0.0,0.0,0.0,0.0,0.0,0.0,0.0,0.0,0.0,0.0,0.0,0.0,0.0,0.0,0.0,0.0,0.0,0.0,0.0,0.0,0.0,0.0,0.0,0.0,0.0,0.0,0.0,0.0,0.0,0.0,0.0,0.0,0.0,0.0,0.0,0.0,0.0,0.0,0.0,0.0,0.0,0.0,0.0,0.0,0.0,0.0,0.0,0.0,0.0,-2.9779,-2.9779,-2.9151,-2.8423,0.0,0.0,0.0,0.0,0.0,0.0,0.0,0.0,0.0,0.0,0.0,0.0,0.0,0.0,0.0,0.0,0.0,0.0,0.0,0.0,0.0,0.0,0.0,0.0,0.0,0.0,0.0,0.0,0.0,0.0,0.0,0.0,0.0,0.0,0.0,0.0,0.0,0.0,0.0,0.0,0.0,0.0,0.0,0.0,0.0,0.0,0.0,0.0,0.0,0.0,0.0,0.0,0.0,0.0,0.0,0.0,0.0,0.0,0.0,0.0,0.0,0.0,0.0,0.0,0.0,0.0,0.0,0.0,0.0,0.0,0.0,0.0,0.0,0.0,0.0,0.0,0.0,0.0,0.0,0.0,0.0,0.0,0.0,0.0,0.0,0.0,0.0,0.0,0.0,0.0,0.0,0.0,0.0,0.0,0.0,0.0,0.0,0.0,0.0,0.0,0.0,0.0,0.0,0.0,0.0,0.0,0.0,0.0,0.0,0.0,-2.9779,-2.9704,-2.9528,-2.8624,-2.777,-2.7092,0.0,0.0,0.0,0.0,0.0,0.0,0.0,0.0,0.0,0.0,0.0,0.0,0.0,0.0,0.0,0.0,0.0,0.0,0.0,0.0,0.0,0.0,0.0,0.0,0.0,0.0,0.0,0.0,0.0,0.0,0.0,0.0,0.0,0.0,0.0,0.0,0.0,0.0,0.0,0.0,0.0,0.0,0.0,0.0,0.0,0.0,0.0,0.0,0.0,0.0,0.0,0.0,0.0,0.0,0.0,0.0,0.0,0.0,0.0,0.0,0.0,0.0,0.0,0.0,0.0,0.0,0.0,0.0,0.0,0.0,0.0,0.0,0.0,0.0,0.0,0.0,0.0,0.0,0.0,0.0,0.0,0.0,0.0,0.0,0.0,0.0,0.0,0.0,0.0,0.0,0.0,0.0,0.0,0.0,0.0,0.0,0.0,0.0,0.0,0.0,0.0,0.0,0.0,0.0,0.0,0.0,0.0,0.0,-2.9779,-2.9779,-2.9528,-2.8976,-2.8398,-2.7595,0.0,0.0,0.0,0.0,0.0,0.0,0.0,0.0,0.0,0.0,0.0,0.0,0.0,0.0,0.0,0.0,0.0,0.0,0.0,0.0,0.0,0.0,0.0,0.0,0.0,0.0,0.0,0.0,0.0,0.0,0.0,0.0,0.0,0.0,0.0,0.0,0.0,0.0,0.0,0.0,0.0,0.0,0.0,0.0,0.0,0.0,0.0,0.0,0.0,0.0,0.0,0.0,0.0,0.0,0.0,0.0,0.0,0.0,0.0,0.0,0.0,0.0,0.0,0.0,0.0,0.0,0.0,0.0,0.0,0.0,0.0,0.0,0.0,0.0,0.0,0.0,0.0,0.0,0.0,0.0,0.0,0.0,0.0,0.0,0.0,0.0,0.0,0.0,0.0,0.0,0.0,0.0,0.0,0.0,0.0,0.0,0.0,0.0,0.0,0.0,0.0,0.0,0.0,0.0,0.0,0.0,0.0,0.0,0.0,-2.855,-2.8375,-2.83,-2.8201,-2.7628,-2.6901,0.0,0.0,0.0,0.0,0.0,0.0,0.0,0.0,0.0,0.0,0.0,0.0,0.0,0.0,0.0,0.0,0.0,0.0,0.0,0.0,0.0,0.0,0.0,0.0,0.0,0.0,0.0,0.0,0.0,0.0,0.0,0.0,0.0,0.0,0.0,0.0,0.0,0.0,0.0,0.0,0.0,0.0,0.0,0.0,0.0,0.0,0.0,0.0,0.0,0.0,0.0,0.0,0.0,0.0,0.0,0.0,0.0,0.0,0.0,0.0,0.0,0.0,0.0,0.0,0.0,0.0,0.0,0.0,0.0,0.0,0.0,0.0,0.0,0.0,0.0,0.0,0.0,0.0,0.0,0.0,0.0,0.0,0.0,0.0,0.0,0.0,0.0,0.0,0.0,0.0,0.0,0.0,0.0,0.0,0.0,0.0,0.0,0.0,0.0,0.0,0.0,0.0,0.0,0.0,0.0,0.0,0.0,0.0,0.0,-2.7829,0.0,-2.7606,-2.7607,-2.731,-2.6661,0.0,0.0,0.0,0.0,0.0,0.0,0.0,0.0,0.0,0.0,0.0,0.0,0.0,0.0,0.0,0.0,0.0,0.0,0.0,0.0,0.0,0.0,0.0,0.0,0.0,0.0,0.0,0.0,0.0,0.0,0.0,0.0,0.0,0.0,0.0,0.0,0.0,0.0,0.0,0.0,0.0,0.0,0.0,0.0,0.0,0.0,0.0,0.0,0.0,0.0,0.0,0.0,0.0,0.0,0.0,0.0,0.0,0.0,0.0,0.0,0.0,0.0,0.0,0.0,0.0,0.0,0.0,0.0,0.0,0.0,0.0,0.0,0.0,0.0,0.0,0.0,0.0,0.0,0.0,0.0,0.0,0.0,0.0,0.0,0.0,0.0,0.0,0.0,0.0,0.0,0.0,0.0,0.0,0.0,0.0,0.0,0.0,0.0,0.0,0.0,0.0,0.0,0.0,0.0,0.0,0.0,0.0,0.0,-2.7804,-2.794,-2.771,-2.7444,-2.7235,-2.7335,-2.6793,0.0,0.0,0.0,0.0,0.0,0.0,0.0,0.0,0.0,0.0,0.0,0.0,0.0,0.0,0.0,0.0,0.0,0.0,0.0,0.0,0.0,0.0,0.0,0.0,0.0,0.0,0.0,0.0,0.0,0.0,0.0,0.0,0.0,0.0,0.0,0.0,0.0,0.0,0.0,0.0,0.0,0.0,0.0,0.0,0.0,0.0,0.0,0.0,0.0,0.0,0.0,0.0,0.0,0.0,0.0,0.0,0.0,0.0,0.0,0.0,0.0,0.0,0.0,0.0,0.0,0.0,0.0,0.0,0.0,0.0,0.0,0.0,0.0,0.0,0.0,0.0,0.0,0.0,0.0,0.0,0.0,0.0,0.0,0.0,0.0,0.0,0.0,0.0,0.0,0.0,0.0,0.0,0.0,0.0,0.0,0.0,0.0,0.0,0.0,0.0,0.0,0.0,0.0,0.0,0.0,0.0,0.0,0.0,0.0,-2.6823,-2.6464,-2.637,-2.6661,-2.655,-2.6068,0.0,0.0,0.0,0.0,0.0,0.0,0.0,0.0,0.0,0.0,0.0,0.0,0.0,0.0,0.0,0.0,0.0,0.0,0.0,0.0,0.0,0.0,0.0,0.0,0.0,0.0,0.0,0.0,0.0,0.0,0.0,0.0,0.0,0.0,0.0,0.0,0.0,0.0,0.0,0.0,0.0,0.0,0.0,0.0,0.0,0.0,0.0,0.0,0.0,0.0,0.0,0.0,0.0,0.0,0.0,0.0,0.0,0.0,0.0,0.0,0.0,0.0,0.0,0.0,0.0,0.0,0.0,0.0,0.0,0.0,0.0,0.0,0.0,0.0,0.0,0.0,0.0,0.0,0.0,0.0,0.0,0.0,0.0,0.0,0.0,0.0,0.0,0.0,0.0,0.0,0.0,0.0,0.0,0.0,0.0,0.0,0.0,0.0,0.0,0.0,0.0,0.0,0.0,0.0,0.0,0.0,0.0,0.0,0.0,-2.6078,-2.5734,-2.5812,-2.6356,-2.6071,-2.5852,-2.5714,0.0,0.0,0.0,0.0,0.0,0.0,0.0,0.0,0.0,0.0,0.0,0.0,0.0,0.0,0.0,0.0,0.0,0.0,0.0,0.0,0.0,0.0,0.0,0.0,0.0,0.0,0.0,0.0,0.0,0.0,0.0,0.0,0.0,0.0,0.0,0.0,0.0,0.0,0.0,0.0,0.0,0.0,0.0,0.0,0.0,0.0,0.0,0.0,0.0,0.0,0.0,0.0,0.0,0.0,0.0,0.0,0.0,0.0,0.0,0.0,0.0,0.0,0.0,0.0,0.0,0.0,0.0,0.0,0.0,0.0,0.0,0.0,0.0,0.0,0.0,0.0,0.0,0.0,0.0,0.0,0.0,0.0,0.0,0.0,0.0,0.0,0.0,0.0,0.0,0.0,0.0,0.0,0.0,0.0,0.0,0.0,0.0,0.0,0.0,0.0,0.0,0.0,0.0,0.0,0.0,0.0,0.0,0.0,-2.5708,-2.551,-2.5694,-2.6052,-2.5968,-2.6094,0.0,0.0,0.0,0.0,0.0,0.0,0.0,0.0,0.0,0.0,0.0,0.0,0.0,0.0,0.0,0.0,0.0,0.0,0.0,0.0,0.0,0.0,0.0,0.0,0.0,0.0,0.0,0.0,0.0,0.0,0.0,0.0,0.0,0.0,0.0,0.0,0.0,0.0,0.0,0.0,0.0,0.0,0.0,0.0,0.0,0.0,0.0,0.0,0.0,0.0,0.0,0.0,0.0,0.0,0.0,0.0,0.0,0.0,0.0,0.0,0.0,0.0,0.0,0.0,0.0,0.0,0.0,0.0,0.0,0.0,0.0,0.0,0.0,0.0,0.0,0.0,0.0,0.0,0.0,0.0,0.0,0.0,0.0,0.0,0.0,0.0,0.0,0.0,0.0,0.0,0.0,0.0,0.0,0.0,0.0,0.0,0.0,0.0,0.0,0.0,0.0,0.0,0.0,0.0,0.0,0.0,0.0,0.0,0.0,-2.5282,-2.5243,-2.5348,-2.5569,-2.5973,-2.6193,0.0,0.0,0.0,0.0,0.0,0.0,0.0,0.0,0.0,0.0,0.0,0.0,0.0,0.0,0.0,0.0,0.0,0.0,0.0,0.0,0.0,0.0,0.0,0.0,0.0,0.0,0.0,0.0,0.0,0.0,0.0,0.0,0.0,0.0,0.0,0.0,0.0,0.0,0.0,0.0,0.0,0.0,0.0,0.0,0.0,0.0,0.0,0.0,0.0,0.0,0.0,0.0,0.0,0.0,0.0,0.0,0.0,0.0,0.0,0.0,0.0,0.0,0.0,0.0,0.0,0.0,0.0,0.0,0.0,0.0,0.0,0.0,0.0,0.0,0.0,0.0,0.0,0.0,0.0,0.0,0.0,0.0,0.0,0.0,0.0,0.0,0.0,0.0,0.0,0.0,0.0,0.0,0.0,0.0,0.0,0.0,0.0,0.0,0.0,0.0,0.0,0.0,0.0,0.0,0.0,0.0,0.0,0.0,-2.6007,-2.559,-2.5314,-2.5146,-2.52,-2.5636,-2.5959,0.0,0.0,0.0,0.0,0.0,0.0,0.0,0.0,0.0,0.0,0.0,0.0,0.0,0.0,0.0,0.0,0.0,0.0,0.0,0.0,0.0,0.0,0.0,0.0,0.0,0.0,0.0,0.0,0.0,0.0,0.0,0.0,0.0,0.0,0.0,0.0,0.0,0.0,0.0,0.0,0.0,0.0,0.0,0.0,0.0,0.0,0.0,0.0,0.0,0.0,0.0,0.0,0.0,0.0,0.0,0.0,0.0,0.0,0.0,0.0,0.0,0.0,0.0,0.0,0.0,0.0,0.0,0.0,0.0,0.0,0.0,0.0,0.0,0.0,0.0,0.0,0.0,0.0,0.0,0.0,0.0,0.0,0.0,0.0,0.0,0.0,0.0,0.0,0.0,0.0,0.0,0.0,0.0,0.0,0.0,0.0,0.0,0.0,0.0,0.0,0.0,0.0,0.0,0.0,0.0,0.0,0.0,0.0,-2.66,-2.6174,-2.5527,-2.5105,-2.4935,-2.5283,-2.5689,0.0,0.0,0.0,0.0,0.0,0.0,0.0,0.0,0.0,0.0,0.0,0.0,0.0,0.0,0.0,0.0,0.0,0.0,0.0,0.0,0.0,0.0,0.0,0.0,0.0,0.0,0.0,0.0,0.0,0.0,0.0,0.0,0.0,0.0,0.0,0.0,0.0,0.0,0.0,0.0,0.0,0.0,0.0,0.0,0.0,0.0,0.0,0.0,0.0,0.0,0.0,0.0,0.0,0.0,0.0,0.0,0.0,0.0,0.0,0.0,0.0,0.0,0.0,0.0,0.0,0.0,0.0,0.0,0.0,0.0,0.0,0.0,0.0,0.0,0.0,0.0,0.0,0.0,0.0,0.0,0.0,0.0,0.0,0.0,0.0,0.0,0.0,0.0,0.0,0.0,0.0,0.0,0.0,0.0,0.0,0.0,0.0,0.0,0.0,0.0,0.0,0.0,0.0,0.0,0.0,0.0,0.0,0.0,-2.6817,-2.6174,-2.5695,-2.5295,-2.4956,-2.567,-2.5945,0.0,0.0,0.0,0.0,0.0,0.0,0.0,0.0,0.0,0.0,0.0,0.0,0.0,0.0,0.0,0.0,0.0,0.0,0.0,0.0,0.0,0.0,0.0,0.0,0.0,0.0,0.0,0.0,0.0,0.0,0.0,0.0,0.0,0.0,0.0,0.0,0.0,0.0,0.0,0.0,0.0,0.0,0.0,0.0,0.0,0.0,0.0,0.0,-2.9779,0.0,0.0,0.0,0.0,0.0,0.0,0.0,0.0,0.0,0.0,0.0,0.0,0.0,0.0,0.0,0.0,0.0,0.0,0.0,0.0,0.0,0.0,0.0,0.0,0.0,0.0,0.0,0.0,0.0,0.0,0.0,0.0,0.0,0.0,0.0,0.0,0.0,0.0,0.0,0.0,0.0,0.0,0.0,0.0,0.0,0.0,0.0,0.0,0.0,0.0,0.0,0.0,0.0,0.0,0.0,0.0,0.0,0.0,0.0,-2.7312,-2.634,-2.5779,-2.5189,-2.4786,-2.5443,-2.5732,0.0,0.0,0.0,0.0,0.0,0.0,0.0,0.0,0.0,0.0,0.0,0.0,0.0,0.0,0.0,0.0,0.0,0.0,0.0,0.0,0.0,0.0,0.0,0.0,0.0,0.0,0.0,0.0,0.0,0.0,0.0,0.0,0.0,0.0,0.0,0.0,0.0,0.0,0.0,0.0,0.0,0.0,0.0,0.0,0.0,0.0,0.0,0.0,0.0,0.0,0.0,0.0,0.0,0.0,0.0,0.0,0.0,0.0,0.0,0.0,0.0,0.0,0.0,0.0,0.0,0.0,0.0,0.0,0.0,0.0,0.0,0.0,0.0,0.0,0.0,0.0,0.0,0.0,0.0,0.0,0.0,0.0,0.0,0.0,0.0,0.0,0.0,0.0,0.0,0.0,0.0,0.0,0.0,0.0,0.0,0.0,0.0,0.0,0.0,0.0,0.0,0.0,0.0,0.0,0.0,0.0,0.0,-2.7945,-2.7672,-2.6528,-2.5863,-2.5211,-2.4444,-2.5041,-2.5261,-2.5172,0.0,0.0,0.0,0.0,0.0,0.0,0.0,0.0,0.0,0.0,0.0,0.0,0.0,0.0,0.0,0.0,0.0,0.0,0.0,0.0,0.0,0.0,0.0,0.0,0.0,0.0,0.0,0.0,0.0,0.0,0.0,0.0,0.0,0.0,0.0,0.0,0.0,0.0,-2.9905,-2.998,0.0,0.0,0.0,0.0,0.0,0.0,0.0,0.0,-2.9779,0.0,0.0,0.0,0.0,0.0,0.0,0.0,0.0,0.0,0.0,0.0,0.0,0.0,0.0,0.0,0.0,0.0,0.0,0.0,0.0,0.0,0.0,0.0,0.0,0.0,0.0,0.0,0.0,0.0,0.0,0.0,0.0,0.0,0.0,0.0,0.0,0.0,0.0,0.0,0.0,0.0,0.0,0.0,0.0,0.0,0.0,0.0,0.0,0.0,0.0,0.0,0.0,0.0,0.0,0.0,0.0,-2.7533,-2.7969,-2.7672,-2.6528,-2.5863,-2.5126,-2.4292,-2.4529,-2.4597,-2.4486,0.0,0.0,0.0,0.0,0.0,0.0,0.0,0.0,0.0,0.0,0.0,0.0,0.0,0.0,0.0,0.0,0.0,0.0,0.0,0.0,0.0,0.0,0.0,0.0,0.0,0.0,0.0,0.0,0.0,0.0,0.0,0.0,0.0,0.0,0.0,0.0,0.0,0.0,0.0,-3.0859,-3.0959,0.0,0.0,0.0,0.0,0.0,0.0,0.0,0.0,-2.9779,0.0,0.0,0.0,0.0,0.0,0.0,0.0,0.0,0.0,0.0,0.0,0.0,0.0,0.0,0.0,0.0,0.0,0.0,0.0,0.0,0.0,0.0,0.0,0.0,0.0,0.0,0.0,0.0,0.0,0.0,0.0,0.0,0.0,0.0,0.0,0.0,0.0,0.0,0.0,0.0,0.0,0.0,0.0,0.0,0.0,0.0,0.0,0.0,0.0,0.0,0.0,0.0,0.0,0.0,0.0,-2.7284,-2.771,-2.7429,-2.6362,-2.5695,-2.4956,-2.4186,-2.4152,-2.4116,0.0,0.0,0.0,0.0,0.0,0.0,0.0,0.0,0.0,0.0,0.0,0.0,0.0,0.0,0.0,0.0,0.0,0.0,0.0,0.0,0.0,0.0,0.0,0.0,0.0,0.0,0.0,0.0,0.0,0.0,0.0,0.0,0.0,0.0,0.0,0.0,0.0,0.0,0.0,0.0,-3.0834,-3.1009,-3.1009,0.0,0.0,0.0,0.0,0.0,0.0,-3.0608,-3.0532,0.0,0.0,0.0,0.0,0.0,0.0,0.0,0.0,0.0,0.0,0.0,0.0,0.0,0.0,0.0,0.0,0.0,0.0,0.0,0.0,0.0,0.0,0.0,0.0,0.0,0.0,0.0,0.0,0.0,0.0,0.0,0.0,0.0,0.0,0.0,0.0,0.0,0.0,0.0,0.0,0.0,0.0,0.0,0.0,0.0,0.0,0.0,0.0,0.0,0.0,0.0,0.0,0.0,0.0,0.0,-2.6808,-2.7317,-2.7103,-2.603,-2.5359,-2.4786,-2.41,-2.3757,-2.3639,0.0,0.0,0.0,0.0,0.0,0.0,0.0,0.0,0.0,0.0,0.0,0.0,0.0,0.0,0.0,0.0,0.0,0.0,0.0,0.0,0.0,0.0,0.0,0.0,0.0,0.0,0.0,0.0,0.0,0.0,0.0,0.0,0.0,0.0,0.0,0.0,0.0,0.0,0.0,0.0,0.0,-3.1085,-3.1486,-3.1185,0.0,0.0,0.0,0.0,-3.1417,-3.1468,0.0,0.0,0.0,0.0,0.0,0.0,0.0,0.0,0.0,0.0,0.0,0.0,0.0,0.0,0.0,0.0,0.0,0.0,0.0,0.0,0.0,0.0,0.0,0.0,0.0,0.0,0.0,0.0,0.0,0.0,0.0,0.0,0.0,0.0,0.0,0.0,0.0,0.0,0.0,0.0,0.0,0.0,0.0,0.0,0.0,0.0,0.0,0.0,0.0,0.0,0.0,0.0,0.0,0.0,0.0,0.0,-2.6306,-2.676,-2.6467,-2.5359,-2.485,-2.4251,-2.358,-2.3182,-2.3059,0.0,0.0,0.0,0.0,0.0,0.0,0.0,0.0,0.0,0.0,0.0,0.0,0.0,0.0,0.0,0.0,0.0,0.0,0.0,0.0,0.0,0.0,0.0,0.0,0.0,0.0,0.0,0.0,0.0,0.0,0.0,0.0,0.0,0.0,0.0,0.0,0.0,0.0,0.0,0.0,0.0,-3.2039,-3.2114,-3.2064,-3.1888,0.0,0.0,-3.1392,-3.1711,-3.1737,0.0,0.0,0.0,0.0,0.0,0.0,0.0,0.0,0.0,0.0,0.0,0.0,0.0,0.0,0.0,0.0,0.0,0.0,0.0,0.0,0.0,0.0,0.0,0.0,0.0,0.0,0.0,0.0,0.0,0.0,0.0,0.0,0.0,0.0,0.0,0.0,0.0,0.0,0.0,0.0,0.0,0.0,0.0,0.0,0.0,0.0,0.0,0.0,0.0,0.0,0.0,0.0,0.0,0.0,0.0,-2.6434,-2.577,-2.6116,-2.5863,-2.502,-2.4423,-2.3927,-2.3493,-2.2839,-2.2651,0.0,0.0,0.0,0.0,0.0,0.0,0.0,0.0,0.0,0.0,0.0,0.0,0.0,0.0,0.0,0.0,0.0,0.0,0.0,0.0,0.0,0.0,0.0,0.0,0.0,0.0,0.0,0.0,0.0,0.0,0.0,0.0,0.0,0.0,0.0,0.0,0.0,0.0,0.0,0.0,0.0,0.0,-3.2616,-3.2441,0.0,0.0,0.0,-3.2237,-3.2625,0.0,0.0,0.0,0.0,0.0,0.0,0.0,0.0,0.0,0.0,0.0,0.0,0.0,0.0,0.0,0.0,0.0,0.0,0.0,0.0,0.0,0.0,0.0,0.0,0.0,0.0,0.0,0.0,0.0,0.0,0.0,0.0,0.0,0.0,0.0,0.0,0.0,0.0,0.0,0.0,0.0,0.0,0.0,0.0,0.0,0.0,0.0,0.0,0.0,0.0,0.0,0.0,0.0,0.0,0.0,0.0,0.0,-2.5072,-2.5524,-2.5359,-2.4594,-2.4013,-2.358,-2.3387,-2.2577,0.0,0.0,0.0,0.0,0.0,0.0,0.0,0.0,0.0,0.0,0.0,0.0,0.0,0.0,0.0,0.0,0.0,0.0,0.0,0.0,0.0,0.0,0.0,0.0,0.0,0.0,0.0,-2.4381,0.0,0.0,0.0,0.0,0.0,0.0,0.0,0.0,0.0,0.0,0.0,0.0,0.0,0.0,-3.1788,-3.2918,-3.2717,-3.2641,0.0,0.0,-3.3216,-3.3623,-3.4126,-3.4074,0.0,0.0,0.0,0.0,0.0,0.0,0.0,0.0,0.0,0.0,0.0,0.0,0.0,0.0,0.0,0.0,0.0,0.0,0.0,0.0,0.0,0.0,0.0,0.0,0.0,0.0,0.0,0.0,0.0,0.0,0.0,0.0,0.0,0.0,0.0,0.0,0.0,0.0,0.0,0.0,0.0,0.0,0.0,0.0,0.0,0.0,0.0,0.0,0.0,0.0,0.0,0.0,0.0,0.0,-2.5592,-2.4443,-2.497,-2.47,-2.3687,-2.358,-2.3406,-2.3125,-2.2324,-2.204,0.0,0.0,0.0,0.0,0.0,0.0,0.0,0.0,0.0,0.0,0.0,0.0,0.0,0.0,0.0,0.0,0.0,0.0,0.0,0.0,0.0,0.0,0.0,0.0,0.0,0.0,0.0,0.0,0.0,0.0,0.0,0.0,0.0,0.0,0.0,0.0,0.0,0.0,0.0,0.0,0.0,-3.1788,-3.2918,-3.3043,-3.3219,0.0,-3.3997,-3.4259,-3.4433,-3.4891,-3.4926,-3.4179,0.0,0.0,0.0,0.0,0.0,0.0,0.0,0.0,0.0,0.0,0.0,0.0,0.0,0.0,0.0,0.0,0.0,0.0,0.0,0.0,0.0,0.0,0.0,0.0,0.0,0.0,0.0,0.0,0.0,0.0,0.0,0.0,0.0,0.0,0.0,0.0,0.0,0.0,0.0,0.0,0.0,0.0,0.0,0.0,0.0,0.0,0.0,0.0,0.0,0.0,0.0,0.0,0.0,-2.5127,-2.4126,-2.4388,-2.4186,-2.3513,-2.3319,-2.3232,-2.3144,-2.2324,-2.1958,0.0,0.0,0.0,0.0,0.0,0.0,0.0,0.0,0.0,0.0,0.0,0.0,0.0,0.0,0.0,0.0,0.0,0.0,0.0,0.0,0.0,0.0,0.0,0.0,0.0,0.0,0.0,0.0,-2.5686,-2.5737,-2.6088,0.0,0.0,0.0,0.0,0.0,0.0,0.0,0.0,0.0,0.0,-3.1788,-3.2918,-3.3093,0.0,0.0,-3.4073,-3.4336,-3.4597,-3.5115,-3.5231,-3.4473,-3.4573,0.0,0.0,0.0,0.0,0.0,0.0,0.0,0.0,0.0,0.0,0.0,0.0,0.0,0.0,0.0,0.0,0.0,0.0,0.0,0.0,0.0,0.0,0.0,0.0,0.0,0.0,0.0,0.0,0.0,0.0,0.0,0.0,0.0,0.0,0.0,0.0,0.0,0.0,0.0,0.0,0.0,0.0,0.0,0.0,0.0,0.0,0.0,0.0,0.0,0.0,0.0,0.0,-2.4814,-2.3807,-2.4074,-2.3927,-2.3406,-2.3232,-2.3144,-2.3125,-2.2324,-2.1958,0.0,0.0,0.0,0.0,0.0,0.0,0.0,0.0,0.0,0.0,0.0,0.0,0.0,0.0,0.0,0.0,0.0,0.0,0.0,0.0,0.0,0.0,0.0,0.0,0.0,0.0,0.0,0.0,-2.6088,-2.6013,-2.6414,0.0,0.0,0.0,0.0,0.0,0.0,0.0,0.0,0.0,0.0,-3.1813,-3.2918,-3.3093,-3.3345,-3.4048,-3.4325,-3.459,-3.4765,-3.5375,-3.5579,-3.4982,0.0,0.0,0.0,0.0,0.0,0.0,0.0,0.0,0.0,0.0,0.0,0.0,0.0,0.0,0.0,0.0,0.0,0.0,0.0,0.0,0.0,0.0,0.0,0.0,0.0,0.0,0.0,-2.0566,0.0,0.0,-2.0566,0.0,0.0,0.0,0.0,0.0,0.0,0.0,0.0,0.0,0.0,0.0,0.0,0.0,0.0,0.0,0.0,0.0,0.0,0.0,0.0,0.0,0.0,-2.4657,-2.3507,-2.3906,-2.3841,-2.3144,-2.3144,-2.3144,-2.3125,-2.2324,-2.1894,-2.1875,0.0,0.0,0.0,0.0,0.0,0.0,0.0,0.0,0.0,0.0,0.0,0.0,0.0,0.0,0.0,0.0,0.0,0.0,0.0,0.0,0.0,0.0,0.0,0.0,0.0,0.0,-2.6533,-2.6508,-2.6508,0.0,0.0,0.0,0.0,0.0,0.0,0.0,0.0,0.0,-3.116,-3.1386,-3.1813,-3.2918,-3.3093,-3.347,-3.4525,-3.4881,-3.5175,-3.5328,-3.5771,-3.5989,0.0,0.0,0.0,0.0,0.0,0.0,0.0,0.0,0.0,0.0,0.0,0.0,0.0,0.0,0.0,0.0,0.0,0.0,0.0,0.0,0.0,0.0,0.0,0.0,0.0,0.0,0.0,-2.0566,-2.0566,0.0,0.0,0.0,0.0,0.0,0.0,0.0,0.0,0.0,0.0,0.0,-2.3754,-2.4272,0.0,0.0,0.0,0.0,0.0,0.0,0.0,0.0,0.0,0.0,0.0,0.0,-2.4478,-2.3426,-2.3737,-2.3667,-2.3144,-2.3144,-2.3144,-2.3144,-2.2598,-2.2197,-2.1849,0.0,0.0,0.0,0.0,0.0,0.0,0.0,0.0,0.0,0.0,0.0,0.0,0.0,0.0,0.0,0.0,0.0,0.0,0.0,0.0,0.0,0.0,0.0,0.0,0.0,-2.6533,0.0,0.0,0.0,0.0,0.0,0.0,0.0,0.0,0.0,0.0,0.0,-2.9553,-3.1185,-3.1386,-3.1788,-3.2918,-3.3395,-3.3872,0.0,0.0,0.0,0.0,0.0,0.0,0.0,0.0,0.0,0.0,0.0,0.0,0.0,0.0,-3.7615,-3.6525,-3.5896,-3.5742,-3.6256,0.0,0.0,0.0,0.0,0.0,0.0,0.0,0.0,0.0,0.0,0.0,0.0,0.0,0.0,-2.0703,-2.0585,-2.0781,0.0,0.0,0.0,0.0,0.0,0.0,0.0,0.0,-2.2636,-2.3268,-2.4013,-2.4765,-2.5527,-2.6235,-2.6255,-2.6244,0.0,0.0,0.0,0.0,0.0,0.0,0.0,0.0,-2.4486,-2.3717,-2.3713,-2.358,-2.3144,-2.3144,-2.3144,-2.3125,-2.2734,-2.2335,-2.203,-2.2418,-2.296,0.0,0.0,0.0,0.0,0.0,0.0,0.0,0.0,0.0,0.0,0.0,0.0,0.0,0.0,0.0,0.0,0.0,0.0,0.0,0.0,0.0,0.0,0.0,-2.6741,0.0,0.0,0.0,0.0,0.0,0.0,0.0,0.0,0.0,-2.8925,-2.9277,-2.998,-3.1235,-3.1562,-3.2014,-3.2943,0.0,0.0,0.0,0.0,0.0,0.0,0.0,-3.6839,-3.7069,-3.8171,-3.9448,-4.0804,-4.182,-4.2275,-4.1541,0.0,0.0,-3.8865,-3.7997,-3.7783,-3.8225,-3.8294,-3.8485,-3.8929,-3.9149,-3.9367,0.0,0.0,0.0,0.0,-2.163,0.0,0.0,0.0,-2.1074,-2.1031,0.0,-2.105,0.0,0.0,0.0,0.0,-2.117,-2.1289,0.0,0.0,-2.2794,-2.3373,-2.4272,-2.5105,-2.603,-2.6894,-2.7102,-2.7394,-2.7863,-2.6572,0.0,0.0,0.0,0.0,0.0,0.0,-2.4639,-2.4115,-2.3941,-2.358,-2.3144,-2.3144,-2.3144,-2.3038,-2.2734,-2.2493,-2.2573,-2.3143,-2.3731,-2.4301,-2.5257,0.0,0.0,0.0,0.0,0.0,0.0,0.0,0.0,0.0,0.0,0.0,0.0,0.0,0.0,0.0,0.0,0.0,0.0,0.0,0.0,-2.7318,0.0,0.0,0.0,0.0,0.0,0.0,0.0,0.0,0.0,0.0,-2.9026,-2.993,-3.0809,-3.1361,0.0,0.0,0.0,0.0,-3.4123,-3.4675,-3.5228,-3.5579,-3.5881,-3.6314,-3.6739,-3.7176,0.0,0.0,-4.2986,-4.4305,-4.4857,-4.4405,-4.4262,-4.339,-4.0297,-3.9894,-4.0076,-4.0226,-4.0568,-4.0938,-4.1169,-4.1262,-4.1384,-2.3756,0.0,0.0,0.0,0.0,-2.2393,-2.2069,-2.1747,-2.1722,-2.1477,-2.1173,-2.1496,0.0,0.0,0.0,0.0,0.0,0.0,-2.2285,-2.2519,-2.3262,-2.3978,-2.47,-2.5611,-2.6505,-2.7545,-2.7933,-2.8222,-2.8371,-2.7975,-2.7631,-2.7259,0.0,0.0,0.0,0.0,-2.5552,-2.4673,-2.4302,-2.3841,-2.3406,-2.3232,-2.3144,-2.3144,-2.2734,-2.263,-2.3016,-2.3491,-2.4039,-2.477,-2.5896,0.0,0.0,0.0,0.0,0.0,0.0,0.0,0.0,0.0,0.0,0.0,0.0,0.0,0.0,0.0,0.0,0.0,0.0,0.0,-2.7821,-2.7871,-2.7871,0.0,0.0,0.0,0.0,0.0,0.0,0.0,0.0,0.0,-3.0131,-3.0407,-3.0934,0.0,0.0,-3.2566,-3.352,-3.4123,-3.4675,-3.5228,-3.578,0.0,-3.6225,-3.6785,-3.7599,-3.8629,-4.0928,-4.2997,-4.4027,-4.5154,-4.5704,-4.5144,-4.5441,-4.5238,-4.3974,-4.2966,-4.2363,-4.2275,-4.2643,-4.3129,-4.3289,-4.3041,-4.2761,-2.5251,-2.4989,-2.4551,-2.4143,-2.3656,-2.3248,-2.2756,-2.2225,-2.2134,-2.1903,-2.1594,-2.209,-2.2316,-2.2316,-2.2221,0.0,0.0,0.0,-2.2683,-2.2773,-2.3461,-2.4186,-2.4956,-2.5863,-2.6917,-2.7995,-2.8498,-2.888,-2.9099,-2.9099,-2.895,-2.86,0.0,-2.7532,-2.7276,-2.6816,-2.6119,-2.5261,-2.4618,-2.4013,-2.3513,-2.3232,-2.3144,-2.3144,-2.2891,-2.2926,-2.3458,-2.393,-2.4497,-2.5103,-2.6279,-2.6884,0.0,0.0,0.0,0.0,0.0,0.0,0.0,0.0,0.0,0.0,0.0,-2.6691,-2.6559,0.0,0.0,0.0,-2.7494,-2.8072,-2.8398,-2.8423,0.0,0.0,0.0,0.0,0.0,0.0,0.0,-2.9553,-3.0181,-3.0783,-3.1185,-3.1235,-3.1486,-3.2114,-3.2416,-3.2867,-3.3771,0.0,-3.4926,-3.5479,-3.6006,-3.6358,-3.6452,-3.7015,-3.8135,-4.0102,-4.2368,-4.4239,-4.5112,-4.6013,-4.636,-4.6262,-4.6441,-4.6501,-4.5813,-4.5238,-4.4684,-4.4072,-4.4244,-4.4512,-4.4706,-4.4377,-4.4047,-2.661,-2.7139,-2.6116,-2.5267,-2.4634,-2.422,-2.3412,-2.2344,-2.2571,-2.2349,-2.2016,-2.2709,-2.3253,-2.3778,-2.3061,0.0,-2.3003,-2.2918,-2.3031,-2.3144,-2.358,-2.4186,-2.4935,-2.5946,-2.7103,-2.8179,-2.8816,-2.9287,-2.9702,-2.9779,-2.9779,-2.9754,-2.86,-2.8027,-2.8037,-2.7285,-2.6565,-2.6008,-2.5084,-2.4251,-2.3513,-2.3232,-2.3144,-2.3144,-2.3144,-2.3319,-2.3754,-2.4444,-2.5082,-2.5473,-2.6496,-2.7127,-2.7233,0.0,0.0,0.0,0.0,0.0,0.0,0.0,0.0,0.0,0.0,0.0,0.0,0.0,0.0,0.0,-2.8323,0.0,-2.8976,-2.9001,0.0,0.0,0.0,-2.8448,-2.895,-2.9001,-2.9428,-3.0482,0.0,0.0,-3.2089,-3.224,-3.229,-3.2265,-3.2742,-3.3294,-3.3872,-3.4399,-3.4926,-3.5554,-3.6031,-3.6358,-3.6452,-3.7092,-3.8569,-4.1069,-4.3082,-4.449,-4.5725,-4.6491,-4.6901,-4.7133,-4.7309,-4.713,-4.6501,-4.6685,-4.683,-4.5544,-4.5364,-4.5364,-4.5364,-4.5274,-4.5005,-2.6693,-2.7429,-2.7313,-2.6862,-2.6019,-2.5355,-2.4556,-2.373,-2.3381,-2.3075,-2.2862,-2.3248,-2.3634,-2.4084,-2.3856,-2.3685,-2.3614,-2.3441,-2.3221,-2.3125,-2.358,-2.4186,-2.4935,-2.5863,-2.6835,-2.7891,-2.8554,-2.9131,-2.9521,-2.9702,-2.9779,-2.9779,-2.9503,-2.9197,-2.9065,-2.8385,-2.7716,-2.694,-2.5863,-2.468,-2.3513,-2.3232,-2.3144,-2.3144,-2.3144,-2.3232,-2.358,-2.4251,-2.4957,-2.5771,-2.6839,-2.7434,-2.756,-2.8123,0.0,0.0,0.0,0.0,0.0,0.0,0.0,0.0,0.0,-2.7846,-2.772,0.0,-2.777,0.0,-2.8524,-2.9101,-2.9553,-2.9578,0.0,0.0,-2.9478,-2.9453,-2.9578,-2.9578,-2.9854,-3.0532,-3.0959,-3.1461,-3.2139,-3.2591,-3.2867,-3.2867,-3.2968,-3.342,-3.4349,-3.4625,-3.5077,-3.5956,-3.6257,-3.6358,-3.6477,-3.7587,-3.8859,-4.0167,-4.2167,-4.3953,-4.4844,-4.5903,-4.6756,-4.6931,-4.7222,-4.7219,-4.704,-4.683,-4.6471,-4.6142,-4.6082,-4.6082,-4.6082,-4.5663,-4.5244,-2.6445,-2.729,-2.7719,-2.7452,-2.6775,-2.6113,-2.5274,-2.4444,-2.3841,-2.3387,-2.3105,-2.3921,-2.4354,-2.455,-2.4615,-2.4444,-2.41,-2.3927,-2.358,-2.3319,-2.3667,-2.4166,-2.4765,-2.5695,-2.6753,-2.7672,-2.8474,-2.9028,-2.9419,-2.9702,-2.9779,-2.9779,-2.9779,-2.9702,-2.9521,-2.8973,-2.8179,-2.7348,-2.5841,-2.4509,-2.3493,-2.3232,-2.3144,-2.3144,-2.2949,-2.3036,-2.3493,-2.3876,-2.445,-2.5421,-2.6445,-2.7233,-2.7593,-2.8276,-2.8818,0.0,0.0,0.0,0.0,0.0,0.0,0.0,0.0,0.0,0.0,0.0,-2.8197,-2.8448,-2.8976,-2.9453,-2.9754,-2.9779,-2.9779,-2.9779,-2.9779,-2.9779,-2.9779,-3.0005,-3.0357,-3.0909,-3.1436,-3.1964,-3.2516,-3.2867,-3.3093,-3.3093,-3.3093,-3.347,-3.4474,-3.4726,-3.5102,-3.6157,-3.6358,-3.6452,-3.6546,-3.757,-3.871,-3.9508,-4.1104,-4.2747,-4.3588,-4.4586,-4.5434,-4.5811,-4.607,-4.6326,-4.6381,-4.6142,-4.5783,-4.5514,-4.5424,-4.5544,-4.5813,-4.5544,-4.5244,-2.6012,-2.6903,-2.7476,-2.7534,-2.7103,-2.6528,-2.5779,-2.485,-2.4186,-2.3627,-2.326,-2.4522,-2.5039,-2.4956,-2.5126,-2.4956,-2.4529,-2.4292,-2.3927,-2.3513,-2.3667,-2.3993,-2.4488,-2.5611,-2.6528,-2.7429,-2.8315,-2.8949,-2.9341,-2.9624,-2.9779,-2.9779,-2.9779,-2.9779,-2.9779,-2.9209,-2.8395,-2.7429,-2.5589,-2.4251,-2.36,-2.3319,-2.3125,-2.3047,-2.2715,-2.2781,-2.3394,-2.3358,-2.3865,-2.4829,-2.5779,-2.6693,-2.7348,-2.8235,-2.887,0.0,-2.9599,0.0,0.0,0.0,0.0,0.0,0.0,0.0,0.0,-2.8323,-2.8524,-2.9001,-2.9503,-2.9779,-2.9779,-2.9779,-2.9779,-2.9779,-2.9779,-2.9779,-2.9804,-3.0281,-3.0809,-3.1417,-3.1946,-3.2525,-3.3054,-3.3154,-3.3093,-3.3093,-3.3093,-3.3445,-3.4374,-3.4675,-3.5077,-3.6107,-3.6332,-3.6452,-3.6666,-3.7304,-3.799,-3.8792,-3.996,-4.1196,-4.2133,-4.2931,-4.3719,-4.4438,-4.4837,-4.506,-4.5221,-4.5274,-4.4975,-4.4526,-4.4347,-4.4436,-4.5005,-4.5155,-4.4975,-2.5787,-2.6385,-2.688,-2.7067,-2.6962,-2.661,-2.5946,-2.5105,-2.4464,-2.3927,-2.3734,-2.4354,-2.4784,-2.5105,-2.5041,-2.4871,-2.4765,-2.4186,-2.3754,-2.3493,-2.3493,-2.3841,-2.4272,-2.5041,-2.5946,-2.7044,-2.7938,-2.8578,-2.9209,-2.9624,-2.9779,-2.9779,-2.9779,-2.9779,-2.9779,0.0,0.0,0.0,-2.5695,-2.4786,-2.412,-2.3687,-2.3162,-2.2637,-2.2559,0.0,-2.2703,-2.2899,-2.3463,-2.4553,-2.5274,0.0,0.0,0.0,0.0,0.0,0.0,0.0,0.0,0.0,0.0,0.0,-2.9679,-2.9603,-2.9503,-2.9478,-2.9528,-2.9628,-2.9729,-2.9779,-2.9779,-2.9779,-2.9779,-2.9779,-2.9779,-2.9779,-2.9804,-3.0438,-3.1048,-3.1661,-3.2219,-3.2693,-3.3224,-3.324,-3.3093,-3.3093,-3.3093,-3.3345,-3.3947,-3.4424,-3.4951,-3.5579,-3.6056,-3.6427,-3.6452,-3.6742,-3.7126,-3.7619,-3.8568,-3.9719,-4.0622,-4.182,-4.2931,-4.3632,-4.4294,-4.4803,-4.5025,-4.4721,-4.4466,-4.4317,-4.3898,-4.3718,-4.4347,-4.4496,-4.4466,-2.5072,-2.585,-2.614,-2.6302,0.0,-2.6279,-2.5779,-2.502,-2.4444,-2.4034,-2.3667,-2.4268,-2.4592,-2.4871,-2.4935,-2.4956,-2.47,-2.4186,-2.3841,-2.3493,-2.3493,-2.3667,-2.4013,-2.485,-2.5717,-2.655,-2.751,-2.8315,-2.8973,-2.9365,-2.9702,-2.9779,-2.9779,-2.9779,-2.9779,-2.9365,-2.8395,-2.7044,-2.603,-2.5105,-2.4206,-2.3754,-2.3308,-2.2832,-2.2617,0.0,0.0,0.0,0.0,0.0,0.0,0.0,0.0,-2.7348,0.0,-2.8791,-2.9184,-2.9496,-2.9779,-2.9779,-2.9779,-2.9779,-2.9779,-2.9779,-2.9779,-2.9779,-2.9779,-2.9779,-2.9779,-2.9779,-2.9779,-2.9779,-2.9779,-2.9779,-2.9779,-2.9779,-2.9854,-3.0745,-3.1487,-3.1818,-3.2555,-3.3107,-3.336,-3.324,-3.3093,-3.3093,-3.3093,-3.3169,-3.347,-3.3972,-3.4575,-3.5403,-3.5755,-3.6056,-3.6307,-3.6452,-3.6615,-3.6947,-3.7619,-3.8332,-3.9093,-4.015,-4.1263,-4.2051,-4.2767,-4.3357,-4.3744,-4.3723,-4.3677,-4.3728,-4.3569,-4.3419,-4.3778,-4.3838,-4.3808,-2.4525,-2.5413,-2.538,-2.5529,-2.5633,-2.5695,-2.5274,-2.4615,-2.4272,0.0,0.0,-2.4074,-2.4333,-2.4464,-2.4786,-2.4786,-2.4464,-2.4206,-2.3861,-2.3493,-2.3426,-2.3493,-2.3754,-2.4615,-2.5359,-2.6113,-2.7162,-2.7971,-2.8736,-2.9106,-2.9443,-2.9702,-2.9702,-2.9702,-2.9702,-2.9131,-2.8315,-2.7267,-2.6362,-2.5359,-2.4272,-2.3754,-2.3367,-2.3027,-2.2695,-2.2676,-2.3008,-2.2867,-2.3057,-2.3474,-2.4358,-2.5105,-2.5779,-2.6775,-2.7753,-2.8633,-2.9106,-2.9521,-2.9779,-2.9779,-2.9779,-2.9779,-2.9779,-2.9779,-2.9779,-2.9779,-2.9779,-2.9779,-2.9779,-2.9779,-2.9779,-2.9779,-2.9779,-2.9779,-2.9779,-2.9779,-2.9854,-3.0871,-3.1665,-3.1894,-3.2599,-3.3284,-3.3386,-3.324,-3.3093,-3.3093,-3.3093,-3.3093,-3.3144,-3.3596,-3.4274,-3.5152,-3.5378,-3.5579,-3.6056,-3.6182,-3.6326,-3.6615,-3.6922,-3.7294,-3.7939,-3.8666,-3.9469,-4.0427,-4.1114,-4.176,-4.2392,-4.2828,-4.2981,-4.325,-4.325,-4.3329,-4.3329,-4.3359,-4.3359,-2.5209,-2.4927,-2.513,-2.5034,-2.4659,-2.468,-2.4337,-2.3687,-2.3667,-2.36,-2.3493,-2.36,-2.3861,-2.4206,-2.41,-2.41,-2.4206,-2.3774,-2.36,-2.3493,-2.3232,-2.3319,-2.36,-2.41,-2.4786,-2.5611,-2.6588,-2.7429,-2.8259,-2.8712,-2.9106,-2.9419,-2.9419,-2.9419,-2.9419,-2.9028,-2.8395,-2.751,-2.661,-2.5589,-2.4509,-2.3993,-2.3401,-2.2617,-2.2559,-2.2539,-2.2598,-2.2539,-2.2886,-2.3474,-2.4013,-2.4615,-2.5274,-2.6385,-2.7371,-2.8259,-2.8816,-2.9365,-2.9779,-2.9779,-2.9779,-2.9779,-2.9779,-2.9779,-2.9779,-2.9779,-2.9779,-2.9779,-2.9779,-2.9779,-2.9779,-2.9779,-2.9779,-2.9779,-2.9779,-2.9779,-2.9804,-3.0489,-3.1229,-3.1767,-3.2352,-3.2904,-3.331,-3.324,-3.3093,-3.3093,-3.3093,-3.3093,-3.3169,-3.3545,-3.4123,-3.4675,-3.4826,-3.5077,-3.5529,-3.5655,-3.5881,-3.6402,-3.6615,-3.6922,-3.7479,-3.8031,-3.8639,-3.9618,-4.0315,-4.1029,-4.1702,-4.2363,-4.2769,-4.301,-4.317,-4.325,-4.325,-4.3329,-4.3329,-2.5325,-2.4776,-2.4674,-2.4398,-2.4079,-2.3993,-2.3754,-2.3513,-2.3319,-2.3319,-2.3319,-2.3406,-2.358,-2.3841,-2.3841,-2.3841,-2.3861,-2.36,-2.3406,-2.3319,-2.3144,-2.3232,-2.3513,-2.3947,-2.4529,-2.5189,-2.6113,-2.6917,-2.7592,-2.8051,-2.8554,-2.9028,-2.9263,-2.9341,-2.9184,-2.8949,-2.8315,-2.7348,-2.661,-2.5695,-2.4488,-2.3993,-2.3481,-2.2852,-2.2852,-2.2852,-2.2852,-2.2852,-2.2949,-2.3319,-2.3754,-2.4272,-2.502,-2.5946,-2.7021,-2.8099,-2.8657,-2.9209,-2.9779,-2.9779,-2.9779,-2.9779,-2.9779,-2.9779,-2.9779,-2.9779,-2.9779,-2.9779,-2.9779,-2.9779,-2.9779,-2.9779,-2.9779,-2.9779,-2.9779,-2.9779,-2.9854,-3.0413,-3.1128,-3.1741,-3.2301,-3.2777,-3.3335,-3.324,-3.3093,-3.3093,-3.3093,-3.3093,-3.3093,-3.3294,-3.3646,-3.4148,-3.4274,-3.45,-3.5002,-3.5378,-3.5629,-3.5906,-3.6251,-3.659,-3.7015,-3.7361,-3.7913,-3.8729,-3.9441,-4.0257,-4.1029,-4.1702,-4.2281,-4.2769,-4.301,-4.317,-4.325,-4.3329,-4.3329,-2.5417,-2.4809,-2.4374,-2.3969,-2.3667,-2.3493,-2.3406,-2.3406,-2.3232,-2.3144,-2.3144,-2.3319,-2.3406,-2.3406,-2.358,-2.358,-2.3406,-2.3406,-2.3319,-2.3144,-2.3144,-2.3232,-2.3406,-2.3841,-2.4272,-2.47,-2.5527,-2.6174,-2.6835,-2.7244,-2.7891,-2.8554,-2.8949,-2.9106,-2.8895,-2.8712,-2.8051,-2.7103,-2.6362,-2.5527,-2.4509,-2.4013,-2.3493,-2.3144,-2.3144,-2.3144,-2.3144,-2.3144,-2.3144,-2.3144,-2.358,-2.41,-2.4765,-2.5695,-2.6775,-2.7914,-2.8474,-2.9131,-2.9702,-2.9779,-2.9779,-2.9779,-2.9779,-2.9779,-2.9779,-2.9779,-2.9779,-2.9779,-2.9779,-2.9779,-2.9779,-2.9779,-2.9779,-2.9779,-2.9779,-2.9779,-2.9829,-3.0337,-3.0922,-3.161,-3.2117,-3.2541,-3.3123,-3.324,-3.3093,-3.3093,-3.3093,-3.3093,-3.3093,-3.3093,-3.3269,-3.3545,-3.3721,-3.3922,-3.4449,-3.4851,-3.5203,-3.5361,-3.5881,-3.6344,-3.6633,-3.6922,-3.7294,-3.7939,-3.8575,-3.938,-4.017,-4.0944,-4.1702,-4.2281,-4.2607,-4.293,-4.317,-4.325,-4.3329,-2.541,-2.5075,-2.4624,-2.3887,-2.3271,-2.3164,-2.3144,-2.3144,-2.3144,-2.3144,-2.3144,-2.3144,-2.3144,-2.3144,-2.3144,-2.3144,-2.3144,-2.3144,-2.3144,-2.3144,-2.3144,-2.3144,-2.3144,-2.3426,-2.3667,-2.4013,-2.47,-2.5274,-2.5695,-2.6362,-2.708,-2.7891,-2.8339,-2.8498,-2.8259,-2.7995,-2.7487,-2.6588,-2.5695,-2.4956,-2.4292,-2.3754,-2.3406,-2.3144,-2.3144,-2.3144,-2.3144,-2.3144,-2.3144,-2.3144,-2.358,-2.3993,-2.4594,-2.5589,-2.661,-2.751,-2.8315,-2.9131,-2.9702,-2.9779,-2.9779,-2.9779,-2.9779,-2.9779,-2.9779,-2.9779,-2.9779,-2.9779,-2.9779,-2.9779,-2.9779,-2.9779,-2.9779,-2.9779,-2.9779,-2.9779,-2.9804,-2.9829,-3.0335,-3.1367,-3.1568,-3.1946,-3.2928,-3.3154,-3.3068,-3.3093,-3.3093,-3.3093,-3.3093,-3.3093,-3.3093,-3.3169,-3.3169,-3.342,-3.3872,-3.3997,-3.45,-3.5278,-3.5579,-3.5923,-3.6387,-3.6684,-3.6922,-3.7387,-3.7939,-3.8575,-3.9292,-4.017,-4.0944,-4.159,-4.2117,-4.2526,-4.29,-4.314,-4.325,-2.5469,-2.5059,-2.4863,-2.4316,-2.3574,-2.3535,-2.3379,-2.3144,-2.3144,-2.3144,-2.3144,-2.3144,-2.3144,-2.3144,-2.3144,-2.3144,-2.3144,-2.3144,-2.3144,-2.3144,-2.3144,-2.3144,-2.3144,-2.3406,-2.358,-2.3667,-2.4186,-2.4615,-2.502,-2.5779,-2.6445,-2.6999,-2.7592,-2.7834,-2.7777,-2.7672,-2.7162,-2.6362,-2.5443,-2.47,-2.4013,-2.3667,-2.3406,-2.3144,-2.3144,-2.3144,-2.3144,-2.3144,-2.3144,-2.3144,-2.3406,-2.3927,-2.4488,-2.5359,-2.6279,-2.7429,-2.8554,-2.9365,-2.9779,-2.9779,-2.9779,-2.9779,-2.9779,-2.9779,-2.9779,-2.9779,-2.9779,-2.9779,-2.9779,-2.9779,-2.9779,-2.9779,-2.9779,-2.9779,-2.9779,-2.9779,-2.9779,-2.9779,-3.0206,-3.1185,-3.1386,-3.1813,-3.2792,-3.3093,-3.3093,-3.3093,-3.3093,-3.3093,-3.3093,-3.3093,-3.3093,-3.3093,-3.3093,-3.3169,-3.342,-3.3721,-3.4098,-3.4525,-3.5152,-3.5655,-3.5923,-3.6395,-3.664,-3.7015,-3.7387,-3.7848,-3.8575,-3.9176,-3.9881,-4.0631,-4.1673,-4.2252,-4.2607,-4.293,-4.309,-2.5547,-2.5254,-2.5117,-2.4648,-2.3965,-2.3828,-2.3613,-2.332,-2.3203,-2.3144,-2.3144,-2.3144,-2.3144,-2.3144,-2.3144,-2.3144,-2.3144,-2.3144,-2.3144,-2.3144,-2.3144,-2.3144,-2.3144,-2.3319,-2.3406,-2.3493,-2.3841,-2.4186,-2.4423,-2.5105,-2.5695,-2.6196,-2.667,-2.694,-2.7021,-2.7021,-2.6693,-2.5863,-2.5105,-2.4358,-2.3754,-2.3493,-2.3319,-2.3144,-2.3144,-2.3144,-2.3144,-2.3144,-2.3144,-2.3144,-2.3319,-2.3754,-2.4423,-2.5105,-2.6196,-2.7672,-2.8712,-2.9443,-2.9779,-2.9779,-2.9779,-2.9779,-2.9779,-2.9779,-2.9779,-2.9779,-2.9779,-2.9779,-2.9779,-2.9779,-2.9779,-2.9779,-2.9779,-2.9779,-2.9779,-2.9779,-2.9779,-2.9779,-3.0131,-3.1009,-3.1135,-3.1587,-3.2566,-3.2943,-3.3093,-3.3093,-3.3093,-3.3093,-3.3093,-3.3093,-3.3093,-3.3093,-3.3093,-3.3093,-3.3119,-3.337,-3.3671,-3.3997,-3.4625,-3.5102,-3.5429,-3.5931,-3.6377,-3.6607,-3.6777,-3.7201,-3.7756,-3.8277,-3.8881,-3.9853,-4.0802,-4.1645,-4.1868,-4.2333,-4.2688,-2.5723,-2.5644,-2.5254,-2.4824,-2.4355,-2.3984,-2.3789,-2.3691,-2.332,-2.3144,-2.3144,-2.3144,-2.3144,-2.3144,-2.3144,-2.3144,-2.3144,-2.3144,-2.3144,-2.3144,-2.3144,-2.3144,-2.3144,-2.3144,-2.3144,-2.3144,-2.3406,-2.3774,-2.4206,-2.4292,-2.4615,-2.5295,-2.5527,-2.5717,-2.5968,-2.603,-2.5611,-2.502,-2.4529,-2.4034,-2.358,-2.3232,-2.3144,-2.3144,-2.3144,-2.3144,-2.3144,-2.3144,-2.3144,-2.3144,-2.3319,-2.3687,-2.4186,-2.5041,-2.6445,-2.8179,-2.8895,-2.9287,-2.9702,-2.9779,-2.9779,-2.9779,-2.9779,-2.9779,-2.9779,-2.9779,-2.9779,-2.9779,-2.9779,-2.9779,-2.9779,-2.9779,-2.9779,-2.9779,-2.9779,-2.9779,-2.9779,-2.9779,-3.003,-3.0557,-3.0758,-3.126,-3.2164,-3.2742,-3.2993,-3.3068,-3.3093,-3.3093,-3.3093,-3.3093,-3.3093,-3.3093,-3.3093,-3.3093,-3.3093,-3.3194,-3.342,-3.3696,-3.4022,-3.4374,-3.5027,-3.5629,-3.5906,-3.6251,-3.6564,-3.6803,-3.7108,-3.7638,-3.8251,-3.9149,-3.9913,-4.0603,-4.0887,-4.1561,-4.2005,-2.5723,-2.5723,-2.5566,-2.5234,-2.4805,-2.4375,-2.4043,-2.375,-2.332,-2.3144,-2.3144,-2.3144,-2.3144,-2.3144,-2.3144,-2.3144,-2.3144,-2.3144,-2.3144,-2.3144,-2.3144,-2.3144,-2.3144,-2.3144,-2.3144,-2.3144,-2.3232,-2.3406,-2.3687,-2.3774,-2.4034,-2.4529,-2.4765,-2.502,-2.5211,-2.5274,-2.502,-2.468,-2.4166,-2.3754,-2.3513,-2.3232,-2.3144,-2.3144,-2.3144,-2.3144,-2.3144,-2.3144,-2.3144,-2.3144,-2.3232,-2.358,-2.4272,-2.5633,-2.6962,-2.8179,-2.8816,-2.9287,-2.9702,-2.9779,-2.9779,-2.9779,-2.9779,-2.9779,-2.9779,-2.9779,-2.9779,-2.9779,-2.9779,-2.9779,-2.9779,-2.9779,-2.9779,-2.9779,-2.9779,-2.9779,-2.9779,-2.9804,-3.0005,-3.0507,-3.0884,-3.1411,-3.1964,-3.239,-3.2667,-3.2993,-3.3093,-3.3093,-3.3093,-3.3093,-3.3093,-3.3093,-3.3093,-3.3093,-3.3093,-3.3093,-3.3194,-3.3395,-3.3646,-3.3947,-3.4474,-3.5177,-3.5554,-3.583,-3.615,-3.6564,-3.6845,-3.7294,-3.7821,-3.816,-3.9033,-3.9563,-3.9738,-4.0518,-4.1057,-2.5723,-2.5723,-2.5723,-2.5566,-2.5215,-2.4648,-2.4258,-2.3926,-2.3398,-2.3144,-2.3144,-2.3144,-2.3144,-2.3144,-2.3144,-2.3144,-2.3144,-2.3144,-2.3144,-2.3144,-2.3144,-2.3144,-2.3144,-2.3144,-2.3144,-2.3144,-2.3144,-2.3232,-2.3319,-2.3406,-2.36,-2.3947,-2.41,-2.4358,-2.4529,-2.4529,-2.4423,-2.4166,-2.3841,-2.358,-2.3406,-2.3232,-2.3144,-2.3144,-2.3144,-2.3144,-2.3144,-2.3144,-2.3144,-2.3144,-2.3144,-2.3493,-2.4358,-2.5695,-2.7044,-2.7914,-2.8633,-2.9209,-2.9624,-2.9702,-2.9779,-2.9779,-2.9779,-2.9779,-2.9779,-2.9779,-2.9779,-2.9779,-2.9779,-2.9779,-2.9779,-2.9779,-2.9779,-2.9779,-2.9779,-2.9779,-2.9779,-2.9779,-2.9955,-3.0281,-3.0758,-3.1311,-3.1838,-3.2089,-3.2491,-3.2993,-3.3093,-3.3093,-3.3093,-3.3093,-3.3093,-3.3093,-3.3093,-3.3093,-3.3093,-3.3093,-3.3093,-3.3244,-3.3319,-3.3596,-3.3972,-3.4675,-3.5203,-3.5504,-3.5805,-3.62,-3.6564,-3.6989,-3.7294,-3.7453,-3.8004,-3.8549,-3.897,-3.9502,-4.0027,-2.5723,-2.5723,-2.5723,-2.5723,-2.5566,-2.4824,-2.4434,-2.4238,-2.3535,-2.3184,-2.3144,-2.3144,-2.3144,-2.3144,-2.3144,-2.3144,-2.3144,-2.3144,-2.3144,-2.3144,-2.3144,-2.3144,-2.3144,-2.3144,-2.3144,-2.3144,-2.3144,-2.3144,-2.3144,-2.3144,-2.3319,-2.3493,-2.3493,-2.3667,-2.3841,-2.3841,-2.3754,-2.358,-2.3493,-2.3319,-2.3144,-2.3144,-2.3144,-2.3144,-2.3144,-2.3144,-2.3144,-2.3144,-2.3144,-2.3144,-2.3144,-2.356,-2.4423,-2.5443,-2.6445,-2.7429,-2.8315,-2.8949,-2.9419,-2.9702,-2.9779,-2.9779,-2.9779,-2.9779,-2.9779,-2.9779,-2.9779,-2.9779,-2.9779,-2.9779,-2.9779,-2.9779,-2.9779,-2.9779,-2.9779,-2.9779,-2.9779,-2.9779,-2.9779,-2.9905,-3.0306,-3.0809,-3.1336,-3.1813,-3.234,-3.2893,-3.3093,-3.3093,-3.3093,-3.3093,-3.3093,-3.3093,-3.3093,-3.3093,-3.3093,-3.3093,-3.3093,-3.3093,-3.3144,-3.3294,-3.3621,-3.4198,-3.4726,-3.5102,-3.5755,-3.615,-3.6402,-3.6734,-3.6734,-3.6989,-3.7387,-3.7664,-3.8004,-3.8432,-3.897,-2.5723,-2.5723,-2.5723,-2.5723,-2.5664,-2.5098,-2.4707,-2.4375,-2.3809,-2.3418,-2.3184,-2.3144,-2.3144,-2.3144,-2.3144,-2.3144,-2.3144,-2.3144,-2.3144,-2.3144,-2.3144,-2.3144,-2.3144,-2.3144,-2.3144,-2.3144,-2.3144,-2.3144,-2.3144,-2.3144,-2.3144,-2.3232,-2.3232,-2.3232,-2.3319,-2.3319,-2.3319,-2.3232,-2.3232,-2.3144,-2.3144,-2.3144,-2.3144,-2.3144,-2.3144,-2.3144,-2.3144,-2.3144,-2.3144,-2.3144,-2.3144,-2.3493,-2.4272,-2.5105,-2.6113,-2.7185,-2.8099,-2.8895,-2.9341,-2.9599,-2.9779,-2.9779,-2.9779,-2.9779,-2.9779,-2.9779,-2.9779,-2.9779,-2.9779,-2.9779,-2.9779,-2.9779,-2.9779,-2.9779,-2.9779,-2.9779,-2.9779,-2.9779,-2.9779,-2.9804,-2.9955,-3.0432,-3.116,-3.1612,-3.2064,-3.2893,-3.3093,-3.3093,-3.3093,-3.3093,-3.3093,-3.3093,-3.3093,-3.3093,-3.3093,-3.3093,-3.3093,-3.3093,-3.3093,-3.3093,-3.3395,-3.3671,-3.4198,-3.4901,-3.5554,-3.6031,-3.6257,-3.6452,-3.6546,-3.6546,-3.6922,-3.6989,-3.7083,-3.7546,-3.8187,-2.5723,-2.5723,-2.5723,-2.5723,-2.5684,-2.5254,-2.4922,-2.459,-2.4043,-2.3633,-2.3398,-2.3203,-2.3144,-2.3144,-2.3144,-2.3144,-2.3144,-2.3144,-2.3144,-2.3144,-2.3144,-2.3144,-2.3144,-2.3144,-2.3144,-2.3144,-2.3144,-2.3144,-2.3144,-2.3144,-2.3144,-2.3144,-2.3144,-2.3144,-2.3144,-2.3144,-2.3144,-2.3144,-2.3144,-2.3144,-2.3144,-2.3144,-2.3144,-2.3144,-2.3144,-2.3144,-2.3144,-2.3144,-2.3144,-2.3144,-2.3144,-2.3406,-2.3947,-2.468,-2.5611,-2.661,-2.7592,-2.8395,-2.9106,-2.9443,-2.9702,-2.9779,-2.9779,-2.9779,-2.9779,-2.9779,-2.9779,-2.9779,-2.9779,-2.9779,-2.9779,-2.9779,-2.9779,-2.9779,-2.9779,-2.9779,-2.9779,-2.9779,-2.9779,-2.9779,-2.9804,-3.0331,-3.106,-3.1411,-3.1863,-3.2792,-3.3093,-3.3093,-3.3093,-3.3093,-3.3093,-3.3093,-3.3093,-3.3093,-3.3093,-3.3093,-3.3093,-3.3093,-3.3093,-3.3093,-3.3219,-3.337,-3.3746,-3.4751,-3.5529,-3.6081,-3.6452,-3.6358,-3.6452,-3.6452,-3.6546,-3.664,-3.6734,-3.6896,-3.7453,-2.5723,-2.5723,-2.5723,-2.5723,-2.5684,-2.5312,-2.5098,-2.4922,-2.4277,-2.3906,-2.375,-2.3477,-2.3281,-2.3242,-2.3281,-2.3242,-2.3184,-2.3144,-2.3144,-2.3144,-2.3144,-2.3144,-2.3144,-2.3144,-2.3144,-2.3144,-2.3144,-2.3144,-2.3144,-2.3144,-2.3144,-2.3144,-2.3144,-2.3144,-2.3144,-2.3144,-2.3144,-2.3144,-2.3144,-2.3144,-2.3144,-2.3144,-2.3144,-2.3144,-2.3144,-2.3144,-2.3144,-2.3144,-2.3144,-2.3144,-2.3144,-2.3232,-2.358,-2.4166,-2.4914,-2.5946,-2.694,-2.7834,-2.8633,-2.9184,-2.9521,-2.9702,-2.9779,-2.9779,-2.9779,-2.9779,-2.9779,-2.9779,-2.9779,-2.9779,-2.9779,-2.9779,-2.9779,-2.9779,-2.9779,-2.9779,-2.9779,-2.9779,-2.9829,-2.988,-2.9905,-3.0256,-3.1336,-3.1486,-3.2039,-3.2742,-3.3093,-3.3093,-3.3093,-3.3093,-3.3093,-3.3093,-3.3093,-3.3093,-3.3093,-3.3093,-3.3093,-3.3093,-3.3093,-3.3093,-3.3244,-3.342,-3.3671,-3.465,-3.5554,-3.6081,-3.6358,-3.6358,-3.6358,-3.6452,-3.6452,-3.6358,-3.6546,-3.6734,-3.6828,-2.5723,-2.5723,-2.5723,-2.5723,-2.5723,-2.5605,-2.5371,-2.5078,-2.4844,-2.4512,-2.4277,-2.4141,-2.4023,-2.4043,-2.375,-2.3613,-2.3555,-2.3301,-2.3144,-2.3144,-2.3144,-2.3144,-2.3144,-2.3144,-2.3144,-2.3164,-2.3203,-2.3144,-2.3144,-2.3203,-2.3184,-2.3144,-2.3203,-2.3184,-2.3144,-2.3184,-2.3144,-2.3144,-2.3057,-2.3144,-2.3144,-2.3144,-2.3144,-2.3144,-2.3144,-2.3144,-2.3144,-2.3144,-2.3144,-2.3144,-2.3144,-2.3232,-2.3493,-2.4013,-2.4615,-2.5527,-2.6528,-2.7429,-2.8235,-2.8895,-2.9209,-2.9521,-2.9702,-2.9779,-2.9779,-2.9779,-2.9779,-2.9779,-2.9779,-2.9779,-2.9779,-2.9779,-2.9779,-2.9779,-2.9779,-2.9779,-2.9779,-2.9804,-2.993,-3.0306,-3.0382,-3.0909,-3.1612,-3.1989,-3.224,-3.2867,-3.3093,-3.3093,-3.3093,-3.3093,-3.3093,-3.3093,-3.3093,-3.3093,-3.3093,-3.3093,-3.3093,-3.3093,-3.3093,-3.3093,-3.3395,-3.3822,-3.4173,-3.4801,-3.568,-3.6307,-3.6358,-3.6358,-3.6358,-3.6358,-3.6358,-3.6358,-3.6358,-3.6546,-3.664,-2.5723,-2.5723,-2.5723,-2.5723,-2.5723,-2.5723,-2.5586,-2.5332,-2.5137,-2.4941,-2.4687,-2.4473,-2.4414,-2.4394,-2.416,-2.4043,-2.4004,-2.3789,-2.3691,-2.3691,-2.3711,-2.3496,-2.3281,-2.3281,-2.3418,-2.3437,-2.3594,-2.3672,-2.3691,-2.3672,-2.3672,-2.3711,-2.3672,-2.3672,-2.373,-2.3672,-2.3574,-2.3457,-2.3398,-2.334,-2.3164,-2.3144,-2.3144,-2.3144,-2.3144,-2.3144,-2.3144,-2.3144,-2.3144,-2.3144,-2.3144,-2.3144,-2.3319,-2.3687,-2.4272,-2.502,-2.5863,-2.6693,-2.7672,-2.8339,-2.8895,-2.9209,-2.9521,-2.9702,-2.9779,-2.9779,-2.9779,-2.9779,-2.9779,-2.9779,-2.9779,-2.9779,-2.9779,-2.9779,-2.9779,-2.9779,-2.9779,-3.0005,-3.0256,-3.0557,-3.0834,-3.1235,-3.2114,-3.2215,-3.2516,-3.2893,-3.3093,-3.3093,-3.3093,-3.3093,-3.3093,-3.3093,-3.3093,-3.3093,-3.3093,-3.3093,-3.3093,-3.3093,-3.3194,-3.3169,-3.3495,-3.4022,-3.4449,-3.4951,-3.5805,-3.6358,-3.6358,-3.6358,-3.6358,-3.6358,-3.6358,-3.6358,-3.6358,-3.6358,-3.6452,-2.5723,-2.5723,-2.5723,-2.5723,-2.5742,-2.5645,-2.5625,-2.5644,-2.5236,-2.5176,-2.5078,-2.4727,-2.4687,-2.4551,-2.457,-2.4492,-2.4473,-2.4336,-2.4336,-2.4297,-2.4258,-2.4004,-2.3496,-2.373,-2.3848,-2.3887,-2.4258,-2.4316,-2.4277,-2.4316,-2.4375,-2.4297,-2.4316,-2.4375,-2.4277,-2.4316,-2.418,-2.3887,-2.375,-2.3574,-2.3301,-2.3203,-2.3144,-2.3144,-2.3144,-2.3203,-2.3242,-2.3242,-2.3262,-2.3281,-2.3203,-2.3144,-2.3144,-2.3426,-2.3754,-2.4423,-2.5105,-2.5968,-2.7031,-2.7836,-2.8506,-2.9083,-2.948,-2.9671,-2.9977,-3.0055,-2.9955,-2.998,-2.9829,-2.9779,-2.9779,-2.9779,-2.9779,-2.9804,-2.9829,-2.988,-2.9955,-3.0331,-3.0658,-3.0783,-3.1235,-3.1687,-3.2089,-3.234,-3.2491,-3.2968,-3.3093,-3.3093,-3.3093,-3.3093,-3.3093,-3.3093,-3.3093,-3.3093,-3.3093,-3.3093,-3.3093,-3.3093,-3.3294,-3.3395,-3.3571,-3.4022,-3.4525,-3.5127,-3.5881,-3.6282,-3.6358,-3.6358,-3.6358,-3.6358,-3.6358,-3.6358,-3.6358,-3.6358,-3.6452,-2.5723,-2.5723,-2.5723,-2.5723,-2.5645,-2.543,-2.5528,-2.5625,-2.5334,-2.5257,-2.545,-2.5469,-2.543,-2.541,-2.5078,-2.4922,-2.4883,-2.4629,-2.4414,-2.4414,-2.4414,-2.4355,-2.416,-2.4297,-2.4297,-2.4316,-2.4355,-2.4434,-2.4453,-2.4531,-2.4434,-2.4473,-2.4551,-2.4434,-2.4473,-2.4531,-2.4394,-2.4238,-2.4004,-2.3809,-2.3613,-2.332,-2.3184,-2.3184,-2.3184,-2.3359,-2.3594,-2.3652,-2.3809,-2.3906,-2.3555,-2.3242,-2.3242,-2.3398,-2.3767,-2.4115,-2.4677,-2.5551,-2.6598,-2.7554,-2.8467,-2.9332,-2.9934,-3.0572,-3.0792,-3.0553,-3.0457,-3.0357,-3.008,-2.993,-2.993,-2.9829,-2.988,-2.998,-3.0231,-3.0457,-3.0457,-3.0583,-3.1009,-3.1587,-3.1938,-3.224,-3.2792,-3.2817,-3.2943,-3.3068,-3.3093,-3.3093,-3.3093,-3.3093,-3.3093,-3.3093,-3.3093,-3.3093,-3.3093,-3.3093,-3.3093,-3.3169,-3.3395,-3.3721,-3.3872,-3.4223,-3.4801,-3.5353,-3.5931,-3.6182,-3.6358,-3.6358,-3.6358,-3.6358,-3.6358,-3.6358,-3.6358,-3.6358,-3.6358,-2.5829,-2.591,-2.5718,-2.5522,-2.5404,-2.5115,-2.5039,-2.5137,-2.5039,-2.5156,-2.545,-2.545,-2.5547,-2.5664,-2.5508,-2.5371,-2.514,-2.4775,-2.466,-2.4679,-2.4755,-2.485,-2.485,-2.4905,-2.4961,-2.4805,-2.4961,-2.5019,-2.5039,-2.5019,-2.5098,-2.5039,-2.5019,-2.5098,-2.5039,-2.5,-2.4941,-2.4727,-2.4512,-2.4297,-2.4043,-2.3672,-2.3457,-2.3516,-2.3613,-2.3867,-2.4062,-2.4082,-2.4199,-2.4238,-2.3984,-2.373,-2.373,-2.384,-2.4019,-2.4286,-2.473,-2.5409,-2.6344,-2.7172,-2.806,-2.9106,-2.9809,-3.042,-3.0811,-3.0785,-3.0929,-3.0934,-3.0733,-3.0532,-3.0532,-3.0557,-3.0532,-3.0583,-3.0783,-3.106,-3.1286,-3.1361,-3.1512,-3.2139,-3.2416,-3.2692,-3.2968,-3.3068,-3.3093,-3.3093,-3.3093,-3.3093,-3.3093,-3.3093,-3.3093,-3.3093,-3.3093,-3.3093,-3.3093,-3.3093,-3.3093,-3.3244,-3.352,-3.3922,-3.4299,-3.4726,-3.5203,-3.5655,-3.6056,-3.6232,-3.6358,-3.6358,-3.6358,-3.6358,-3.6358,-3.6358,-3.6383,-3.6408,-3.6383,-2.5655,-2.5844,-2.5515,-2.5226,-2.4969,-2.4498,-2.4233,-2.4332,-2.4332,-2.4548,-2.4979,-2.5137,-2.5273,-2.5586,-2.5547,-2.543,-2.5118,-2.4884,-2.4594,-2.4692,-2.4887,-2.4985,-2.5101,-2.5276,-2.5372,-2.5234,-2.5449,-2.5625,-2.5644,-2.5723,-2.5566,-2.5684,-2.5703,-2.5586,-2.5684,-2.5703,-2.5488,-2.5195,-2.5,-2.4824,-2.4492,-2.4121,-2.3906,-2.3945,-2.4121,-2.4355,-2.4473,-2.4531,-2.457,-2.4609,-2.4609,-2.4609,-2.459,-2.4453,-2.4506,-2.467,-2.4866,-2.5381,-2.6118,-2.6879,-2.7613,-2.8601,-2.9386,-3.0095,-3.0712,-3.1058,-3.1208,-3.1379,-3.1361,-3.1235,-3.1386,-3.1235,-3.126,-3.1336,-3.1411,-3.1738,-3.2089,-3.2265,-3.2365,-3.2416,-3.2692,-3.2968,-3.3018,-3.3093,-3.3093,-3.3093,-3.3093,-3.3093,-3.3093,-3.3093,-3.3093,-3.3093,-3.3093,-3.3093,-3.3093,-3.3144,-3.3119,-3.347,-3.3721,-3.4248,-3.4751,-3.5278,-3.568,-3.578,-3.6081,-3.6257,-3.6358,-3.6358,-3.6358,-3.6358,-3.6358,-3.6358,-3.6383,-3.6433,-3.6508,-2.5013,-2.4977,-2.4681,-2.4517,-2.426,-2.3497,-2.3238,-2.342,-2.3438,-2.3836,-2.4251,-2.4548,-2.4862,-2.5077,-2.5058,-2.4843,-2.4529,-2.4233,-2.4134,-2.4233,-2.443,-2.4627,-2.4941,-2.5137,-2.5373,-2.5567,-2.5625,-2.5625,-2.5723,-2.5723,-2.5723,-2.5723,-2.5723,-2.5723,-2.5723,-2.5723,-2.5703,-2.5527,-2.5293,-2.5078,-2.4902,-2.4609,-2.4355,-2.4355,-2.4492,-2.4687,-2.4902,-2.498,-2.5137,-2.5469,-2.5508,-2.5488,-2.5312,-2.4824,-2.4551,-2.4624,-2.4829,-2.5358,-2.6115,-2.6639,-2.7656,-2.8741,-2.9602,-3.0341,-3.0954,-3.132,-3.1466,-3.1655,-3.1655,-3.1461,-3.1386,-3.1562,-3.1461,-3.1512,-3.1838,-3.2114,-3.2315,-3.2591,-3.2842,-3.2842,-3.2993,-3.3093,-3.3093,-3.3093,-3.3093,-3.3093,-3.3093,-3.3093,-3.3093,-3.3093,-3.3093,-3.3093,-3.3093,-3.3093,-3.3093,-3.3144,-3.3244,-3.3771,-3.4148,-3.4726,-3.5253,-3.5855,-3.6182,-3.6132,-3.6157,-3.6307,-3.6358,-3.6358,-3.6358,-3.6358,-3.6358,-3.6383,-3.6533,-3.6709,-3.696,-2.4213,-2.4287,-2.3926,-2.3545,-2.3218,-2.2671,-2.2299,-2.2232,-2.2434,-2.2972,-2.3591,-2.3872,-2.4016,-2.4233,-2.443,-2.4233,-2.3737,-2.322,-2.3138,-2.312,-2.3438,-2.3935,-2.4332,-2.4646,-2.5039,-2.5235,-2.5333,-2.543,-2.5645,-2.5723,-2.5723,-2.5723,-2.5723,-2.5723,-2.5723,-2.5723,-2.5723,-2.5664,-2.5508,-2.5391,-2.541,-2.5156,-2.5019,-2.4844,-2.498,-2.5215,-2.5332,-2.541,-2.5508,-2.5684,-2.5723,-2.5723,-2.5605,-2.5391,-2.5078,-2.5078,-2.5173,-2.5421,-2.6019,-2.6553,-2.7223,-2.8121,-2.9024,-2.9852,-3.0621,-3.1144,-3.1612,-3.1994,-3.2177,-3.2097,-3.2122,-3.2131,-3.2265,-3.229,-3.2491,-3.2591,-3.2692,-3.2918,-3.3018,-3.3093,-3.3093,-3.3093,-3.3093,-3.3093,-3.3093,-3.3093,-3.3093,-3.3093,-3.3093,-3.3093,-3.3093,-3.3119,-3.3119,-3.3194,-3.3294,-3.347,-3.3621,-3.4098,-3.455,-3.5102,-3.5554,-3.6031,-3.6257,-3.6307,-3.6358,-3.6358,-3.6358,-3.6358,-3.6358,-3.6383,-3.6408,-3.6508,-3.6759,-3.701,-3.7337,-2.3199,-2.3391,-2.3051,-2.2525,-2.2129,-2.1608,-2.1186,-2.1036,-2.1248,-2.1962,-2.284,-2.2972,-2.3003,-2.3167,-2.3302,-2.322,-2.2518,-2.2013,-2.181,-2.1912,-2.2316,-2.282,-2.342,-2.3935,-2.4332,-2.4529,-2.4745,-2.5039,-2.5528,-2.5625,-2.5645,-2.5645,-2.5723,-2.5723,-2.5723,-2.5723,-2.5723,-2.5723,-2.5723,-2.5723,-2.5723,-2.5723,-2.5586,-2.5254,-2.5547,-2.5703,-2.5684,-2.5664,-2.5684,-2.5723,-2.5723,-2.5723,-2.5723,-2.5723,-2.5723,-2.5723,-2.5723,-2.582,-2.6091,-2.6264,-2.6723,-2.7526,-2.8092,-2.891,-2.9829,-3.0621,-3.1424,-3.2113,-3.2326,-3.2339,-3.2352,-3.2649,-3.2821,-3.2907,-3.2882,-3.3043,-3.3018,-3.3068,-3.3043,-3.3093,-3.3093,-3.3093,-3.3119,-3.3093,-3.3093,-3.3093,-3.3093,-3.3093,-3.3093,-3.3093,-3.3093,-3.3144,-3.3194,-3.3319,-3.3545,-3.3897,-3.4173,-3.46,-3.4977,-3.5429,-3.578,-3.6107,-3.6232,-3.6358,-3.6358,-3.6358,-3.6358,-3.6358,-3.6358,-3.6383,-3.6458,-3.6634,-3.6935,-3.7462,-3.7939,-2.1843,-2.1813,-2.1511,-2.136,-2.1113,-2.0342,-1.9953,-1.997,-2.0208,-2.0601,-2.1318,-2.1725,-2.1878,-2.1929,-2.1979,-2.1709,-2.12,-2.0893,-2.0688,-2.079,-2.12,-2.181,-2.2316,-2.282,-2.3338,-2.3737,-2.4035,-2.4646,-2.5137,-2.5333,-2.5528,-2.5645,-2.5723,-2.5723,-2.5723,-2.5723,-2.5723,-2.5723,-2.5723,-2.5723,-2.5723,-2.5723,-2.5684,-2.5664,-2.5684,-2.5723,-2.5723,-2.5723,-2.5723,-2.5723,-2.5723,-2.5723,-2.5723,-2.5723,-2.5723,-2.5723,-2.5723,-2.5839,-2.6014,-2.611,-2.64,-2.6955,-2.7431,-2.8092,-2.9002,-3.0125,-3.1026,-3.1673,-3.1825,-3.1825,-3.2001,-3.2064,-3.2351,-3.2525,-3.2723,-3.281,-3.2982,-3.2921,-3.2921,-3.3007,-3.2921,-3.3032,-3.3169,-3.3119,-3.3093,-3.3093,-3.3093,-3.3119,-3.3219,-3.3345,-3.342,-3.3545,-3.3646,-3.3771,-3.3972,-3.4299,-3.465,-3.5052,-3.5429,-3.5755,-3.5981,-3.6232,-3.6282,-3.6358,-3.6358,-3.6358,-3.6358,-3.6358,-3.6358,-3.6458,-3.6609,-3.686,-3.7136,-3.7739,-3.8442,-2.0601,-2.0816,-2.0701,-2.0528,-2.0327,-1.9771,-1.9377,-1.927,-1.9284,-1.9539,-2.0055,-2.0585,-2.0877,-2.0947,-2.0893,-2.0498,-1.9983,-1.9672,-1.9554,-1.9687,-2.0205,-2.0704,-2.12,-2.1725,-2.2232,-2.2719,-2.322,-2.3836,-2.4529,-2.5137,-2.543,-2.5645,-2.5723,-2.5723,-2.5723,-2.5723,-2.5723,-2.5723,-2.5723,-2.5723,-2.5723,-2.5723,-2.5723,-2.5723,-2.5723,-2.5723,-2.5723,-2.5723,-2.5723,-2.5723,-2.5723,-2.5723,-2.5723,-2.5723,-2.5723,-2.5723,-2.5723,-2.5723,-2.582,-2.5839,-2.611,-2.638,-2.686,-2.7431,-2.8445,-2.9371,-3.0216,-3.0554,-3.0937,-3.1116,-3.1181,-3.1472,-3.1737,-3.2001,-3.2176,-3.2463,-3.255,-3.2636,-3.2661,-3.2661,-3.2798,-3.2947,-3.3134,-3.3258,-3.3258,-3.3345,-3.347,-3.3621,-3.3796,-3.3997,-3.4073,-3.4148,-3.4248,-3.4374,-3.455,-3.4826,-3.5077,-3.5454,-3.5805,-3.6081,-3.6207,-3.6358,-3.6358,-3.6358,-3.6358,-3.6358,-3.6358,-3.6358,-3.6358,-3.6584,-3.681,-3.7136,-3.7487,-3.814,-3.8793,-1.9707,-2.0053,-2.004,-1.9873,-1.9569,-1.9265,-1.896,-1.8656,-1.8654,-1.8708,-1.8991,-1.9524,-1.9864,-1.9968,-1.9879,-1.9509,-1.9089,-1.885,-1.8801,-1.9041,-1.9371,-1.9792,-2.0284,-2.0757,-2.121,-2.1725,-2.2316,-2.302,-2.3954,-2.4721,-2.5388,-2.5664,-2.5723,-2.5723,-2.5723,-2.5723,-2.5723,-2.5723,-2.5723,-2.5723,-2.5723,-2.5723,-2.5723,-2.5723,-2.5723,-2.5723,-2.5723,-2.5723,-2.5723,-2.5723,-2.5723,-2.5781,-2.5918,-2.5957,-2.6055,-2.6113,-2.6191,-2.6172,-2.6074,-2.5957,-2.5879,-2.6014,-2.638,-2.7051,-2.7882,-2.8724,-2.9209,-2.9463,-2.9738,-3.0034,-3.0306,-3.0578,-3.0847,-3.1092,-3.1472,-3.1737,-3.205,-3.2123,-3.2357,-3.2568,-3.2665,-3.2926,-3.3153,-3.3319,-3.3446,-3.3621,-3.3771,-3.4048,-3.4299,-3.4575,-3.455,-3.4575,-3.4826,-3.4926,-3.5077,-3.5303,-3.5554,-3.578,-3.6132,-3.6307,-3.6358,-3.6358,-3.6358,-3.6358,-3.6358,-3.6358,-3.6358,-3.6358,-3.6383,-3.6609,-3.691,-3.7462,-3.7965,-3.8592,-3.9069,-1.9488,-1.9488,-1.9475,-1.93,-1.9004,-1.8722,-1.8426,-1.8131,-1.8047,-1.7975,-1.8039,-1.8457,-1.8916,-1.8945,-1.8988,-1.8816,-1.8534,-1.8548,-1.8672,-1.8946,-1.9153,-1.9391,-1.9692,-1.9985,-2.0422,-2.083,-2.1566,-2.2452,-2.3444,-2.4611,-2.5263,-2.5605,-2.5859,-2.582,-2.584,-2.5957,-2.5937,-2.5918,-2.5879,-2.582,-2.5801,-2.5801,-2.5801,-2.5781,-2.5762,-2.5742,-2.5742,-2.584,-2.5898,-2.5898,-2.5918,-2.6035,-2.6289,-2.6328,-2.6465,-2.6641,-2.6719,-2.6699,-2.6621,-2.625,-2.584,-2.5859,-2.6287,-2.6871,-2.7469,-2.7589,-2.8019,-2.8481,-2.8784,-2.8948,-2.909,-2.9324,-2.9782,-3.0308,-3.0767,-3.1132,-3.1404,-3.1603,-3.1836,-3.2232,-3.2539,-3.2616,-3.3131,-3.3381,-3.3727,-3.3881,-3.4424,-3.47,-3.4826,-3.5027,-3.4926,-3.4977,-3.5303,-3.5454,-3.5529,-3.5755,-3.5981,-3.6056,-3.6257,-3.6332,-3.6358,-3.6358,-3.6358,-3.6358,-3.6358,-3.6358,-3.6358,-3.6358,-3.6433,-3.6634,-3.7036,-3.7739,-3.8366,-3.8969,-3.932,-1.9372,-1.9345,-1.9172,-1.9025,-1.8905,-1.8611,-1.8317,-1.8023,-1.7835,-1.7793,-1.7871,-1.8185,-1.8394,-1.8359,-1.854,-1.8452,-1.8279,-1.8482,-1.8617,-1.8658,-1.8892,-1.9057,-1.9178,-1.9476,-1.9852,-2.0377,-2.109,-2.2159,-2.3271,-2.4414,-2.5321,-2.5819,-2.6184,-2.6423,-2.6523,-2.6445,-2.6465,-2.6406,-2.6269,-2.6133,-2.6133,-2.6133,-2.6133,-2.6133,-2.6465,-2.6504,-2.6543,-2.6523,-2.6523,-2.6504,-2.6484,-2.6602,-2.6738,-2.6758,-2.6875,-2.7051,-2.709,-2.709,-2.7051,-2.6719,-2.6543,-2.6523,-2.6823,-2.7162,-2.7279,-2.7656,-2.7806,-2.8015,-2.8061,-2.8232,-2.8349,-2.8561,-2.8912,-2.9679,-3.0125,-3.0458,-3.0717,-3.0905,-3.1159,-3.1435,-3.1785,-3.2018,-3.2653,-3.3362,-3.3893,-3.4297,-3.4869,-3.5303,-3.5429,-3.5529,-3.5479,-3.5454,-3.573,-3.5881,-3.5956,-3.6157,-3.6358,-3.6358,-3.6358,-3.6358,-3.6358,-3.6358,-3.6358,-3.6358,-3.6358,-3.6358,-3.6358,-3.6358,-3.6433,-3.6533,-3.7262,-3.8191,-3.8793,-3.9346,-3.9521,-1.9319,-1.9212,-1.9011,-1.8878,-1.8771,-1.8477,-1.8196,-1.7903,-1.7675,-1.7687,-1.7898,-1.8003,-1.8058,-1.8088,-1.8238,-1.8414,-1.8343,-1.8531,-1.8664,-1.887,-1.9023,-1.9027,-1.8959,-1.9237,-1.9637,-2.0157,-2.0861,-2.1786,-2.2928,-2.4069,-2.5053,-2.5823,-2.656,-2.6852,-2.6953,-2.7012,-2.7012,-2.6914,-2.6777,-2.6582,-2.6562,-2.6562,-2.6562,-2.6582,-2.6816,-2.6914,-2.6914,-2.6894,-2.6914,-2.6914,-2.6953,-2.7051,-2.7148,-2.7226,-2.7266,-2.7344,-2.7383,-2.7383,-2.7363,-2.7129,-2.7031,-2.6894,-2.7035,-2.7238,-2.7419,-2.7622,-2.7563,-2.76,-2.7638,-2.7815,-2.7836,-2.8152,-2.839,-2.9027,-2.9244,-2.9613,-2.9925,-3.0097,-3.0414,-3.0634,-3.094,-3.142,-3.242,-3.3258,-3.4126,-3.4642,-3.5282,-3.5669,-3.5769,-3.5962,-3.6107,-3.6107,-3.6182,-3.6282,-3.6358,-3.6358,-3.6358,-3.6358,-3.6358,-3.6358,-3.6358,-3.6358,-3.6358,-3.6358,-3.6358,-3.6358,-3.6358,-3.6383,-3.6383,-3.6383,-3.7287,-3.8291,-3.9069,-3.9546,-3.9597,-1.9199,-1.8945,-1.8905,-1.8731,-1.8477,-1.8183,-1.7903,-1.7662,-1.7595,-1.7582,-1.7701,-1.7701,-1.7875,-1.7983,-1.8103,-1.8397,-1.8731,-1.8865,-1.9011,-1.9172,-1.9287,-1.9105,-1.9098,-1.9217,-1.9486,-1.9857,-2.0435,-2.1261,-2.236,-2.3503,-2.4593,-2.5558,-2.6454,-2.7055,-2.7007,-2.7051,-2.7031,-2.7031,-2.7051,-2.7012,-2.7012,-2.7012,-2.7012,-2.7031,-2.7168,-2.7266,-2.7285,-2.7266,-2.7285,-2.7266,-2.7246,-2.7383,-2.7617,-2.7637,-2.7793,-2.8086,-2.8144,-2.8184,-2.8184,-2.7461,-2.7226,-2.7207,-2.7408,-2.7349,-2.7129,-2.7192,-2.7314,-2.754,-2.7481,-2.7582,-2.7703,-2.7804,-2.8066,-2.839,-2.8734,-2.8956,-2.93,-2.9521,-2.9812,-3.004,-3.0306,-3.0817,-3.1929,-3.3055,-3.4119,-3.4897,-3.5667,-3.5908,-3.5908,-3.6003,-3.6073,-3.6168,-3.6168,-3.6288,-3.6288,-3.6358,-3.6358,-3.6358,-3.6358,-3.6358,-3.6358,-3.6358,-3.6358,-3.6358,-3.6358,-3.6358,-3.6383,-3.6383,-3.6659,-3.7036,-3.7437,-3.8266,-3.912,-3.9697,-3.9697,-1.9011,-1.8891,-1.8504,-1.829,-1.8183,-1.809,-1.7876,-1.7622,-1.7582,-1.7595,-1.7635,-1.7782,-1.7929,-1.8116,-1.845,-1.8731,-1.8905,-1.9185,-1.9332,-1.9345,-1.9372,-1.9319,-1.9327,-1.9273,-1.959,-1.9877,-2.0288,-2.092,-2.1877,-2.2942,-2.3988,-2.5099,-2.6426,-2.7378,-2.7612,-2.7746,-2.7871,-2.7812,-2.7637,-2.7441,-2.7441,-2.7441,-2.7441,-2.7461,-2.7676,-2.7773,-2.7773,-2.7734,-2.7754,-2.7754,-2.7754,-2.7871,-2.8027,-2.8047,-2.8125,-2.8281,-2.8301,-2.8301,-2.8281,-2.7969,-2.7891,-2.7832,-2.7793,-2.7773,-2.7851,-2.7871,-2.7839,-2.7604,-2.7648,-2.7752,-2.7752,-2.7752,-2.7954,-2.8481,-2.877,-2.8874,-2.9082,-2.9186,-2.9352,-2.9497,-2.9746,-3.0427,-3.1338,-3.2117,-3.3124,-3.3819,-3.4311,-3.5114,-3.5307,-3.5428,-3.5524,-3.5812,-3.5908,-3.6098,-3.6193,-3.6193,-3.6263,-3.6288,-3.6358,-3.6358,-3.6358,-3.6263,-3.6358,-3.6263,-3.6358,-3.6383,-3.6584,-3.686,-3.7412,-3.7864,-3.809,-3.8492,-3.932,-3.9697,-3.9697,-1.8704,-1.8584,-1.821,-1.7983,-1.7903,-1.7889,-1.7769,-1.7622,-1.7689,-1.7742,-1.7822,-1.8063,-1.8277,-1.845,-1.8718,-1.9025,-1.9078,-1.9252,-1.9359,-1.9372,-1.9372,-1.9345,-1.9359,-1.9488,-1.9537,-1.9822,-2.004,-2.0587,-2.1329,-2.2168,-2.3279,-2.4727,-2.6118,-2.6952,-2.7473,-2.7883,-2.8223,-2.8144,-2.7969,-2.7891,-2.7891,-2.7891,-2.7891,-2.7949,-2.8086,-2.8262,-2.8281,-2.8301,-2.8301,-2.8301,-2.8301,-2.8301,-2.8301,-2.8301,-2.8301,-2.8301,-2.8301,-2.8301,-2.8281,-2.8281,-2.8184,-2.8203,-2.8301,-2.8301,-2.8301,-2.8203,-2.8105,-2.7949,-2.7891,-2.7871,-2.7851,-2.7851,-2.8074,-2.8601,-2.8601,-2.8668,-2.8754,-2.882,-2.882,-2.9006,-2.9237,-2.9953,-3.0578,-3.1094,-3.1913,-3.2398,-3.3001,-3.372,-3.4507,-3.4726,-3.4823,-3.5114,-3.5404,-3.562,-3.5716,-3.5908,-3.6003,-3.6098,-3.6123,-3.6173,-3.6098,-3.6003,-3.6073,-3.6148,-3.6322,-3.6522,-3.6843,-3.729,-3.7889,-3.8216,-3.8442,-3.8944,-3.9572,-3.9697,-3.9697,-1.8317,-1.8063,-1.8036,-1.7849,-1.7622,-1.7649,-1.7635,-1.7635,-1.7903,-1.8036,-1.8076,-1.837,-1.8597,-1.8851,-1.8945,-1.9092,-1.9279,-1.9345,-1.9359,-1.9372,-1.9372,-1.9372,-1.9372,-1.9372,-1.9475,-1.9707,-1.9809,-2.0155,-2.0716,-2.1502,-2.2749,-2.4094,-2.5551,-2.6445,-2.7098,-2.7745,-2.8194,-2.8262,-2.8223,-2.8164,-2.8164,-2.8203,-2.8184,-2.8203,-2.8262,-2.8301,-2.8301,-2.8301,-2.8301,-2.8301,-2.8301,-2.8301,-2.8301,-2.8301,-2.8301,-2.8301,-2.8301,-2.8301,-2.8301,-2.8301,-2.8301,-2.8301,-2.8301,-2.8301,-2.8301,-2.8301,-2.8223,-2.8203,-2.8164,-2.8203,-2.8242,-2.8223,-2.8223,-2.8408,-2.8301,-2.8388,-2.8388,-2.8388,-2.8388,-2.8514,-2.8727,-2.9237,-2.9764,-3.037,-3.0785,-3.1094,-3.1586,-3.2095,-3.2801,-3.3697,-3.3895,-3.4213,-3.4605,-3.5017,-3.5235,-3.5356,-3.5671,-3.5745,-3.5842,-3.5866,-3.5743,-3.5745,-3.5941,-3.6113,-3.6309,-3.6628,-3.7196,-3.7693,-3.8166,-3.8592,-3.8894,-3.912,-3.9672,-3.9697,-3.9697,-1.7886,-1.8023,-1.7809,-1.7662,-1.7622,-1.7809,-1.7916,-1.7929,-1.8023,-1.8156,-1.8384,-1.8677,-1.8865,-1.8945,-1.9145,-1.9279,-1.9332,-1.9372,-1.9359,-1.9372,-1.9372,-1.9372,-1.9372,-1.9372,-1.9475,-1.9475,-1.9591,-1.9693,-2.027,-2.0945,-2.2184,-2.3648,-2.4889,-2.5881,-2.6881,-2.7638,-2.796,-2.8301,-2.8301,-2.8301,-2.8301,-2.8301,-2.8301,-2.8301,-2.8301,-2.8301,-2.8301,-2.8301,-2.8301,-2.8301,-2.8301,-2.8301,-2.8301,-2.8301,-2.8301,-2.8301,-2.8301,-2.8301,-2.8301,-2.8301,-2.8301,-2.8301,-2.832,-2.8301,-2.8301,-2.832,-2.832,-2.8301,-2.8301,-2.8301,-2.8301,-2.8301,-2.8301,-2.8301,-2.8301,-2.8301,-2.8301,-2.8301,-2.8301,-2.8301,-2.8514,-2.8727,-2.9237,-2.9554,-2.9953,-3.0057,-3.0287,-3.0703,-3.1322,-3.2218,-3.3015,-3.3315,-3.3661,-3.4106,-3.4454,-3.465,-3.5038,-3.5477,-3.5451,-3.5497,-3.5689,-3.5809,-3.5905,-3.5978,-3.6199,-3.684,-3.7661,-3.8187,-3.849,-3.9043,-3.9446,-3.9546,-3.9647,-3.9672,-3.9697,-1.7742,-1.7836,-1.7662,-1.7649,-1.7809,-1.809,-1.8277,-1.837,-1.8397,-1.8504,-1.8691,-1.8971,-1.9105,-1.9132,-1.9279,-1.9359,-1.9359,-1.9372,-1.9372,-1.9372,-1.9372,-1.9372,-1.9372,-1.9372,-1.9372,-1.9372,-1.9359,-1.9475,-1.9924,-2.0716,-2.1843,-2.2877,-2.4223,-2.5441,-2.6427,-2.7314,-2.7853,-2.8174,-2.8301,-2.8301,-2.8301,-2.8301,-2.8301,-2.832,-2.832,-2.834,-2.834,-2.834,-2.832,-2.8301,-2.8301,-2.8301,-2.8301,-2.8301,-2.8301,-2.8301,-2.8301,-2.8301,-2.8301,-2.8301,-2.8301,-2.834,-2.8457,-2.8555,-2.8476,-2.8437,-2.8359,-2.8301,-2.8301,-2.8301,-2.8301,-2.8301,-2.8301,-2.8301,-2.8301,-2.8301,-2.8301,-2.8301,-2.8301,-2.8301,-2.8408,-2.8514,-2.8727,-2.892,-2.9132,-2.9237,-2.9509,-2.9823,-3.0308,-3.0995,-3.1745,-3.2266,-3.2699,-3.3152,-3.349,-3.3885,-3.4365,-3.4801,-3.5074,-3.516,-3.5545,-3.5385,-3.5212,-3.5559,-3.6057,-3.6805,-3.7557,-3.8197,-3.8757,-3.9262,-3.9697,-3.9672,-3.9672,-3.9672,-3.9697,-1.7595,-1.7595,-1.7609,-1.7809,-1.8103,-1.8397,-1.8677,-1.8945,-1.8931,-1.8958,-1.9011,-1.9239,-1.9332,-1.9305,-1.9359,-1.9372,-1.9372,-1.9372,-1.9372,-1.9372,-1.9372,-1.9372,-1.9372,-1.9372,-1.9372,-1.9372,-1.9372,-1.9475,-1.9591,-2.0385,-2.1288,-2.2101,-2.3552,-2.4872,-2.61,-2.6989,-2.7638,-2.8067,-2.8301,-2.8301,-2.832,-2.832,-2.834,-2.8379,-2.8437,-2.8476,-2.8457,-2.8418,-2.8398,-2.8418,-2.8437,-2.8476,-2.8398,-2.8398,-2.8398,-2.8457,-2.8535,-2.8516,-2.8535,-2.8555,-2.8476,-2.8574,-2.873,-2.8906,-2.8887,-2.8789,-2.8711,-2.8516,-2.8516,-2.8379,-2.8359,-2.832,-2.8301,-2.8301,-2.8301,-2.8301,-2.8301,-2.8301,-2.8301,-2.8301,-2.8301,-2.8408,-2.8408,-2.8727,-2.8846,-2.8787,-2.8886,-2.924,-2.9595,-3.0175,-3.081,-3.1402,-3.1741,-3.2249,-3.2801,-3.3204,-3.3742,-3.411,-3.4366,-3.4547,-3.469,-3.4538,-3.4319,-3.4865,-3.5329,-3.6284,-3.718,-3.7887,-3.8669,-3.9183,-3.949,-3.9697,-3.9697,-3.9697,-3.9697,-1.7582,-1.7609,-1.7836,-1.8116,-1.841,-1.8704,-1.8985,-1.9252,-1.9265,-1.9252,-1.9279,-1.9332,-1.9372,-1.9372,-1.9372,-1.9372,-1.9372,-1.9372,-1.9372,-1.9372,-1.9372,-1.9372,-1.9372,-1.9372,-1.9372,-1.9372,-1.9372,-1.9372,-1.9591,-2.0155,-2.0831,-2.1744,-2.3087,-2.4317,-2.5661,-2.6554,-2.7314,-2.796,-2.8174,-2.832,-2.8379,-2.8633,-2.8769,-2.8867,-2.8965,-2.9141,-2.916,-2.9199,-2.9238,-2.9258,-2.9277,-2.9101,-2.8809,-2.8769,-2.8769,-2.8828,-2.9004,-2.8965,-2.8906,-2.8945,-2.8984,-2.8965,-2.9121,-2.9316,-2.9375,-2.9297,-2.9141,-2.8906,-2.8711,-2.8574,-2.8418,-2.8379,-2.8301,-2.8301,-2.8301,-2.8301,-2.8301,-2.8301,-2.8301,-2.8301,-2.8301,-2.8301,-2.8301,-2.8379,-2.8496,-2.8721,-2.8839,-2.9124,-2.9439,-2.9959,-3.0458,-3.0888,-3.0956,-3.1454,-3.2057,-3.2619,-3.3095,-3.3312,-3.3486,-3.3682,-3.39,-3.3725,-3.355,-3.4009,-3.467,-3.5485,-3.6464,-3.7477,-3.8267,-3.8945,-3.9465,-3.9594,-3.9697,-3.9697,-3.9697,-1.7582,-1.7649,-1.8063,-1.833,-1.8544,-1.8931,-1.9225,-1.9345,-1.9372,-1.9372,-1.9372,-1.9372,-1.9372,-1.9372,-1.9372,-1.9372,-1.9372,-1.9372,-1.9372,-1.9372,-1.9372,-1.9372,-1.9372,-1.9372,-1.9372,-1.9372,-1.9372,-1.9475,-1.9475,-1.9809,-2.0486,-2.1274,-2.241,-2.376,-2.5238,-2.6118,-2.6989,-2.7853,-2.8067,-2.8291,-2.8516,-2.8809,-2.9062,-2.9219,-2.9414,-2.959,-2.957,-2.957,-2.957,-2.9551,-2.9512,-2.9453,-2.9238,-2.9219,-2.9199,-2.9258,-2.9355,-2.9473,-2.9355,-2.9394,-2.9512,-2.9434,-2.959,-2.9824,-2.9922,-2.9844,-2.9746,-2.9512,-2.9258,-2.9082,-2.8769,-2.8652,-2.8457,-2.8379,-2.832,-2.8301,-2.8301,-2.8301,-2.8301,-2.8301,-2.8301,-2.8301,-2.8359,-2.8594,-2.8711,-2.8828,-2.8965,-2.9375,-2.9668,-2.9863,-3.028,-3.0545,-3.069,-3.1055,-3.1861,-3.2126,-3.2371,-3.2567,-3.27,-3.2805,-3.3022,-3.2901,-3.2892,-3.3212,-3.3663,-3.4558,-3.5553,-3.6665,-3.7761,-3.8526,-3.905,-3.9569,-3.9594,-3.9697,-3.9697,-1.7609,-1.7729,-1.825,-1.8517,-1.8624,-1.9118,-1.9359,-1.9372,-1.9372,-1.9372,-1.9372,-1.9372,-1.9372,-1.9372,-1.9372,-1.9372,-1.9372,-1.9372,-1.9372,-1.9372,-1.9372,-1.9372,-1.9372,-1.9372,-1.9372,-1.9372,-1.9372,-1.9372,-1.9488,-1.9822,-2.0155,-2.0831,-2.1843,-2.3087,-2.4445,-2.5569,-2.6445,-2.7352,-2.7879,-2.8327,-2.8719,-2.9004,-2.9297,-2.9512,-2.9707,-2.9726,-2.9746,-2.9766,-2.9766,-2.9746,-2.9785,-2.9687,-2.9687,-2.9648,-2.9648,-2.9687,-2.9844,-2.9824,-2.9726,-2.9805,-2.9766,-2.9785,-3.0098,-3.0293,-3.0371,-3.0332,-3.0234,-3.0078,-2.9824,-2.9512,-2.9199,-2.8965,-2.875,-2.8594,-2.8535,-2.8496,-2.8496,-2.8496,-2.8496,-2.8496,-2.8496,-2.8496,-2.8633,-2.8848,-2.9004,-2.9121,-2.9375,-2.9805,-3.0137,-3.0273,-3.0486,-3.064,-3.0849,-3.1277,-3.1572,-3.1761,-3.1889,-3.193,-3.2064,-3.2146,-3.2113,-3.1998,-3.2018,-3.2227,-3.2778,-3.3685,-3.4692,-3.5904,-3.6989,-3.808,-3.8736,-3.9258,-3.949,-3.9594,-3.9697,-1.7729,-1.7983,-1.8343,-1.8624,-1.8865,-1.9212,-1.9372,-1.9372,-1.9372,-1.9372,-1.9372,-1.9372,-1.9372,-1.9372,-1.9372,-1.9372,-1.9372,-1.9372,-1.9372,-1.9372,-1.9372,-1.9372,-1.9372,-1.9372,-1.9372,-1.9372,-1.9372,-1.9372,-1.9359,-1.9707,-2.004,-2.0716,-2.1288,-2.241,-2.3552,-2.4684,-2.5806,-2.6646,-2.7801,-2.8416,-2.8983,-2.9288,-2.9687,-3.0019,-3.0449,-3.0566,-3.0644,-3.0644,-3.0644,-3.0547,-3.0293,-3.0137,-3.0078,-3.0098,-3.0078,-3.0137,-3.0293,-3.0273,-3.0234,-3.0332,-3.0312,-3.0137,-3.043,-3.0664,-3.0703,-3.0703,-3.0625,-3.0586,-3.0293,-2.9902,-2.9609,-2.9473,-2.9297,-2.9258,-2.9199,-2.9199,-2.9199,-2.9199,-2.9199,-2.918,-2.918,-2.918,-2.9219,-2.9394,-2.9551,-2.9687,-2.9883,-3.0273,-3.0527,-3.0664,-3.0762,-3.0762,-3.0878,-3.0937,-3.1092,-3.1208,-3.1265,-3.1325,-3.146,-3.1556,-3.1441,-3.1228,-3.1228,-3.1556,-3.2113,-3.2913,-3.3909,-3.5024,-3.6231,-3.7311,-3.8291,-3.8945,-3.9258,-3.949,-3.9594]}]]